[[{"header":{"parameterUnit":"m.s-1","parameterCategory":1,"la1":30.6,"la2":29.2853,"lo1":-89.7004,"lo2":-87.6739,"dy":0.0162,"dx":0.0183,"nx":112,"ny":82,"refTime":"2023-08-22T12:00:00:Z","depth":0,"parameterNumber":2,"parameterNumberName":"U-component_of_WINDS"},"data":[0.0,0.0,0.0,0.0,0.0,0.0,0.0,0.0,0.0,0.0,0.0,0.0,0.0,0.0,0.0,0.0,0.0,0.0,0.0,0.0,0.0,0.0,0.0,0.0,0.0,0.0,0.0,0.0,0.0,0.0,0.0,0.0,0.0,0.0,0.0,0.0,0.0,0.0,0.0,0.0,0.0,0.0,0.0,0.0,0.0,0.0,0.0,0.0,0.0,0.0,0.0,0.0,0.0,0.0,0.0,0.0,0.0,0.0,0.0,0.0,0.0,0.0,0.0,0.0,0.0,0.0,0.0,0.0,0.0,0.0,0.0,0.0,0.0,0.0,0.0,0.0,0.0,0.0,0.0,0.0,0.0,0.0,0.0,0.0,0.0,0.0,0.0,0.0,0.0,0.0,0.0,-5.0862,-5.508,-5.8348,-5.9917,-5.927,-5.7422,-5.4199,0.0,0.0,0.0,0.0,0.0,0.0,0.0,0.0,0.0,0.0,0.0,0.0,0.0,0.0,0.0,0.0,0.0,0.0,0.0,0.0,0.0,0.0,0.0,0.0,0.0,0.0,0.0,0.0,0.0,0.0,0.0,0.0,0.0,0.0,0.0,0.0,0.0,0.0,0.0,0.0,0.0,0.0,0.0,0.0,0.0,0.0,0.0,0.0,0.0,0.0,0.0,0.0,0.0,0.0,0.0,0.0,0.0,0.0,0.0,0.0,0.0,0.0,0.0,0.0,0.0,0.0,0.0,0.0,0.0,0.0,0.0,0.0,0.0,0.0,0.0,0.0,0.0,0.0,0.0,0.0,0.0,0.0,0.0,0.0,0.0,0.0,0.0,0.0,0.0,0.0,0.0,0.0,0.0,0.0,0.0,0.0,0.0,0.0,0.0,0.0,0.0,0.0,0.0,0.0,-4.8429,-5.1967,-5.5567,-5.8152,-5.9255,-5.789,-5.6133,-5.4121,0.0,0.0,0.0,0.0,0.0,0.0,0.0,0.0,0.0,0.0,0.0,0.0,0.0,0.0,0.0,0.0,0.0,0.0,0.0,0.0,0.0,0.0,0.0,0.0,0.0,0.0,0.0,0.0,0.0,0.0,0.0,0.0,0.0,0.0,0.0,0.0,0.0,0.0,0.0,0.0,0.0,0.0,0.0,0.0,0.0,0.0,0.0,0.0,0.0,0.0,0.0,0.0,0.0,0.0,0.0,0.0,0.0,0.0,0.0,0.0,0.0,0.0,0.0,0.0,0.0,0.0,0.0,0.0,0.0,0.0,0.0,0.0,0.0,0.0,0.0,0.0,0.0,0.0,0.0,0.0,0.0,0.0,0.0,0.0,0.0,0.0,0.0,0.0,0.0,0.0,0.0,0.0,0.0,0.0,0.0,0.0,0.0,0.0,0.0,0.0,0.0,0.0,0.0,-4.8462,-5.0373,-5.296,-5.5565,-5.7475,-5.8418,-5.7324,-5.5644,-5.3437,-5.248,0.0,0.0,0.0,0.0,0.0,0.0,0.0,0.0,0.0,0.0,0.0,0.0,0.0,0.0,0.0,0.0,0.0,0.0,0.0,0.0,0.0,0.0,0.0,0.0,0.0,0.0,0.0,0.0,0.0,0.0,0.0,0.0,0.0,0.0,0.0,0.0,0.0,0.0,0.0,0.0,0.0,0.0,0.0,0.0,0.0,0.0,0.0,0.0,0.0,0.0,0.0,0.0,0.0,0.0,0.0,0.0,0.0,0.0,0.0,0.0,0.0,0.0,0.0,0.0,0.0,0.0,0.0,0.0,0.0,0.0,0.0,0.0,0.0,0.0,0.0,0.0,0.0,0.0,0.0,0.0,0.0,0.0,0.0,0.0,0.0,0.0,0.0,0.0,0.0,0.0,0.0,0.0,0.0,0.0,0.0,0.0,0.0,0.0,0.0,0.0,0.0,0.0,-4.9987,-5.1722,-5.3645,-5.5308,-5.6738,-5.7812,-5.6719,-5.5058,-5.2832,-5.1504,0.0,0.0,0.0,0.0,0.0,0.0,0.0,0.0,0.0,0.0,0.0,0.0,0.0,0.0,0.0,0.0,0.0,0.0,0.0,0.0,0.0,0.0,0.0,0.0,0.0,0.0,0.0,0.0,0.0,0.0,0.0,0.0,0.0,0.0,0.0,0.0,0.0,0.0,0.0,0.0,0.0,0.0,0.0,0.0,0.0,0.0,0.0,0.0,0.0,0.0,0.0,0.0,0.0,0.0,0.0,0.0,0.0,0.0,0.0,0.0,0.0,0.0,0.0,0.0,0.0,0.0,0.0,0.0,0.0,0.0,0.0,0.0,0.0,0.0,0.0,0.0,0.0,0.0,0.0,0.0,0.0,0.0,0.0,0.0,0.0,0.0,0.0,0.0,0.0,0.0,0.0,0.0,0.0,0.0,0.0,0.0,0.0,0.0,0.0,0.0,0.0,0.0,-4.9508,-5.1091,-5.371,-5.4824,-5.6074,-5.7754,-5.5625,-5.3769,-5.2754,-5.043,0.0,0.0,0.0,0.0,0.0,0.0,0.0,0.0,0.0,0.0,0.0,0.0,0.0,0.0,0.0,0.0,0.0,0.0,0.0,0.0,0.0,0.0,0.0,0.0,0.0,0.0,0.0,0.0,0.0,0.0,0.0,0.0,0.0,0.0,0.0,0.0,0.0,0.0,0.0,0.0,0.0,0.0,0.0,0.0,0.0,0.0,0.0,0.0,0.0,0.0,0.0,0.0,0.0,0.0,0.0,0.0,0.0,0.0,0.0,0.0,0.0,0.0,0.0,0.0,0.0,0.0,0.0,0.0,0.0,0.0,0.0,0.0,0.0,0.0,0.0,0.0,0.0,0.0,0.0,0.0,0.0,0.0,0.0,0.0,0.0,0.0,0.0,0.0,0.0,0.0,0.0,0.0,0.0,0.0,0.0,0.0,0.0,0.0,0.0,0.0,0.0,0.0,-4.9252,-5.07,0.0,-5.3633,-5.4746,-5.541,-5.457,-5.3183,-5.1269,0.0,0.0,0.0,0.0,0.0,0.0,0.0,0.0,0.0,0.0,0.0,0.0,0.0,0.0,0.0,0.0,0.0,0.0,0.0,0.0,0.0,0.0,0.0,0.0,0.0,0.0,0.0,0.0,0.0,0.0,0.0,0.0,0.0,0.0,0.0,0.0,0.0,0.0,0.0,0.0,0.0,0.0,0.0,0.0,0.0,0.0,0.0,0.0,0.0,0.0,0.0,0.0,0.0,0.0,0.0,0.0,0.0,0.0,0.0,0.0,0.0,0.0,0.0,0.0,0.0,0.0,0.0,0.0,0.0,0.0,0.0,0.0,0.0,0.0,0.0,0.0,0.0,0.0,0.0,0.0,0.0,0.0,0.0,0.0,0.0,0.0,0.0,0.0,0.0,0.0,0.0,0.0,0.0,0.0,0.0,0.0,0.0,0.0,0.0,0.0,0.0,0.0,-4.748,-4.8887,-5.0195,0.0,-5.2715,-5.3691,-5.3984,-5.3262,-5.2051,-5.0312,0.0,0.0,0.0,0.0,0.0,0.0,0.0,0.0,0.0,0.0,0.0,0.0,0.0,0.0,0.0,0.0,0.0,0.0,0.0,0.0,0.0,0.0,0.0,0.0,0.0,0.0,0.0,0.0,0.0,0.0,0.0,0.0,0.0,0.0,0.0,0.0,0.0,0.0,0.0,0.0,0.0,0.0,0.0,0.0,0.0,0.0,0.0,0.0,0.0,0.0,0.0,0.0,0.0,0.0,0.0,0.0,0.0,0.0,0.0,0.0,0.0,0.0,0.0,0.0,0.0,0.0,0.0,0.0,0.0,0.0,0.0,0.0,0.0,0.0,0.0,0.0,0.0,0.0,0.0,0.0,0.0,0.0,0.0,0.0,0.0,0.0,0.0,0.0,0.0,0.0,0.0,0.0,0.0,0.0,0.0,0.0,0.0,0.0,0.0,0.0,0.0,0.0,-4.7461,-4.8359,-4.9512,-5.1172,-5.2148,-5.3008,-5.3867,-5.1621,-5.0176,0.0,0.0,0.0,0.0,0.0,0.0,0.0,0.0,0.0,0.0,0.0,0.0,0.0,0.0,0.0,0.0,0.0,0.0,0.0,0.0,0.0,0.0,0.0,0.0,0.0,0.0,0.0,0.0,0.0,0.0,0.0,0.0,0.0,0.0,0.0,0.0,0.0,0.0,0.0,0.0,0.0,0.0,0.0,0.0,0.0,0.0,0.0,0.0,0.0,0.0,0.0,0.0,0.0,0.0,0.0,0.0,0.0,0.0,0.0,0.0,0.0,0.0,0.0,0.0,0.0,0.0,0.0,0.0,0.0,0.0,0.0,0.0,0.0,0.0,0.0,0.0,0.0,0.0,0.0,0.0,0.0,0.0,0.0,0.0,0.0,0.0,0.0,0.0,0.0,0.0,0.0,0.0,0.0,0.0,0.0,0.0,0.0,0.0,0.0,0.0,0.0,0.0,0.0,-4.6641,-4.7441,-4.8164,-4.8672,-4.9492,-5.0117,-5.0371,-4.9726,-4.9023,-4.8418,0.0,0.0,0.0,0.0,0.0,0.0,0.0,0.0,0.0,0.0,0.0,0.0,0.0,0.0,0.0,0.0,0.0,0.0,0.0,0.0,0.0,0.0,0.0,0.0,0.0,0.0,0.0,0.0,0.0,0.0,0.0,0.0,0.0,0.0,0.0,0.0,0.0,0.0,0.0,0.0,0.0,0.0,0.0,0.0,0.0,0.0,0.0,0.0,0.0,0.0,0.0,0.0,0.0,0.0,0.0,0.0,0.0,0.0,0.0,0.0,0.0,0.0,0.0,0.0,0.0,0.0,0.0,0.0,0.0,0.0,0.0,0.0,0.0,0.0,0.0,0.0,0.0,0.0,0.0,0.0,0.0,0.0,0.0,0.0,0.0,0.0,0.0,0.0,0.0,0.0,0.0,0.0,0.0,0.0,0.0,0.0,0.0,0.0,0.0,0.0,0.0,0.0,-4.5781,-4.6855,-4.7598,-4.7598,-4.8379,-4.8906,-4.8906,-4.8574,-4.8164,-4.7637,0.0,0.0,0.0,0.0,0.0,0.0,0.0,0.0,0.0,0.0,0.0,0.0,0.0,0.0,0.0,0.0,0.0,0.0,0.0,0.0,0.0,0.0,0.0,0.0,0.0,0.0,0.0,0.0,0.0,0.0,0.0,0.0,0.0,0.0,0.0,0.0,0.0,0.0,0.0,0.0,0.0,0.0,0.0,0.0,0.0,0.0,0.0,0.0,0.0,0.0,0.0,0.0,0.0,0.0,0.0,0.0,0.0,0.0,0.0,0.0,0.0,0.0,0.0,0.0,0.0,0.0,0.0,0.0,0.0,0.0,0.0,0.0,0.0,0.0,0.0,0.0,0.0,0.0,0.0,0.0,0.0,0.0,0.0,0.0,0.0,0.0,0.0,0.0,0.0,0.0,0.0,0.0,0.0,0.0,0.0,0.0,0.0,0.0,0.0,0.0,0.0,0.0,-4.5117,-4.6504,-4.748,-4.748,-4.8183,-4.8652,-4.8652,-4.793,-4.748,-4.748,0.0,0.0,0.0,0.0,0.0,0.0,0.0,0.0,0.0,0.0,0.0,0.0,0.0,0.0,0.0,0.0,0.0,0.0,0.0,0.0,0.0,0.0,0.0,0.0,0.0,0.0,0.0,0.0,0.0,0.0,0.0,0.0,0.0,0.0,0.0,0.0,0.0,0.0,0.0,0.0,0.0,0.0,0.0,0.0,0.0,0.0,0.0,0.0,0.0,0.0,0.0,0.0,0.0,0.0,0.0,0.0,0.0,0.0,0.0,0.0,-5.4213,0.0,0.0,0.0,0.0,0.0,0.0,0.0,0.0,0.0,0.0,0.0,0.0,0.0,0.0,0.0,0.0,0.0,0.0,0.0,0.0,0.0,0.0,0.0,0.0,0.0,0.0,0.0,0.0,0.0,0.0,0.0,0.0,0.0,0.0,0.0,0.0,0.0,0.0,0.0,0.0,0.0,-4.5937,-4.6348,-4.6582,-4.6582,-4.6738,-4.6855,-4.6855,-4.668,-4.6582,-4.6582,-4.5586,0.0,0.0,0.0,0.0,0.0,0.0,0.0,0.0,0.0,0.0,0.0,0.0,0.0,0.0,0.0,0.0,0.0,0.0,0.0,0.0,0.0,0.0,0.0,0.0,0.0,0.0,0.0,0.0,0.0,0.0,0.0,0.0,0.0,0.0,0.0,0.0,0.0,0.0,0.0,0.0,0.0,0.0,0.0,0.0,0.0,0.0,0.0,0.0,0.0,0.0,0.0,0.0,0.0,0.0,0.0,0.0,0.0,0.0,0.0,0.0,-5.4607,0.0,0.0,0.0,0.0,0.0,0.0,0.0,0.0,0.0,0.0,0.0,0.0,0.0,0.0,0.0,0.0,0.0,0.0,0.0,0.0,0.0,0.0,0.0,0.0,0.0,0.0,0.0,0.0,0.0,0.0,0.0,0.0,0.0,0.0,0.0,0.0,0.0,0.0,0.0,0.0,-4.498,-4.5781,-4.6308,-4.6308,-4.6308,-4.6308,-4.6308,-4.6308,-4.6308,-4.6308,-4.5488,0.0,0.0,0.0,0.0,0.0,0.0,0.0,0.0,0.0,0.0,0.0,0.0,0.0,0.0,0.0,0.0,0.0,0.0,0.0,0.0,0.0,0.0,0.0,0.0,0.0,0.0,0.0,0.0,0.0,0.0,0.0,0.0,0.0,0.0,0.0,0.0,0.0,0.0,0.0,0.0,0.0,0.0,0.0,0.0,0.0,0.0,0.0,0.0,0.0,0.0,0.0,0.0,0.0,0.0,-5.9666,-6.0025,-5.9296,-5.8569,-5.7849,-5.6973,-5.578,-5.4502,0.0,0.0,0.0,0.0,0.0,0.0,0.0,0.0,0.0,0.0,0.0,0.0,0.0,0.0,0.0,0.0,0.0,0.0,0.0,0.0,0.0,0.0,0.0,0.0,0.0,-4.5594,-4.5594,0.0,0.0,0.0,0.0,0.0,0.0,0.0,0.0,0.0,0.0,0.0,0.0,-4.3906,-4.5312,-4.6308,-4.6308,-4.6308,-4.6308,-4.6308,-4.6308,-4.6308,-4.6308,-4.5488,-4.4687,0.0,0.0,0.0,0.0,0.0,0.0,0.0,0.0,0.0,0.0,0.0,0.0,0.0,0.0,0.0,0.0,0.0,0.0,0.0,0.0,0.0,0.0,0.0,0.0,0.0,0.0,0.0,0.0,0.0,0.0,0.0,0.0,-4.9981,-5.0057,0.0,0.0,0.0,0.0,0.0,0.0,0.0,0.0,0.0,0.0,0.0,0.0,0.0,0.0,-5.6736,-5.8244,-5.907,-5.9271,-6.1182,-6.2124,-6.2184,-6.178,-6.1543,-6.1389,-6.0512,0.0,-5.4502,-5.4504,0.0,0.0,0.0,0.0,0.0,0.0,0.0,0.0,0.0,0.0,0.0,0.0,0.0,0.0,0.0,0.0,0.0,0.0,0.0,0.0,0.0,0.0,-4.5688,-4.562,-4.5594,-4.5594,0.0,-4.5685,-4.5776,-4.5803,0.0,0.0,0.0,0.0,0.0,0.0,0.0,0.0,-4.4726,-4.5683,-4.6308,-4.6308,-4.6308,-4.6308,-4.6308,-4.6308,-4.6308,-4.6308,-4.5488,-4.4941,-4.4824,-4.3262,0.0,0.0,0.0,0.0,0.0,0.0,0.0,0.0,0.0,0.0,0.0,0.0,0.0,0.0,0.0,0.0,0.0,0.0,0.0,0.0,0.0,0.0,0.0,0.0,0.0,0.0,0.0,0.0,0.0,-4.917,-5.0659,-4.9653,-5.1345,-5.1643,0.0,0.0,0.0,0.0,0.0,0.0,0.0,0.0,0.0,-5.5057,-5.5441,-5.6481,-5.8278,-5.939,-6.0075,-6.0395,-6.1808,-6.253,-6.2601,-6.2452,-6.2279,-6.2062,-6.1166,-5.9473,-5.7242,-5.6333,-5.5035,-5.3388,0.0,0.0,0.0,0.0,0.0,-4.8684,-4.9653,0.0,0.0,0.0,0.0,0.0,0.0,0.0,0.0,0.0,0.0,0.0,0.0,0.0,0.0,-4.561,-4.5594,-4.5594,-4.5594,-4.5651,-4.5715,0.0,-4.5495,-4.4877,-4.379,0.0,0.0,0.0,0.0,0.0,-4.4055,-4.5382,-4.6268,-4.6199,-4.6267,-4.6308,-4.6308,-4.6308,-4.6308,-4.6308,-4.5937,-4.5508,-4.5019,-4.3764,-4.2865,0.0,0.0,0.0,0.0,0.0,0.0,0.0,0.0,0.0,0.0,0.0,0.0,0.0,0.0,0.0,0.0,0.0,0.0,0.0,0.0,0.0,0.0,0.0,0.0,0.0,0.0,0.0,0.0,-4.986,-5.1025,-4.9572,-5.1965,-5.2558,0.0,0.0,0.0,0.0,0.0,0.0,-5.4047,-5.4269,-5.5136,-5.6741,-5.7258,-5.8184,-5.9637,-6.0155,-6.06,-6.0998,-6.1744,-6.2161,-6.2243,-6.2493,-6.2347,-6.1882,-6.1373,-6.0646,-5.9704,-5.8075,-5.6767,-5.5507,-5.2579,-5.1315,-5.1034,-5.0147,-4.9856,-5.0089,-5.1329,-5.1228,-5.0472,-5.0054,0.0,-4.8089,-4.6381,0.0,0.0,0.0,0.0,-4.592,-4.579,0.0,-4.5745,-4.5637,-4.5594,-4.5594,-4.5594,-4.5637,-4.5673,0.0,-4.5305,-4.4705,-4.3961,0.0,0.0,0.0,0.0,-4.359,-4.3728,-4.5007,-4.5937,-4.603,-4.6144,-4.62,-4.62,-4.62,-4.62,-4.62,-4.62,-4.5907,-4.5261,-4.4142,-4.3279,-4.2664,0.0,0.0,0.0,0.0,0.0,0.0,0.0,0.0,0.0,0.0,0.0,0.0,0.0,0.0,0.0,0.0,0.0,0.0,0.0,0.0,0.0,0.0,0.0,0.0,0.0,0.0,0.0,0.0,0.0,-5.0071,-5.3156,0.0,0.0,0.0,0.0,-5.3078,-5.3897,-5.477,-5.5638,-5.6352,-5.7512,-5.915,-5.9126,-5.9501,-6.0327,-6.0382,-6.0425,-6.0449,-6.101,-6.1272,-6.1299,-6.2193,-6.2173,-6.1454,-6.187,-6.1543,-6.0589,-5.8934,-5.7275,-5.5622,-5.385,-5.2704,-5.1932,-5.1054,-5.0735,-5.0754,-5.0842,-5.031,-4.9702,-5.0482,-4.968,-4.807,-4.6318,-4.5841,0.0,0.0,-4.5807,-4.5783,-4.5715,-4.5717,-4.5682,-4.5622,-4.5594,-4.5594,-4.5594,-4.57,-4.5754,0.0,-4.5582,-4.5321,-4.4576,0.0,-4.4141,-4.3383,-4.335,-4.3704,-4.4533,-4.4724,-4.5064,-4.5834,-4.5916,-4.5916,-4.5916,-4.5916,-4.5916,-4.5916,-4.5916,-4.5896,-4.5857,-4.4277,-4.3401,-4.3347,-4.1661,0.0,0.0,0.0,0.0,0.0,0.0,0.0,0.0,0.0,0.0,0.0,0.0,0.0,0.0,0.0,0.0,0.0,0.0,0.0,0.0,0.0,0.0,0.0,0.0,0.0,0.0,0.0,0.0,-5.2242,-5.5092,0.0,-5.4525,-5.5062,-5.5739,-5.6253,-5.7065,-5.7895,-5.8704,-5.9016,-5.942,-6.0008,-6.0002,-6.0126,-6.0401,-6.0401,-6.0144,-5.9648,-6.0651,-6.0594,-5.9611,-6.0241,-6.0241,-5.9717,-5.936,-5.9198,-5.9146,-5.855,-5.7945,-5.7244,-5.5513,-5.4349,-5.3619,-5.3291,-5.2829,-5.2425,-5.2983,-5.2233,-5.0827,-4.9489,-4.7934,-4.6487,-4.592,-4.5752,-4.5768,-4.574,-4.5737,-4.5739,-4.5698,-4.5676,-4.5631,-4.5614,-4.5594,-4.5594,-4.5594,-4.5635,-4.5668,-4.5612,-4.5673,-4.5295,-4.3892,-4.3636,-4.3352,-4.261,-4.2934,-4.3371,-4.3646,-4.4713,-4.5346,-4.5027,-4.5541,-4.5899,-4.5899,-4.5899,-4.5899,-4.5899,-4.5417,-4.5129,-4.5129,-4.3447,-4.2528,-4.2556,-4.1286,-4.0524,0.0,0.0,0.0,0.0,0.0,0.0,0.0,0.0,0.0,0.0,0.0,0.0,0.0,0.0,0.0,0.0,0.0,0.0,0.0,0.0,0.0,0.0,0.0,0.0,0.0,0.0,-5.3189,-5.3368,-5.6323,-5.7808,-5.6461,-5.7368,-5.8235,-5.8767,-5.93,-5.985,-6.0382,-6.0401,-6.0401,-6.0401,-6.0401,-6.0401,-6.0401,-6.0144,-5.9593,-5.8804,-5.9376,-5.8943,-5.7668,-5.8128,-5.8206,-5.794,-5.7696,-5.7792,-5.8071,-5.8235,-5.8127,-5.7742,-5.6588,-5.5799,-5.5261,-5.4703,-5.3953,-5.3164,-5.2876,-5.2029,-5.0702,-4.8432,-4.6932,-4.5998,-4.5744,-4.5676,-4.5665,-4.5671,-4.5662,-4.5676,-4.5676,-4.5631,-4.5594,-4.5594,-4.5594,-4.5594,-4.5594,-4.5364,-4.5171,-4.5171,-4.546,-4.5281,-4.3817,-4.3539,-4.325,-4.249,-4.2575,-4.2823,-4.3063,-4.3924,-4.4509,-4.4445,-4.4983,-4.5475,-4.5761,-4.5799,-4.5664,-4.5378,-4.4855,-4.4428,-4.4176,-4.2735,-4.1955,-4.1992,-4.0756,-4.017,-4.0324,0.0,0.0,0.0,0.0,0.0,0.0,0.0,0.0,0.0,0.0,0.0,0.0,0.0,0.0,0.0,0.0,0.0,0.0,0.0,0.0,0.0,0.0,0.0,-4.8048,-5.139,-5.3615,-5.339,-5.6825,-5.8948,-5.8218,-5.9551,-6.0456,-6.0438,-6.0438,-6.0438,-6.0401,-6.0401,-6.0401,-6.0364,-6.0364,-6.0346,-6.0291,-5.9496,-5.8731,-5.7923,-5.7157,-5.6367,-5.5636,-5.6056,-5.6256,-5.6313,-5.7118,-5.751,-5.7551,-5.7987,-5.7673,-5.6926,-5.6945,-5.6945,-5.6714,-5.5068,-5.3895,-5.276,-5.0221,-4.9336,-4.9048,-4.7432,-4.6885,-4.6701,-4.5864,-4.5594,-4.5594,-4.5594,-4.5594,-4.5594,-4.5594,-4.5594,-4.5594,-4.5594,-4.5594,-4.5594,-4.5575,-4.4893,-4.4297,-4.4259,-4.4932,-4.5248,-4.4374,-4.422,-4.3951,-4.3181,-4.2335,0.0,-4.2951,-4.2354,-4.247,-4.4085,-4.4297,-4.4643,-4.5537,-4.5575,-4.521,-4.4355,-4.4239,-4.3874,-4.3088,-4.2212,-4.1742,-4.1717,-4.015,-3.9342,-3.9342,0.0,0.0,0.0,0.0,0.0,0.0,0.0,0.0,0.0,0.0,0.0,0.0,0.0,0.0,0.0,0.0,0.0,0.0,0.0,0.0,0.0,0.0,-4.8566,-4.9582,-5.2026,-5.4453,-5.6427,-5.8673,-6.0422,-6.1326,-6.1854,-6.1906,-6.13,-6.1263,-6.1025,-6.0438,-6.0401,-6.0144,-5.9533,-5.9515,-5.8964,-5.7813,-5.7574,-5.706,-5.6275,-5.6393,-5.615,-5.5618,-5.5482,-5.5398,-5.5342,-5.4982,-5.5205,-5.575,-5.525,-5.5097,-5.5241,-5.5818,-5.5703,-5.5049,-5.3953,-5.2645,-5.1106,-4.9144,-4.8086,-4.7509,-4.7038,-4.6471,-4.5913,-4.5671,-4.5594,-4.5594,-4.5594,-4.5594,-4.5594,-4.5594,-4.5594,-4.5594,-4.5594,-4.5594,-4.5441,-4.4778,-4.447,-4.4124,-4.3547,-4.3624,-4.3508,-4.2643,-4.2489,-4.2412,-4.22,0.0,0.0,-4.2143,-4.2508,-4.2912,-4.3374,-4.3951,-4.4643,-4.5537,-4.5017,-4.4566,0.0,-4.3162,-4.2385,-4.2173,-4.1316,-4.0577,-3.9996,-4.0108,-3.9581,0.0,0.0,0.0,0.0,0.0,0.0,0.0,0.0,0.0,0.0,0.0,0.0,0.0,0.0,0.0,0.0,0.0,0.0,0.0,0.0,0.0,0.0,-4.7996,-4.9845,-5.099,-5.2838,-5.4803,-5.6846,-5.8474,-5.9918,-6.1178,-6.1594,-6.1612,-6.1135,-6.0786,-6.0401,-5.9924,-5.9593,-5.9189,-5.8712,-5.8382,-5.7758,-5.6822,-5.6473,-5.5886,-5.5119,-5.5367,-5.518,-5.4604,-5.4388,-5.4288,0.0,-5.3944,-5.3912,-5.4038,-5.3867,-5.3753,0.0,0.0,0.0,0.0,0.0,-5.1068,-4.9413,-4.8067,-4.7298,-4.6827,-4.6471,-4.6009,-4.5594,-4.5594,-4.5594,-4.5594,-4.5594,-4.5594,-4.5594,-4.5594,-4.5594,-4.5518,-4.5152,-4.5056,-4.4816,-4.397,-4.3508,-4.3104,-4.2643,0.0,0.0,-4.1335,-4.1566,-4.1681,-4.1316,-4.1258,-4.1258,0.0,-4.17,-4.2143,-4.2527,-4.297,-4.3605,-4.447,-4.4085,0.0,0.0,0.0,-4.1643,-4.1277,-4.0766,0.0,0.0,0.0,-4.0023,0.0,0.0,0.0,0.0,-4.0062,-4.0575,0.0,0.0,0.0,0.0,0.0,0.0,0.0,0.0,0.0,0.0,0.0,0.0,0.0,0.0,0.0,0.0,-4.9272,-5.071,-5.2097,-5.3399,-5.4617,-5.5684,-5.7079,-5.833,-5.9213,-5.9885,-6.0274,-6.0272,-5.9588,-5.9148,-5.9056,0.0,0.0,0.0,0.0,-5.662,-5.6547,-5.5812,-5.506,-5.4252,-5.4252,-5.3849,-5.3078,-5.3078,-5.3023,-5.2952,-5.3307,-5.307,-5.2506,-5.3122,-5.2964,-5.2367,-5.2752,-5.2856,-5.2568,-5.0894,-4.9279,0.0,0.0,0.0,0.0,-4.5845,-4.5594,-4.5594,-4.5594,-4.5594,-4.5594,-4.5594,-4.5594,-4.5575,-4.5479,-4.546,-4.5248,-4.4374,-4.4162,-4.3932,-4.3124,-4.2354,-4.1769,-4.1673,-4.1027,-4.0496,-4.0496,-4.1143,-4.1393,-4.0631,-4.0496,0.0,-4.0496,-4.0496,-4.0835,-4.1712,0.0,0.0,-4.3028,-4.3008,-4.2624,-4.1846,-4.1712,-4.1316,-4.0535,-4.0496,-4.0458,-4.0373,-4.0457,-4.0457,-4.0354,-4.0458,-4.0496,-4.0496,-4.0508,-4.09,0.0,0.0,0.0,0.0,0.0,0.0,0.0,0.0,0.0,0.0,0.0,0.0,0.0,0.0,0.0,-4.8612,-5.0033,-5.1302,-5.2181,-5.2046,-5.2846,-5.5493,-5.6582,-5.7683,-5.9141,-5.9444,-5.9492,-5.9436,-5.9276,-5.8933,-5.8272,-5.7483,0.0,-5.7042,-5.6253,-5.5519,-5.4876,-5.4711,-5.4234,-5.3424,0.0,0.0,-5.2234,-5.2234,-5.1885,-5.1261,-5.1343,-5.149,-5.1577,-5.1041,-5.0711,-5.0624,-5.1024,-5.0741,-4.9933,-4.8259,-4.7432,-4.7009,-4.6144,-4.5845,-4.5825,-4.5652,-4.5594,-4.5594,-4.5594,-4.5594,0.0,-4.5594,-4.5594,-4.5441,-4.472,-4.4547,-4.4355,-4.3528,-4.3335,-4.3104,-4.2239,-4.1923,-4.1585,-4.0893,-4.0631,-4.0496,-4.0496,-4.065,-4.0689,-4.0535,-4.0496,-4.0496,-4.0496,-4.0496,-4.0835,-4.1712,-4.1788,-4.2162,-4.3028,-4.247,-4.1981,-4.1808,-4.1143,-4.0689,-4.0516,-4.0496,-4.02,-3.9542,-4.0169,-4.0189,-3.9523,-4.0181,-4.0496,-4.0496,-4.0504,-4.0581,0.0,0.0,0.0,0.0,0.0,0.0,0.0,0.0,0.0,0.0,0.0,-4.268,0.0,0.0,-4.7122,-4.8623,-4.9848,-5.0913,-5.1657,-5.1454,-5.1904,-5.3836,-5.4733,-5.5654,-5.6828,-5.7657,-5.8079,-5.8062,-5.803,-5.7831,-5.7428,-5.6638,-5.6198,-5.6198,-5.5409,-5.4803,-5.4399,-5.4014,-5.361,-5.3185,-5.2803,-5.238,-5.1977,-5.1573,-5.1187,-5.0802,-5.0802,-5.0685,-5.0417,-4.9334,-4.902,-4.9137,-4.8493,-4.8443,-4.8606,-4.7355,-4.6624,-4.6182,-4.5748,-4.5594,-4.5594,-4.5594,-4.5594,-4.5594,-4.5594,-4.5594,-4.5518,-4.5075,-4.496,-4.4759,-4.3912,-4.3701,-4.3489,-4.2643,-4.245,-4.222,-4.1335,-4.1143,-4.0893,-4.0054,-3.99,-3.9765,-3.9323,-3.9149,-3.9232,-3.9808,-3.9534,-3.9419,-3.9842,-3.99,-4.0227,-4.1066,-4.1143,-4.1335,-4.1758,-4.1393,-4.1143,-4.1143,-4.0746,-4.0496,-4.0496,-4.0496,-4.0315,-3.9904,-3.9892,-3.97,-3.93,-3.9277,-3.9238,-3.9238,-3.9258,-3.9938,0.0,0.0,0.0,0.0,0.0,0.0,0.0,0.0,-4.034,-4.0828,-4.1683,-4.2685,-4.382,-4.4963,-4.6405,-4.8362,-4.9309,-5.0096,-5.0881,-5.0879,-5.1065,-5.1775,-5.2555,-5.3397,-5.4295,-5.5501,-5.6375,-5.6668,-5.6606,-5.6603,-5.6603,-5.5801,-5.5354,-5.5354,-5.4583,-5.4087,-5.394,-5.3298,-5.2894,-5.2747,-5.2087,-5.1665,-5.1499,-5.0857,-5.0472,-5.0325,-5.0325,-4.9866,-4.9024,-4.801,-4.7738,-4.781,-4.629,-4.6498,-4.7558,-4.6752,-4.6004,-4.541,-4.541,-4.541,-4.541,-4.541,-4.5448,-4.5465,-4.5312,-4.53,-4.5171,-4.4316,-4.4066,-4.3874,-4.3066,-4.2854,-4.2615,-4.1681,-4.1347,-4.1039,-4.0268,-3.998,-3.9673,-3.9021,-3.8887,-3.8668,-3.7977,-3.7511,-3.7658,-3.8796,-3.8378,-3.8151,-3.881,-3.9123,-3.9538,-4.0142,-4.0377,-4.0496,-4.0496,-4.0362,-4.0246,-4.02,-4.0111,-4.001,-3.986,-3.972,-3.9712,-3.9865,-3.9213,-3.8922,-3.8981,-3.8262,-3.7951,-3.8007,-3.8,-3.9111,-3.3087,-3.3837,-3.4656,-3.6153,-3.7108,-3.8224,0.0,0.0,-4.1666,-4.1742,-4.3339,-4.4611,-4.4158,-4.5742,-4.7435,-4.8541,-4.8794,-4.9177,-5.009,-4.9661,-4.9526,-5.0253,-5.1009,-5.2038,-5.3471,-5.3783,-5.4414,-5.5727,-5.5835,-5.5822,-5.5822,-5.5008,-5.4528,-5.4528,-5.3757,-5.2986,-5.227,-5.2179,-5.1775,-5.1077,-5.0986,-5.0563,-4.9867,-4.9776,-4.9297,-4.8581,-4.8581,-4.8122,-4.7388,-4.7224,-4.6977,-4.6607,-4.5624,-4.5589,-4.5956,-4.5142,-4.4802,-4.4707,-4.4707,-4.4707,-4.4707,-4.4707,-4.4919,-4.5006,-4.4232,-4.4221,-4.4278,-4.3451,-4.3239,-4.3047,-4.2181,-4.1942,-4.1671,-4.0558,-3.9747,-3.9128,-3.8727,-3.806,-3.7532,-3.7456,-3.7437,-3.7399,-3.7323,-3.662,-3.6491,-3.7619,-3.7703,-3.7593,-3.7449,-3.8529,-3.9242,-3.9095,-3.9931,-4.0496,-4.0496,-3.9842,-3.9327,-3.9085,-3.8733,-3.8258,-3.7605,-3.6946,-3.6904,-3.7551,-3.7475,-3.7547,-3.778,-3.7684,-3.7767,-3.8007,-3.8007,-3.8142,-3.1863,-3.3026,-3.4179,0.0,-3.5746,-3.7149,-3.876,-3.9809,-4.0663,-4.1468,-4.2319,-4.2992,-4.3099,-4.4297,-4.5514,0.0,-4.6885,-4.7579,-4.8496,-4.8376,-4.8519,-4.9345,-4.9729,-5.0498,-5.2033,-5.2597,-5.3105,-5.3708,-5.3752,-5.3877,-5.4296,-5.351,-5.3043,-5.3004,-5.2674,-5.2123,-5.1316,-5.1298,-5.1132,-5.0802,-5.0325,-4.9941,-4.9574,-4.9058,-4.8636,-4.8269,-4.7791,-4.7406,-4.7021,-4.6085,-4.5605,-4.5372,-4.4541,-4.4304,-4.4485,-4.4578,-4.4593,-4.4593,-4.4593,-4.4593,-4.4593,-4.4593,-4.4682,-4.4642,-4.377,-4.3597,-4.3441,-4.2176,-4.1814,-4.1623,-4.0746,-4.0166,-3.9708,-3.9224,-3.8493,-3.7857,-3.7732,-3.7427,-3.706,-3.6529,-3.6434,-3.6283,-3.5838,-3.5276,-3.5068,-3.5555,-3.5786,-3.6035,-3.6398,-3.6948,-3.7462,-3.7869,-3.8309,-3.8585,-3.8585,-3.827,-3.8022,-3.7924,-3.7757,-3.7514,-3.7206,-3.6896,-3.6887,-3.7192,-3.6709,-3.6486,-3.6615,-3.6131,-3.597,-3.609,-3.609,-3.616,-3.0913,-3.2092,0.0,-3.3184,-3.4505,-3.6117,-3.7177,-3.8495,-3.978,-4.0766,-4.1164,-4.1572,-4.2036,-4.2826,-4.367,-4.4403,-4.5269,-4.6154,-4.7088,-4.744,-4.7836,-4.8545,-4.8829,-4.9424,-5.0507,-5.1306,-5.186,-5.2067,-5.2025,-5.2201,-5.2679,-5.2147,-5.1813,-5.174,-5.1566,-5.1075,-5.0253,-5.0201,-5.0065,-4.9846,-4.944,-4.9243,-4.9225,-4.8361,-4.7957,-4.7921,-4.7113,-4.6636,-4.6342,-4.5168,-4.4563,-4.4305,-4.3718,-4.3515,-4.3546,-4.4095,-4.4313,-4.4313,-4.4313,-4.4313,-4.4313,-4.4313,-4.4214,-4.3939,-4.3092,-4.2737,-4.2315,-4.0672,-4.02,-4.0011,-3.915,-3.8508,-3.8044,-3.7954,-3.7314,-3.6712,-3.661,-3.6411,-3.6073,-3.5432,-3.5319,-3.5139,-3.4555,-3.426,-3.4086,-3.4086,-3.4295,-3.4659,-3.5252,-3.5603,-3.6142,-3.7106,-3.7192,-3.7192,-3.7192,-3.6978,-3.6811,-3.6737,-3.652,-3.6336,-3.6266,-3.626,-3.6261,-3.6261,-3.5649,-3.5353,-3.5429,-3.4854,-3.4622,-3.4694,-3.4694,-3.4793,-3.0406,-3.0985,-3.175,-3.2386,-3.399,-3.5595,-3.6311,-3.8164,-3.9791,-3.9819,-4.0674,-4.1422,-4.1452,-4.1961,-4.275,-4.3679,-4.44,-4.5153,-4.6119,-4.702,-4.7622,-4.7655,-4.8433,-4.9018,0.0,-4.9743,-5.0454,-5.1182,-5.1214,-5.124,-5.1269,-5.1183,-5.1138,-5.1128,-5.0444,-4.9682,-4.8859,-4.8744,-4.8276,-4.75,-4.8072,-4.8343,-4.8324,-4.7498,-4.7131,-4.7094,-4.6287,-4.5498,-4.4764,-4.4709,-4.425,-4.3533,-4.3515,-4.3515,-4.3496,-4.3513,-4.3531,-4.3531,-4.3531,-4.3531,-4.3531,-4.3531,-4.3238,-4.27,-4.1893,-4.1327,-4.0615,-3.8943,-3.8471,-3.8293,-3.7484,-3.7249,-3.7155,-3.6838,-3.6142,-3.546,-3.5146,-3.444,-3.3902,-3.3884,-3.3852,-3.3865,-3.3815,-3.3815,-3.3802,-3.3802,-3.3815,-3.3847,-3.3865,-3.4835,-3.5937,-3.7085,-3.7192,-3.7192,-3.7192,-3.6434,-3.5836,-3.5579,-3.4767,-3.4176,-3.3915,-3.3902,-3.3902,-3.3902,-3.3884,-3.3985,-3.4249,-3.423,-3.4379,-3.4694,-3.4694,-3.4694,-2.9172,-2.9832,-3.0687,-3.1138,-3.2265,-3.3555,-3.4564,-3.562,-3.6632,-3.7719,-3.7884,-3.8128,-3.9196,-4.0307,-4.1303,-4.2084,-4.3122,-4.4143,-4.5153,-4.5935,-4.6681,-4.7505,-4.8266,0.0,0.0,0.0,0.0,-4.9729,-4.9739,-4.9928,-5.0374,-5.038,-5.0126,-4.9581,-4.9323,-4.8562,-4.7227,-4.7174,-4.7,-4.6733,-4.6937,-4.6779,-4.6302,-4.6442,-4.6245,-4.5739,-4.5297,-4.4947,-4.4672,-4.4121,-4.3736,-4.3515,-4.3515,-4.3515,-4.3515,-4.3515,-4.3515,-4.3515,-4.3515,-4.3515,-4.3423,-4.2873,-4.2588,-4.2221,-4.0892,-4.0355,-4.001,-3.892,-3.8197,-3.7728,-3.7482,-3.6573,-3.5718,-3.5605,-3.495,-3.4347,-3.4238,-3.399,-3.3807,-3.3807,-3.3807,-3.3807,-3.3807,-3.3807,-3.3807,-3.3807,-3.3807,-3.3807,-3.3807,-3.4129,-3.4517,-3.4903,-3.4934,-3.4934,-3.4934,-3.4686,-3.4469,-3.4383,-3.3605,-3.3345,-3.3784,-3.3293,-3.2999,-3.2999,-3.3532,-3.3322,-3.233,-3.3419,-3.3432,-3.2528,-3.3072,-3.3122,-2.8319,-2.8846,-2.9545,-3.014,-3.0982,-3.1837,-3.2605,-3.3445,-3.4327,-3.5372,-3.5787,-3.633,-3.7352,-3.8701,-3.9828,-4.0247,-4.1272,-4.2394,-4.3441,-4.4306,-4.5259,-4.647,-4.7809,-4.8597,0.0,0.0,0.0,-4.9018,-4.9001,-4.9182,-4.9622,-4.9394,-4.9022,-4.8494,-4.7963,-4.7213,-4.615,-4.6105,-4.6051,-4.6006,-4.5722,-4.5356,-4.4906,-4.5011,-4.4788,-4.433,-4.3856,-4.3665,-4.3629,-4.3121,-4.2885,-4.2885,-4.2885,-4.274,-4.2504,-4.2686,-4.2593,-4.2427,-4.2895,-4.3057,-4.2928,-4.2139,-4.168,-4.124,-4.0212,-3.9698,-3.9294,-3.8487,-3.7679,-3.6997,-3.6688,-3.5587,-3.4564,-3.4564,-3.4192,-3.3807,-3.3807,-3.3807,-3.3807,-3.3807,-3.3807,-3.3748,-3.3606,-3.3447,-3.3252,-3.2976,-3.294,-3.3148,-3.3725,-3.3807,-3.3807,-3.3807,-3.3807,-3.3807,-3.3807,-3.3807,-3.3807,-3.3807,-3.3319,-3.3264,-3.377,-3.3036,-3.2601,-3.2601,-3.3109,-3.2724,-3.1397,-3.2724,-3.2687,-3.1415,-3.1935,-3.1986,-2.7723,-2.8004,-2.8347,-2.9443,-3.0142,-3.057,-3.057,-3.1757,-3.2856,-3.2895,-3.4445,-3.5813,0.0,0.0,-3.8372,-3.8437,-3.9238,-4.022,-4.1332,-4.2383,-4.35,0.0,0.0,0.0,0.0,0.0,0.0,-4.899,0.0,-4.9001,-4.9001,-4.8308,-4.7872,-4.7821,-4.6464,-4.5686,-4.5652,-4.5478,-4.5304,-4.5145,-4.4443,-4.4071,-4.4018,-4.328,-4.2947,-4.2859,-4.2111,-4.181,-4.181,-4.181,-4.1775,-4.174,-4.174,-4.1283,-4.0694,-4.1149,-4.087,-4.0456,-4.1679,-4.2144,-4.2069,-4.1229,-4.0459,-3.9816,-3.9742,-3.9195,-3.8462,-3.7653,-3.6846,-3.6025,-3.5205,-3.4362,-3.3734,-3.3734,-3.3734,-3.3734,-3.3734,-3.3734,-3.3734,-3.3734,-3.3698,-3.357,-3.3211,-3.2721,-3.2163,-3.1503,-3.1377,-3.1905,-3.3415,-3.362,-3.362,-3.362,-3.362,-3.362,-3.362,-3.362,-3.362,-3.362,-3.357,-3.3588,-3.3625,-3.2855,-3.2433,-3.2433,-3.247,-3.2067,-3.1218,-3.2067,-3.2049,-3.1218,-3.1255,-3.1255,-2.5786,-2.6982,-2.8176,-2.8478,-2.9256,-2.9993,-2.9993,-3.0327,-3.0868,-3.1706,-3.23,-3.309,0.0,0.0,0.0,-3.8958,-4.0583,0.0,-4.2716,-4.3461,0.0,-4.4715,0.0,-4.647,-4.6553,-4.6927,0.0,0.0,-4.8608,-4.9001,-4.9001,-4.8308,-4.7665,-4.7107,-4.6177,-4.5432,-4.4902,-4.4255,-4.3644,-4.3066,-4.2852,-4.2517,-4.1968,-4.2209,-4.1986,-4.1457,-4.1687,-4.181,-4.181,-4.181,-4.1477,-4.0967,-4.0967,-4.0527,-3.9875,-3.9994,-3.9929,-3.9734,-3.9492,-4.0022,-4.0618,-3.9462,-3.8956,-3.8562,-3.7363,-3.7274,-3.7399,-3.6612,-3.5806,-3.5128,-3.4914,-3.3859,-3.284,-3.284,-3.284,-3.284,-3.284,-3.284,-3.284,-3.284,-3.2389,-3.2143,-3.259,-3.1673,-3.0987,-3.1359,-3.0916,-3.0724,-3.1148,-3.1195,-3.1195,-3.1195,-3.1195,-3.1189,-3.1186,-3.1182,-3.1193,-3.1195,-3.0638,-3.0576,-3.1168,-3.042,-2.9998,-2.9998,-3.0589,-3.0198,-2.8792,-3.0198,-3.0163,-2.881,-2.941,-2.9375,-2.4872,-2.5775,-2.6767,-2.7279,-2.8239,-2.9067,-2.9067,-2.9283,-2.9732,-3.037,-3.0874,-3.155,-3.2619,-3.4773,0.0,0.0,0.0,0.0,-4.2297,-4.283,-4.335,0.0,-4.5118,0.0,-4.5588,-4.6263,-4.6773,0.0,-4.7868,-4.8442,-4.8514,-4.7834,-4.709,-4.6346,-4.5602,-4.484,-4.4079,-4.298,-4.2236,-4.1813,-4.1474,-4.1128,-4.0739,-4.1083,-4.0974,-4.0577,0.0,-4.1053,-4.1036,-4.0688,-4.0329,-3.9934,-3.9603,-3.9034,-3.8397,-3.8611,-3.8465,-3.8131,-3.7672,-3.7994,-3.851,-3.8045,-3.7636,-3.7246,-3.6678,-3.636,-3.6166,-3.6041,-3.519,-3.4305,-3.4305,-3.3402,-3.2501,-3.2501,-3.2501,-3.2501,-3.2501,-3.2501,-3.2501,-3.2501,-3.1749,-3.1229,-3.1634,-3.0607,-2.9741,-2.981,-2.9462,-2.9096,-2.8763,-2.9636,-3.0308,-3.0308,-3.0308,-3.03,-3.0308,-3.0294,-3.0292,-3.0287,-2.9872,-2.9821,-3.0289,-2.952,-2.9089,-2.9089,-2.9547,-2.916,-2.7897,-2.916,-2.9127,-2.7897,-2.8369,-2.8333,-2.4382,-2.466,-2.5041,-2.6016,-2.7075,-2.7912,-2.7961,-2.8474,-2.8988,-2.9111,-2.9918,-3.0686,-3.0909,-3.3108,-3.5255,-3.6395,0.0,-3.9466,-4.1512,-4.1798,-4.2226,-4.3314,-4.4693,-4.5295,-4.4648,-4.585,-4.643,-4.5901,-4.6554,-4.7144,-4.7536,-4.6864,-4.6157,-4.5432,-4.457,-4.3754,-4.2979,-4.1794,-4.1101,-4.0905,-4.035,-4.0096,-4.0096,-4.0096,-4.0096,-4.0096,0.0,0.0,-4.0045,-3.9419,-3.9022,-3.8785,-3.8159,-3.7381,-3.6689,-3.7097,-3.6792,-3.6153,-3.6153,-3.6084,-3.6098,-3.6669,-3.6384,-3.5891,-3.6402,-3.5681,-3.4817,-3.5363,-3.4552,-3.3512,-3.3512,-3.2913,-3.2333,-3.2333,-3.2333,-3.2333,-3.2333,-3.2263,-3.2192,-3.2192,-3.1184,-3.0352,-3.0473,-2.9485,-2.8484,-2.7891,-2.7722,-2.7418,-2.6776,-2.8527,-2.9821,-2.9821,-2.9821,-2.9814,-2.9813,-2.9825,-2.9808,-2.9808,-2.9808,-2.9818,-2.9821,-2.9153,-2.8767,-2.8767,-2.8767,-2.8435,-2.7754,-2.8435,-2.8417,-2.7754,-2.7754,-2.7754,-2.3343,-2.4092,-2.483,-2.5041,-2.5922,-2.6891,-2.7353,-2.7538,0.0,0.0,-2.8939,-2.9487,-3.0899,-3.2012,-3.389,-3.7388,-3.8654,-4.0262,-4.3369,-4.3329,-4.3269,0.0,-4.3908,-4.3711,0.0,0.0,0.0,0.0,0.0,0.0,-4.5594,-4.5124,-4.4493,-4.3832,-4.2495,-4.142,-4.0674,-4.1016,-4.0563,-3.9311,-3.9849,-4.0096,-4.0096,-4.0096,-4.0096,-4.0096,0.0,0.0,-4.0096,-3.996,-3.9174,-3.8091,-3.7956,-3.7043,-3.5825,-3.5898,-3.545,-3.4827,-3.4827,-3.4436,-3.4049,-3.4733,-3.4878,-3.4571,-3.3481,-3.3376,-3.3564,-3.3089,-3.2744,-3.2539,-3.2539,-3.1993,-3.1428,-3.1428,-3.1428,-3.1428,-3.1428,-3.095,-3.0523,-3.0523,-2.9326,-2.8507,-2.917,-2.8064,-2.7249,-2.7722,-2.7266,-2.6843,-2.6708,-2.7079,-2.7315,-2.7315,-2.7315,-2.7331,-2.7313,-2.7332,-2.7316,-2.7316,-2.7316,-2.7332,-2.7315,-2.7195,-2.7127,-2.7127,-2.7127,-2.7042,-2.6906,-2.7042,-2.7042,-2.6906,-2.6906,-2.6906,-2.3091,-2.3507,-2.392,-2.392,-2.4755,-2.576,-2.6303,0.0,0.0,-2.8342,-2.8459,-2.8818,-3.0204,-3.1442,0.0,-3.5695,-3.6907,-3.863,-4.1764,-4.1833,0.0,-4.3593,-4.3484,0.0,0.0,0.0,0.0,0.0,0.0,0.0,-4.3503,-4.2666,-4.1945,-4.1655,-4.0585,-3.9845,-3.9475,-3.9455,-3.9067,-3.833,-3.8707,-3.8914,-3.8914,-3.8914,-3.8914,-3.8914,-3.8914,0.0,-3.8358,-3.7969,-3.7195,-3.6206,-3.5811,-3.5405,-3.5075,-3.5075,-3.5081,-3.503,-3.4624,-3.4269,-3.3854,-3.312,-3.3093,-3.3292,-3.2966,-3.2577,-3.2256,-3.2293,-3.2022,-3.1735,-3.1735,-3.1481,-3.119,-3.119,-3.119,-3.119,-3.119,-3.092,-3.0565,-3.0176,-2.9194,-2.8345,-2.8057,-2.7084,-2.6361,-2.644,-2.614,-2.591,-2.591,-2.591,-2.6123,-2.6641,-2.6691,-2.6691,-2.6691,-2.6691,-2.6691,-2.6691,-2.6691,-2.6691,-2.6691,-2.6691,-2.6691,-2.6691,-2.6691,-2.6691,-2.6691,-2.6691,-2.6691,-2.6691,-2.6691,-2.6691,-2.3091,-2.3091,-2.3091,-2.3091,-2.3757,-2.4566,-2.5054,-2.576,0.0,-2.7752,-2.7873,-2.8212,-2.9535,-3.0735,-3.2073,0.0,-3.4924,-3.6606,-3.9697,-4.0083,-4.0835,0.0,-4.3245,0.0,0.0,0.0,0.0,0.0,0.0,0.0,-4.1294,-4.0023,-3.9402,-3.975,-3.8868,-3.8398,-3.8398,-3.799,-3.769,-3.7544,-3.7719,-3.7793,-3.7793,-3.7793,-3.7726,-3.7582,-3.7582,0.0,0.0,-3.5973,-3.5321,-3.4643,-3.4056,-3.4041,-3.4382,-3.4382,-3.453,-3.4632,-3.4069,-3.365,-3.3133,-3.1495,-3.1485,-3.2156,-3.245,-3.1721,-3.0935,-3.1524,-3.1273,-3.0818,-3.0818,-3.0818,-3.0818,-3.0818,-3.0818,-3.0818,-3.0818,-3.0684,-3.0349,-2.9646,-2.8894,-2.8029,-2.6893,-2.6211,-2.5689,-2.5259,-2.5202,-2.5202,-2.5202,-2.5202,-2.5521,-2.6382,-2.6419,-2.642,-2.6487,-2.6418,-2.6381,-2.6381,-2.6383,-2.6385,-2.6385,-2.6385,-2.6385,-2.6385,-2.6385,-2.6385,-2.6385,-2.6385,-2.6385,-2.6385,-2.6385,-2.6385,-2.3091,-2.3091,-2.3091,-2.3091,-2.3178,-2.3332,-2.3706,0.0,-2.5271,-2.6372,-2.6704,-2.7436,-2.9434,-2.9525,-3.0352,-3.3563,-3.42,-3.5512,-3.9046,-3.9998,-4.0851,-4.2487,0.0,0.0,0.0,0.0,0.0,0.0,0.0,0.0,0.0,-3.7613,-3.7491,-3.8955,-3.76,-3.6815,-3.6815,-3.7458,-3.7427,-3.6722,-3.7456,-3.7793,-3.7793,-3.7793,-3.7482,-3.6898,0.0,0.0,0.0,-3.5819,-3.5358,-3.4707,-3.4643,-3.4236,-3.3684,-3.3684,-3.2915,-3.1878,-3.1814,-3.0937,-2.9836,-2.9663,-3.0451,-3.127,-3.0134,-2.9659,-2.9579,-2.9643,-2.9611,-2.9563,-2.9563,-2.9563,-2.9563,-2.9563,-2.9563,-2.9563,-2.9563,-2.9026,-2.8367,-2.7702,-2.6953,-2.6242,-2.5503,-2.5326,-2.5259,-2.5221,-2.5202,-2.5202,-2.5202,-2.5202,-2.5359,-2.5743,-2.5531,-2.546,-2.5764,-2.5506,-2.5342,-2.5342,-2.5349,-2.5335,-2.5335,-2.5335,-2.5335,-2.5335,-2.5335,-2.5335,-2.5335,-2.5335,-2.5335,-2.5335,-2.5335,-2.5335,-2.3091,-2.3091,-2.3091,-2.3091,-2.3232,-2.3454,-2.3907,0.0,-2.5028,-2.614,-2.6673,-2.7408,-2.8923,-2.9362,-3.0066,-3.1785,-3.2072,-3.3055,-3.5861,-3.6323,-3.7332,0.0,0.0,0.0,0.0,0.0,0.0,0.0,0.0,0.0,0.0,-3.621,-3.6189,-3.6815,-3.627,-3.5943,-3.5943,-3.6258,-3.6243,-3.5943,-3.6243,-3.6399,-3.6415,-3.5999,-3.5675,-3.5383,0.0,0.0,0.0,-3.3809,-3.3396,-3.2752,-3.2752,-3.261,-3.24,-3.24,-3.2051,-3.1494,-3.1037,-3.0525,-2.9927,-2.9115,-2.9209,-2.9621,-2.9441,-2.9406,-2.9406,-2.9406,-2.9406,-2.9406,-2.9406,-2.9406,-2.9406,-2.9406,-2.9092,-2.8922,-2.931,-2.8852,-2.8153,-2.7443,-2.705,-2.6404,-2.4961,-2.4732,-2.4612,-2.4302,-2.4225,-2.4225,-2.4225,-2.4225,-2.4277,-2.4431,-2.4713,-2.4954,-2.5088,-2.4974,-2.4989,-2.519,-2.5192,-2.5202,-2.5202,-2.5202,-2.5202,-2.5202,-2.5202,-2.5202,-2.5202,-2.5202,-2.5202,-2.5202,-2.5202,-2.5202,-2.3091,-2.3091,-2.3091,-2.3091,-2.3319,-2.3591,0.0,0.0,-2.4946,-2.5795,-2.6302,-2.7074,-2.8518,-2.9035,-2.954,-3.0519,-3.0698,-3.1378,-3.3307,-3.3738,-3.4833,0.0,0.0,0.0,0.0,0.0,0.0,0.0,0.0,0.0,0.0,-3.4624,-3.492,-3.5472,-3.5504,-3.5504,-3.5504,-3.5504,-3.5504,-3.5504,-3.5504,-3.54,-3.519,-3.4728,-3.4294,0.0,0.0,0.0,0.0,-3.2183,-3.1809,-3.1197,-3.1197,-3.1114,-3.101,-3.101,-3.0887,-3.0635,-3.0123,-2.9808,-2.9485,-2.8546,-2.8222,-2.8319,-2.8756,-2.8857,-2.8857,-2.8857,-2.8857,-2.8786,-2.8378,-2.8566,-2.8786,-2.8362,-2.8054,-2.7935,-2.8227,-2.792,-2.7353,-2.6633,-2.6508,-2.6004,-2.4425,-2.4158,-2.4032,-2.3659,-2.3443,-2.3334,-2.3334,-2.329,-2.3253,-2.3253,-2.3725,-2.4107,-2.4358,-2.4378,-2.448,-2.4716,-2.4732,-2.4732,-2.4732,-2.4732,-2.4732,-2.4732,-2.4732,-2.4732,-2.4732,-2.4732,-2.4732,-2.4732,-2.4732,-2.4732,-2.3091,-2.3091,-2.3091,-2.3091,-2.3319,-2.3428,-2.3255,-2.3981,-2.4783,-2.512,-2.5374,-2.619,-2.8388,-2.8341,-2.8531,-3.0405,-3.0698,-3.1086,-3.2186,-3.3352,0.0,0.0,0.0,0.0,0.0,0.0,0.0,0.0,0.0,0.0,0.0,0.0,-3.3498,-3.5439,-3.5504,-3.5504,-3.5504,-3.5504,-3.5504,-3.5504,-3.5504,-3.5145,-3.4518,-3.4503,0.0,0.0,0.0,0.0,0.0,-3.1511,-3.1107,-3.0507,-3.0507,-3.0148,-2.9621,-2.9621,-2.9202,-2.8633,-2.8618,-2.8184,-2.7625,-2.7625,-2.7625,-2.7625,-2.7625,-2.7625,-2.7625,-2.7625,-2.7625,-2.731,-2.5982,-2.6611,-2.7295,-2.5967,-2.6147,-2.6432,-2.5788,-2.5615,-2.542,-2.4762,-2.4642,-2.4418,-2.3714,-2.3595,-2.3595,-2.3595,-2.3098,-2.2694,-2.2694,-2.2544,-2.2399,-2.2399,-2.2423,-2.2735,-2.3545,-2.3616,-2.3616,-2.3616,-2.3616,-2.3616,-2.3616,-2.3616,-2.3616,-2.3616,-2.3616,-2.3616,-2.3616,-2.3616,-2.3616,-2.3616,-2.3616,-2.3616,-2.3091,-2.3091,-2.3091,-2.3091,-2.3406,-2.3681,-2.3617,-2.4099,-2.4598,-2.4682,-2.5254,-2.591,-2.6632,-2.7709,-2.8714,-2.9316,-3.0139,-3.0827,0.0,0.0,0.0,0.0,0.0,0.0,0.0,0.0,0.0,0.0,0.0,0.0,0.0,0.0,-3.289,-3.3498,-3.3498,-3.3334,-3.2976,-3.2976,-3.2796,-3.2416,-3.2416,-3.2302,-3.2088,-3.1628,0.0,0.0,0.0,0.0,0.0,-2.8794,-2.8495,-2.831,-2.831,-2.794,-2.7399,-2.7399,-2.6973,-2.642,-2.642,-2.6007,-2.5493,-2.5493,-2.5234,-2.4929,-2.4929,-2.6173,-2.7419,-2.6476,-2.6224,-2.6147,-2.5771,-2.5643,-2.5599,-2.5604,-2.5107,-2.4549,-2.4351,-2.4283,-2.4103,-2.3421,-2.3297,-2.3084,-2.2431,-2.2294,-2.2294,-2.2294,-2.2132,-2.2133,-2.2465,-2.1917,-2.1505,-2.1505,-2.1505,-2.1596,-2.1875,-2.214,-2.2492,-2.2965,-2.2538,-2.2696,-2.3551,-2.2775,-2.2724,-2.358,-2.3176,-2.3197,-2.3595,-2.3595,-2.3595,-2.3595,-2.3595,-2.3595,-2.3003,-2.3091,-2.3091,-2.3091,-2.345,0.0,-2.3797,-2.4143,-2.4497,-2.4497,-2.4946,-2.5421,-2.5746,-2.6812,-2.7931,-2.8673,-2.947,-3.0215,0.0,0.0,0.0,0.0,0.0,0.0,0.0,0.0,0.0,0.0,0.0,0.0,0.0,0.0,-3.1443,-3.1202,-3.1908,-3.2152,-3.1799,-3.1611,-3.134,-3.0999,-3.0999,-3.0887,-3.0604,0.0,0.0,0.0,0.0,0.0,0.0,-2.7452,-2.7174,-2.6951,-2.6951,-2.659,-2.5993,-2.5772,-2.5564,-2.537,-2.5149,-2.4803,-2.4498,-2.4498,-2.4149,-2.3701,-2.3701,-2.4836,-2.5912,-2.4808,-2.4696,-2.4762,-2.4308,-2.4262,-2.4291,-2.4156,-2.3729,-2.3253,-2.3003,-2.2957,-2.2819,-2.2412,-2.2315,-2.219,-2.1766,-2.1697,-2.1697,-2.1697,-2.1496,-2.1506,-2.1853,-2.1148,-2.0596,-2.0596,-2.0596,-2.0596,-2.0596,-2.1271,-2.1875,-2.23,-2.175,-2.1749,-2.2542,-2.1642,-2.1463,-2.2265,-2.1914,-2.1995,-2.2578,-2.2774,-2.2891,-2.2891,-2.2891,-2.2891,0.0,-2.3047,-2.3091,-2.3091,-2.345,-2.3797,-2.3797,-2.4143,0.0,-2.4497,-2.4497,-2.4743,-2.5547,-2.5746,-2.64,-2.8303,-2.8673,-2.9211,0.0,0.0,0.0,0.0,0.0,0.0,0.0,0.0,0.0,0.0,0.0,0.0,0.0,0.0,0.0,-2.8913,-3.0588,-3.1468,-3.1468,-3.0985,-3.0715,-3.0673,-3.0673,-3.0323,-2.9683,0.0,0.0,0.0,0.0,0.0,0.0,-2.697,-2.6639,-2.6169,-2.6015,-2.5615,-2.5025,-2.4463,-2.46,-2.4984,-2.4503,-2.4283,-2.4214,-2.4186,-2.3826,-2.3409,-2.3409,-2.3527,-2.3495,-2.2826,-2.3073,-2.3261,-2.2032,-2.2594,-2.3197,-2.198,-2.2145,-2.238,-2.1715,-2.1602,-2.1625,-2.1578,-2.1554,-2.1554,-2.1554,-2.1554,-2.1554,-2.1554,-2.1088,-2.081,-2.0989,-2.0296,-1.9798,-1.9798,-1.9747,-1.9697,-1.9697,-2.0813,-2.1523,-2.157,-2.1075,-2.0781,-2.083,-2.0313,-2.0065,-2.0108,-2.015,-2.0426,-2.0955,-2.1471,-2.1697,-2.1697,-2.1697,-2.1697,-2.1784,0.0,-2.3091,-2.3091,-2.3319,-2.3634,0.0,-2.4024,-2.4325,-2.4454,-2.4497,-2.4583,-2.4775,-2.5348,-2.5944,-2.6442,-2.7221,-2.7963,0.0,0.0,0.0,0.0,0.0,0.0,0.0,0.0,0.0,0.0,0.0,0.0,0.0,0.0,0.0,-2.8888,-2.8543,-2.8366,-2.8366,-2.8237,-2.7954,-2.7562,-2.7562,-2.7219,-2.6652,-2.651,0.0,0.0,0.0,0.0,-2.4717,-2.3828,-2.3618,-2.3752,-2.2351,-2.1969,-2.2176,-2.2039,-2.1815,-2.1702,-2.2531,-2.2279,-2.1507,-2.1056,-2.0811,-2.0707,-2.0707,-2.1761,-2.2804,-2.219,-2.2081,-2.2107,-2.1843,-2.1613,-2.1532,-2.1731,-2.1506,-2.1053,-2.0384,-2.0658,-2.0856,-2.0358,-2.0257,-2.0257,-2.0257,-2.0257,-2.0257,-2.0257,-2.0118,-2.0055,-2.0105,-1.9939,-1.9798,-1.9798,-1.9028,-1.8503,-1.8503,-1.9196,-1.9859,-2.0361,-1.9802,-1.9693,-2.0265,-1.9642,-1.9516,-2.0087,-2.0487,-2.0969,-2.1503,-2.1641,-2.1697,-2.1697,-2.1697,-2.1697,-2.0737,-2.205,-2.3091,-2.3091,-2.3319,-2.3547,-2.3634,-2.3851,-2.4067,-2.4325,-2.4368,-2.4368,-2.4497,-2.5082,-2.5594,-2.5779,-2.6559,0.0,0.0,0.0,0.0,0.0,0.0,0.0,0.0,0.0,0.0,0.0,0.0,0.0,0.0,0.0,0.0,0.0,-2.621,-2.6372,-2.7281,-2.7065,-2.6788,-2.6499,-2.6223,-2.5719,-2.5001,-2.4488,0.0,0.0,0.0,0.0,-2.2372,-2.1535,-2.1368,-2.1517,-2.0352,-2.0064,-2.0316,-2.0041,-1.9925,-1.996,-2.0384,-2.0181,-1.9578,-1.9,-1.8794,-1.8794,-1.8794,-1.9533,-2.0424,-2.0785,-2.0869,-2.0835,-2.0874,-2.0604,-2.0423,-2.081,-2.0348,-1.9735,-1.9359,-1.9308,-1.9218,-1.8874,-1.8794,-1.8794,-1.8794,-1.8794,-1.8794,-1.8794,-1.9011,-1.9177,-1.9177,-1.8909,-1.8576,-1.8111,-1.7617,-1.7332,-1.7332,-1.737,-1.7666,-1.8301,-1.7945,-1.7898,-1.8289,-1.7958,-1.8109,-1.8861,-1.9389,-1.9937,-2.0446,-2.0697,-2.083,-2.083,-2.083,-2.083,-1.9778,-2.132,-2.2707,-2.2671,-2.2818,-2.3047,-2.3232,-2.3396,-2.3657,-2.4067,-2.4153,-2.4153,-2.4186,-2.4633,0.0,0.0,0.0,0.0,0.0,0.0,0.0,0.0,0.0,0.0,0.0,0.0,0.0,0.0,0.0,0.0,0.0,0.0,0.0,0.0,-2.4213,-2.4964,-2.6616,-2.6159,-2.597,-2.5958,-2.5354,-2.4652,-2.3831,-2.2911,0.0,0.0,0.0,0.0,-2.0546,-2.0084,-1.9871,-1.9857,-1.9235,-1.8981,-1.8966,-1.8494,-1.855,-1.8813,-1.8474,-1.8368,-1.8289,-1.7767,-1.7605,-1.7605,-1.7605,-1.7605,-1.7841,-1.9123,-1.9475,-1.9475,-1.9475,-1.9475,-1.9475,-1.9475,-1.8992,-1.8528,-1.8528,-1.8031,-1.7605,-1.7605,-1.7605,-1.7605,-1.7605,-1.7605,-1.7622,-1.7709,-1.797,-1.8125,-1.8043,-1.7585,-1.6961,-1.6153,-1.6114,-1.6137,-1.6137,-1.5495,-1.5322,-1.5828,-1.6006,-1.609,-1.609,-1.6064,-1.6419,-1.7214,-1.7659,-1.8178,-1.8782,-1.924,-1.9475,-1.9475,-1.9475,-1.9475,-1.8972,-2.0005,-2.0981,-2.0713,-2.0683,-2.0953,-2.1996,-2.2262,-2.258,-2.3657,-2.3841,-2.3614,-2.2843,-2.362,-2.4095,0.0,0.0,0.0,0.0,0.0,0.0,0.0,0.0,0.0,0.0,0.0,0.0,0.0,0.0,0.0,0.0,0.0,0.0,0.0,0.0,-2.3618,-2.3568,-2.3488,-2.3453,-2.3442,-2.296,-2.2422,-2.1844,-2.1652,-2.1291,0.0,0.0,-2.059,-2.0546,-1.9979,-1.9798,-1.975,-1.8154,-1.7603,-1.7688,-1.7595,-1.7312,-1.6995,-1.7556,-1.7745,-1.7706,-1.7628,-1.7605,-1.7605,-1.7605,-1.7605,-1.766,-1.7868,-1.7922,-1.7922,-1.7922,-1.7922,-1.7922,-1.7922,-1.7852,-1.777,-1.777,-1.7688,-1.7605,-1.7605,-1.7605,-1.7605,-1.7605,-1.7605,-1.7741,-1.8195,-1.7616,-1.6938,-1.642,-1.6302,-1.6247,-1.6339,-1.5457,-1.4889,-1.4889,-1.3899,-1.333,-1.3425,-1.4806,-1.5598,-1.5598,-1.5173,-1.5402,-1.6377,-1.6468,-1.6934,-1.782,-1.79,-1.7922,-1.7922,-1.7922,-1.7922,-1.7971,-1.8426,-1.8854,-1.8909,-1.9709,-2.0646,-2.106,-2.1157,-2.1327,-2.1998,-2.2511,-2.269,-2.1997,0.0,-2.3894,-2.4048,0.0,0.0,0.0,0.0,0.0,0.0,0.0,0.0,0.0,0.0,0.0,0.0,0.0,0.0,0.0,0.0,0.0,0.0,-2.2039,-2.1716,-2.1293,-2.1052,-2.1489,-2.2533,-2.2003,-2.1375,-2.0683,-2.0389,-1.9864,-1.921,0.0,-1.921,-1.9158,-1.8405,-1.8114,-1.803,-1.6757,-1.6253,-1.6331,-1.6331,-1.6151,-1.595,-1.6301,-1.6415,-1.6415,-1.6415,-1.6415,-1.6415,-1.6415,-1.6415,-1.6415,-1.6415,-1.6996,-1.7605,-1.7605,-1.7605,-1.7605,-1.7605,-1.7302,-1.7006,-1.7006,-1.6698,-1.6415,-1.6415,-1.6415,-1.6415,-1.6415,-1.6415,-1.6497,-1.6749,-1.6395,-1.5886,-1.5328,-1.4957,-1.4788,-1.4839,-1.414,-1.3687,-1.3687,-1.2851,-1.2571,-1.3178,-1.3981,-1.4687,-1.5268,-1.5049,-1.5418,-1.6506,-1.6517,-1.689,-1.7605,-1.7605,-1.7605,-1.7605,-1.7598,-1.7607,-1.7279,-1.7348,-1.7464,-1.7646,-1.8875,-2.002,-2.0231,-2.0216,-2.0264,-2.0732,-2.1349,-2.1629,0.0,-2.1825,0.0,0.0,0.0,0.0,0.0,0.0,0.0,0.0,0.0,0.0,0.0,0.0,0.0,0.0,0.0,0.0,0.0,0.0,0.0,0.0,-2.0449,-2.0156,-1.9619,-1.9297,-1.989,-2.1365,-2.085,-2.0263,-1.9585,-1.9166,-1.862,-1.8008,-1.8008,-1.7847,-1.7514,-1.6837,-1.6325,-1.5921,-1.524,-1.492,-1.4844,-1.4844,-1.4844,-1.4844,-1.4844,-1.4844,-1.4874,-1.505,-1.5108,-1.5108,-1.5108,-1.5108,-1.5079,-1.4894,-1.5651,-1.6627,-1.6985,-1.7079,-1.7079,-1.7079,-1.6641,-1.6197,-1.5987,-1.5507,-1.505,-1.4864,-1.4844,-1.4844,-1.4844,-1.4951,-1.504,-1.5022,-1.504,-1.4695,-1.3793,-1.346,-1.3171,-1.2896,-1.2601,-1.2412,-1.2412,-1.1882,-1.1924,-1.2804,-1.2943,-1.3442,-1.4463,-1.4538,-1.5136,-1.631,-1.6321,-1.6575,-1.7079,-1.7079,-1.7079,-1.7079,-1.7087,-1.7088,-1.7279,-1.7532,-1.7732,-1.7489,-1.7497,-1.7967,-1.9487,-1.9591,-1.9758,-2.101,-2.1064,-2.0589,0.0,-1.947,0.0,0.0,0.0,0.0,0.0,0.0,0.0,0.0,0.0,0.0,0.0,0.0,0.0,0.0,0.0,0.0,0.0,0.0,0.0,0.0,0.0,-1.957,-1.8695,-1.8666,-1.8717,-1.8848,-1.8449,-1.8217,-1.8159,-1.812,-1.8076,-1.8008,-1.8008,-1.7316,-1.6242,-1.6187,-1.5233,-1.3823,-1.3741,-1.3515,-1.3152,-1.3152,-1.3152,-1.3152,-1.3152,-1.3152,-1.3312,-1.4025,-1.4302,-1.4302,-1.4302,-1.4302,-1.4115,-1.3364,-1.3243,-1.3687,-1.5157,-1.5546,-1.5546,-1.5546,-1.5526,-1.5284,-1.454,-1.4323,-1.4064,-1.3312,-1.3152,-1.3152,-1.3152,-1.3601,-1.3907,-1.3929,-1.3918,-1.3206,-1.122,-1.1581,-1.1758,-1.1082,-1.0964,-1.0948,-1.0948,-1.0889,-1.0906,-1.0981,-1.1281,-1.1833,-1.2647,-1.2923,-1.3662,-1.4905,-1.4943,-1.516,-1.5546,-1.5546,-1.5546,-1.5546,-1.5565,-1.5565,-1.7279,-1.7561,-1.7782,-1.7661,-1.7638,-1.7816,-1.853,-1.8595,-1.8592,-1.8877,-1.9656,0.0,0.0,0.0,0.0,0.0,0.0,0.0,0.0,0.0,0.0,0.0,0.0,0.0,0.0,0.0,0.0,0.0,0.0,0.0,0.0,0.0,0.0,0.0,0.0,-1.7654,-1.6874,-1.6865,-1.6714,-1.651,-1.7508,-1.7398,-1.6263,-1.6862,-1.6819,-1.6254,-1.604,-1.5675,-1.5188,-1.4715,-1.417,-1.3575,-1.3329,-1.3124,-1.3009,-1.3009,-1.3009,-1.3009,-1.3009,-1.3009,-1.3039,-1.3334,-1.3455,-1.3455,-1.3455,-1.3455,-1.3394,-1.31,-1.3009,-1.313,-1.3765,-1.3914,-1.3914,-1.3914,-1.3914,-1.3816,-1.3515,-1.3455,-1.3373,-1.307,-1.3009,-1.3117,-1.3458,-1.3117,-1.2929,-1.3241,-1.3033,-1.2384,-1.1231,-1.1559,-1.1705,-1.1157,-1.1107,-1.095,-1.0511,-1.0651,-1.0556,-1.0131,-1.0674,-1.1331,-1.2097,-1.2214,-1.2722,-1.3655,-1.3694,-1.3764,-1.3914,-1.3914,-1.39,-1.3898,-1.3911,-1.3927,-1.7308,-1.7536,-1.776,-1.771,-1.7661,-1.7732,-1.808,-1.8085,-1.8124,-1.8082,-1.8716,-1.9288,-1.9212,0.0,0.0,0.0,0.0,0.0,0.0,0.0,0.0,0.0,0.0,0.0,0.0,0.0,0.0,0.0,0.0,0.0,0.0,0.0,0.0,0.0,0.0,0.0,-1.5607,-1.5599,-1.5294,-1.4736,-1.6243,-1.6292,-1.5052,-1.5635,-1.5506,-1.4912,-1.4654,-1.4353,-1.3938,-1.3421,-1.2996,-1.2625,-1.236,-1.2243,-1.2243,-1.2243,-1.2243,-1.2243,-1.2243,-1.2243,-1.2274,-1.2543,-1.2604,-1.2604,-1.2604,-1.2604,-1.2573,-1.2305,-1.2243,-1.2243,-1.2243,-1.2612,-1.3009,-1.3009,-1.3009,-1.2917,-1.2673,-1.2604,-1.2551,-1.2305,-1.2243,-1.2359,-1.2723,-1.2174,-1.1812,-1.2174,-1.1829,-1.136,-1.0982,-1.1094,-1.1089,-1.0809,-1.0453,-1.0186,-1.0132,-0.9782,-0.9617,-0.9679,-0.9928,-1.0527,-1.1668,-1.17,-1.2133,-1.297,-1.3009,-1.3009,-1.3009,-1.3006,-1.3003,-1.2992,-1.2999,-1.3002,-1.7366,-1.752,-1.7727,-1.7445,-1.7403,-1.7591,-1.8241,-1.8335,-1.8519,-1.9226,-1.8638,-1.8016,-1.8016,0.0,0.0,0.0,0.0,0.0,0.0,0.0,0.0,0.0,0.0,0.0,0.0,0.0,0.0,0.0,0.0,0.0,0.0,0.0,0.0,0.0,0.0,0.0,-1.5163,-1.5163,-1.4665,-1.3702,-1.4332,-1.4678,-1.467,-1.4413,-1.4279,-1.4279,-1.4279,-1.355,-1.2377,-1.2377,-1.1678,-1.0593,-1.0593,-1.0593,-1.0593,-1.0593,-1.0593,-1.0593,-1.0593,-1.0593,-1.0744,-1.1531,-1.1803,-1.1803,-1.1803,-1.1772,-1.1617,-1.0839,-1.0593,-1.0593,-1.0593,-1.1756,-1.2948,-1.2978,-1.2978,-1.2757,-1.195,-1.1803,-1.1555,-1.0744,-1.0593,-1.0593,-1.0593,-1.0593,-1.0593,-1.0593,-1.0239,-0.9992,-1.0053,-0.9837,-0.9686,-0.9686,-0.86,-0.8375,-0.9572,-0.811,-0.7838,-0.957,-0.8874,-0.9261,-1.1197,-1.1301,-1.1818,-1.294,-1.2978,-1.2978,-1.2978,-1.2962,-1.297,-1.2978,-1.2978,-1.2972,-1.6845,-1.707,-1.7274,-1.7148,-1.7491,-1.7919,-1.8331,-1.8064,-1.7868,-1.8318,-1.7862,-1.7556,-1.7923,0.0,0.0,0.0,0.0,0.0,0.0,0.0,0.0,0.0,0.0,0.0,0.0,0.0,0.0,0.0,0.0,0.0,0.0,0.0,0.0,0.0,0.0,0.0,-1.2877,-1.3049,-1.2912,-1.2414,-1.2416,-1.2511,-1.2755,-1.3153,-1.2934,-1.2246,-1.2056,-1.1748,-1.1395,-1.1212,-1.0564,-0.969,-0.969,-0.93,-0.8769,-0.8769,-0.9166,-0.969,-0.969,-1.0079,-1.0656,-1.0863,-1.0958,-1.0958,-1.0958,-1.0534,-1.0123,-1.0491,-0.9716,-0.8903,-0.9524,-0.9595,-0.9799,-1.1031,-1.1296,-1.1233,-1.1021,-1.0958,-1.0895,-1.0656,-1.0593,-1.0593,-1.0593,-0.9901,-0.9334,-0.9334,-0.8925,-0.8502,-0.83,-0.8218,-0.8078,-0.7884,-0.7705,-0.7759,-0.8138,-0.7892,-0.7954,-0.8463,-0.8051,-0.8562,-1.0365,-1.0463,-1.073,-1.1288,-1.1296,-1.1296,-1.1296,-1.1298,-1.1305,-1.1296,-1.1296,-1.1307,-1.5255,-1.5488,-1.5727,-1.545,-1.5769,-1.6262,-1.6921,0.0,0.0,0.0,-1.7562,-1.7311,-1.7649,0.0,0.0,0.0,0.0,0.0,0.0,0.0,0.0,0.0,0.0,0.0,0.0,0.0,0.0,0.0,0.0,0.0,0.0,0.0,0.0,0.0,0.0,0.0,-1.1906,-1.1924,-1.1686,-1.1192,-1.0876,-1.0654,-1.0549,-1.1538,-1.1671,-1.1042,-1.0568,-1.0327,-1.0282,-0.9783,-0.9262,-0.878,-0.878,-0.8452,-0.7994,-0.7994,-0.8318,-0.878,-0.878,-0.9134,-0.9582,-0.9582,-0.9509,-0.9474,-0.9545,-0.9154,-0.8773,-0.9392,-0.8801,-0.8124,-0.8646,-0.8388,-0.8253,-0.9326,-0.9582,-0.9582,-0.9582,-0.9582,-0.962,-0.9836,-1.0264,-1.0373,-0.969,-0.8956,-0.8393,-0.8152,-0.8044,-0.7845,-0.7471,-0.748,-0.745,-0.7265,-0.7058,-0.7071,-0.7551,-0.7117,-0.7191,-0.7957,-0.7479,-0.7818,-0.9214,-0.9143,-0.9215,-0.9576,-0.9582,-0.9576,-0.9558,-0.9578,-0.9559,-0.9582,-0.9582,-0.9602,-1.3158,-1.3325,-1.3525,-1.3099,-1.3096,-1.3551,-1.4601,-1.6689,-1.8289,-1.7935,0.0,-1.7005,0.0,0.0,0.0,0.0,0.0,0.0,0.0,0.0,0.0,0.0,0.0,0.0,0.0,0.0,0.0,0.0,0.0,0.0,0.0,0.0,0.0,0.0,0.0,0.0,-1.1611,-1.134,-1.0776,0.0,-0.9694,-0.917,-0.8449,-0.9768,-1.0364,-1.0333,-0.9524,-0.9172,-0.9107,-0.8318,-0.7962,-0.7897,-0.7897,-0.7832,-0.7767,-0.7767,-0.78,-0.7897,-0.7897,-0.7929,-0.7994,-0.7994,-0.7879,-0.7751,-0.7928,-0.7815,-0.7657,-0.7933,-0.7897,-0.7767,-0.7859,-0.7832,-0.7767,-0.7767,-0.7897,-0.7994,-0.7994,-0.8027,-0.8204,-0.8695,-0.9651,-0.9831,-0.8204,-0.7827,-0.7585,-0.7043,-0.7418,-0.7619,-0.7194,-0.7225,-0.7304,-0.7295,-0.6492,-0.638,-0.7415,-0.6026,-0.5877,-0.7655,-0.7018,-0.6948,-0.7735,-0.7606,-0.7691,-0.7989,-0.7989,-0.8006,-0.8013,-0.8,-0.7989,-0.8009,-0.7997,-0.8097,-1.2495,-1.2532,-1.2576,-1.2654,-1.3128,-1.3619,-1.3815,-1.4256,-1.5087,-1.6639,-1.6107,0.0,0.0,0.0,0.0,0.0,0.0,0.0,0.0,0.0,0.0,0.0,0.0,0.0,0.0,0.0,0.0,0.0,0.0,0.0,0.0,0.0,0.0,0.0,0.0,-1.0477,-0.9336,-0.9501,-0.9311,0.0,-0.8721,-0.8594,-0.8415,-0.8521,-0.8544,-0.8544,-0.835,-0.8291,-0.8253,-0.8091,-0.76,-0.6981,-0.6981,-0.656,-0.5951,-0.5951,-0.64,-0.6981,-0.6981,-0.7437,-0.7994,-0.7994,-0.7959,-0.7928,-0.7979,-0.7501,-0.7053,-0.7785,-0.7022,-0.6112,-0.6785,-0.6465,-0.5951,-0.5951,-0.699,-0.7994,-0.7994,-0.8339,-0.8657,-0.8765,-0.8657,-0.8306,-0.7441,-0.6546,-0.5902,-0.5771,-0.5881,-0.5924,-0.582,-0.5843,-0.585,-0.5845,-0.565,-0.5632,-0.5858,-0.5537,-0.5522,-0.5947,-0.5785,-0.5752,-0.5947,-0.7205,-0.7911,-0.7994,-0.8001,-0.7996,-0.8016,-0.7996,-0.8014,-0.8004,-0.8102,-0.8176,-1.0681,-1.0697,-1.0831,-1.0852,-1.1074,-1.1465,-1.211,-1.2091,-1.2454,-1.4273,0.0,0.0,0.0,0.0,0.0,0.0,0.0,0.0,0.0,0.0,0.0,0.0,0.0,0.0,0.0,0.0,0.0,0.0,0.0,0.0,0.0,0.0,0.0,0.0,-0.9853,-0.936,-0.8594,-0.8597,-0.8225,-0.7598,-0.7598,-0.737,-0.7002,-0.7686,-0.7994,-0.7962,-0.7567,-0.7372,-0.734,-0.692,-0.6502,-0.6075,-0.6075,-0.5785,-0.5395,-0.5395,-0.5686,-0.6063,-0.5979,-0.6294,-0.6748,-0.6653,-0.6619,-0.664,-0.6735,-0.6371,-0.606,-0.6604,-0.6112,-0.5491,-0.5947,-0.5752,-0.5395,-0.5395,-0.6079,-0.6761,-0.6761,-0.697,-0.7176,-0.7176,-0.6937,-0.6658,-0.6351,-0.5785,-0.5401,-0.5392,-0.5395,-0.5368,-0.526,-0.5347,-0.5341,-0.5133,-0.5277,-0.5351,-0.5185,-0.5218,-0.5284,-0.5388,-0.5395,-0.5395,-0.5395,-0.6276,-0.6761,-0.6761,-0.6748,-0.6748,-0.6761,-0.6836,-0.6852,-0.6856,-0.6991,-0.7067,-0.8977,-0.9052,-0.9155,-0.8934,-0.8784,0.0,-1.0199,-1.0151,-1.0209,0.0,0.0,0.0,0.0,0.0,0.0,0.0,0.0,0.0,0.0,0.0,0.0,0.0,0.0,0.0,0.0,0.0,0.0,0.0,0.0,0.0,0.0,0.0,-0.9445,-0.9041,-0.8682,-0.8369,-0.8153,-0.7807,-0.7235,-0.6506,-0.6478,-0.6123,-0.5466,-0.6909,-0.754,-0.7507,-0.6789,-0.6461,-0.6429,-0.5686,-0.5395,-0.5395,-0.5395,-0.5395,-0.5395,-0.5395,-0.5395,-0.5378,-0.5213,-0.5254,-0.5375,-0.5213,-0.5137,-0.5196,-0.5354,-0.5274,-0.5196,-0.5358,-0.5292,-0.5193,-0.5359,-0.516,-0.4957,-0.5123,-0.5126,-0.516,-0.5359,-0.5395,-0.5395,-0.5395,-0.5395,-0.5395,-0.5395,-0.5395,-0.5395,-0.5395,-0.5395,-0.5347,-0.5186,-0.5281,-0.5267,-0.4926,-0.5003,-0.5005,-0.4775,-0.4708,-0.4761,-0.4915,-0.4921,-0.4921,-0.4921,-0.4921,-0.4921,-0.4921,-0.5226,-0.5395,-0.5395,-0.5532,-0.559,-0.5594,-0.5762,-0.5878,-0.9183,-0.8974,-0.8781,-0.8719,-0.8625,-0.8565,0.0,0.0,-0.858,0.0,0.0,0.0,0.0,0.0,0.0,0.0,0.0,0.0,0.0,0.0,0.0,0.0,0.0,0.0,0.0,0.0,0.0,0.0,0.0,0.0,0.0,-0.9481,-0.8951,-0.8012,-0.7922,-0.7405,-0.6367,-0.6183,-0.5993,-0.5758,-0.5624,-0.5564,-0.559,-0.5688,-0.5756,-0.5752,-0.562,-0.5591,-0.5557,-0.5462,-0.5395,-0.5395,-0.5395,-0.5395,-0.5395,-0.5395,-0.5395,-0.5392,-0.5371,-0.5378,-0.5392,-0.5371,-0.5365,-0.5368,-0.5388,-0.5382,-0.5368,-0.5388,-0.4821,-0.4384,-0.5193,-0.4251,-0.3247,-0.4015,-0.402,-0.4123,-0.516,-0.5395,-0.5395,-0.5395,-0.5395,-0.5395,-0.5395,-0.5395,-0.5395,-0.5395,-0.5395,-0.5388,-0.5365,-0.5382,-0.5378,-0.5341,-0.4441,-0.3914,-0.4114,-0.3445,-0.3021,-0.3043,-0.3045,-0.3045,-0.3045,-0.3045,-0.3045,-0.3045,-0.4586,-0.5395,-0.5395,-0.5541,-0.5601,-0.5594,-0.5872,-0.5986,-0.9199,-0.8925,-0.8676,-0.8583,-0.8472,-0.8364,-0.8364,0.0,0.0,0.0,0.0,0.0,0.0,0.0,0.0,0.0,0.0,0.0,0.0,0.0,0.0,0.0,0.0,0.0,0.0,0.0,0.0,0.0,0.0,0.0,-0.7903,-0.7729,-0.7403,-0.6984,-0.6851,0.0,-0.5993,-0.58,-0.5606,-0.5494,-0.5515,-0.5237,-0.4707,-0.4725,-0.5005,-0.5518,-0.5433,-0.5395,-0.5359,-0.4821,-0.4619,-0.4553,-0.4082,-0.3882,-0.3882,-0.3882,-0.3882,-0.3875,-0.3816,-0.3833,-0.3872,-0.3816,-0.3835,-0.3882,-0.3882,-0.3882,-0.3882,-0.3882,-0.358,-0.338,-0.3782,-0.3313,-0.2811,-0.3178,-0.3423,-0.3566,-0.3423,-0.3652,-0.378,-0.3442,-0.3644,-0.3882,-0.3882,-0.3882,-0.3882,-0.3882,-0.3882,-0.3882,-0.3882,-0.4179,-0.4408,-0.4408,-0.3597,-0.273,-0.1835,-0.2038,-0.2206,-0.221,-0.2514,-0.2684,-0.2691,-0.2686,-0.2708,-0.2696,-0.3487,-0.3871,-0.387,-0.4017,-0.4385,-0.4986,-0.5191,-0.5578,-0.9233,-0.8917,-0.8598,-0.8124,-0.7849,-0.7655,0.0,0.0,0.0,0.0,0.0,0.0,0.0,0.0,0.0,0.0,0.0,0.0,0.0,0.0,0.0,0.0,0.0,0.0,0.0,0.0,0.0,0.0,0.0,0.0,-0.6521,-0.6412,-0.6337,-0.6303,-0.6149,-0.6088,-0.6088,-0.5574,-0.5253,-0.5078,-0.4943,-0.4454,-0.3722,-0.3773,-0.4229,-0.4913,-0.4779,-0.4722,-0.4652,-0.3949,-0.368,-0.3613,-0.2945,-0.2711,-0.2711,-0.2711,-0.2711,-0.2669,-0.2584,-0.2601,-0.2669,-0.2584,-0.2633,-0.2711,-0.2711,-0.2711,-0.2711,-0.2711,-0.2523,-0.2401,-0.2637,-0.2347,-0.2087,-0.229,-0.2502,-0.2539,-0.1937,-0.2149,-0.2391,-0.2083,-0.2378,-0.2712,-0.2696,-0.2703,-0.2686,-0.2712,-0.2693,-0.2686,-0.2713,-0.2958,-0.3203,-0.3372,-0.2566,-0.1567,-0.0436,-0.0939,-0.1343,-0.1343,-0.178,-0.2025,-0.2012,-0.2006,-0.2001,-0.2032,-0.1998,-0.2253,-0.2709,-0.2832,-0.3301,-0.4105,-0.4248,-0.4727,-0.9244,-0.8992,-0.8475,-0.7046,-0.6425,-0.5814,0.0,0.0,0.0,0.0,0.0,0.0,0.0,0.0,0.0,0.0,0.0,0.0,0.0,0.0,0.0,0.0,0.0,0.0,0.0,0.0,0.0,0.0,0.0,0.0,-0.6528,-0.6504,-0.6439,-0.6303,-0.6293,-0.6286,-0.6286,-0.513,-0.4463,-0.4248,-0.3311,-0.2893,-0.2957,-0.2817,-0.2859,-0.3032,-0.2914,-0.2845,-0.2845,-0.2778,-0.2778,-0.2778,-0.2711,-0.2711,-0.2711,-0.2711,-0.2711,-0.2709,-0.2706,-0.2708,-0.2709,-0.2706,-0.2708,-0.2711,-0.2711,-0.2711,-0.2711,-0.2711,-0.2048,-0.1568,-0.2472,-0.1421,-0.0363,-0.1158,-0.0761,-0.0472,-0.1557,-0.1807,-0.2022,-0.2566,-0.2693,-0.2702,-0.2699,-0.2702,-0.271,-0.2699,-0.2703,-0.2713,-0.2707,-0.2228,-0.2112,-0.2684,-0.1172,-0.0436,-0.1179,-0.0539,-0.0101,-0.0101,-0.0135,-0.0136,-0.014,-0.014,-0.0142,-0.0145,-0.0149,-0.0969,-0.2682,-0.2834,-0.2946,-0.2982,-0.3128,-0.3202,-0.8177,-0.7726,-0.7188,-0.5773,-0.5199,-0.488,-0.4407,0.0,0.0,0.0,0.0,0.0,0.0,0.0,0.0,0.0,0.0,0.0,0.0,0.0,0.0,0.0,0.0,0.0,0.0,0.0,0.0,0.0,0.0,0.0,-0.6624,-0.6477,-0.6035,-0.5276,-0.5276,-0.4889,-0.4125,-0.3672,-0.3409,-0.3222,-0.2949,-0.2489,-0.1886,-0.1971,-0.1638,-0.1022,-0.0979,-0.161,-0.2644,-0.2043,-0.1808,-0.1742,-0.1175,-0.0974,-0.0977,-0.096,-0.0956,-0.0977,-0.096,-0.0955,-0.0974,-0.0974,-0.0974,-0.0974,-0.0974,-0.0953,-0.0966,-0.0966,-0.0739,-0.0538,-0.0897,-0.047,-0.0073,-0.0406,-0.0222,-0.0112,-0.057,-0.0633,-0.0691,-0.0909,-0.0974,-0.0968,-0.0967,-0.0952,-0.0978,-0.0955,-0.0956,-0.0963,-0.095,-0.0777,-0.0726,-0.0949,-0.0404,-0.0135,-0.0438,-0.0169,0.0,0.0,0.0,0.0,0.0,0.0,0.0,0.0,0.0,-0.0301,-0.0969,-0.1032,-0.1392,-0.2049,-0.2105,-0.2501,-0.8127,-0.7425,-0.6575,0.0,-0.4321,-0.372,-0.3168,0.0,0.0,0.0,0.0,0.0,0.0,0.0,0.0,0.0,0.0,0.0,0.0,0.0,0.0,0.0,0.0,0.0,0.0,0.0,0.0,0.0,0.0,0.0,-0.5571,-0.5413,-0.4965,-0.4181,-0.4178,-0.376,-0.2978,-0.2636,-0.2414,-0.2318,-0.2041,-0.1568,-0.0875,-0.0989,-0.0665,0.0,0.0,-0.0678,-0.1743,-0.1107,-0.0873,-0.0806,-0.0236,0.0,0.0,0.0,0.0,0.0,0.0,0.0,0.0,0.0,0.0,0.0,0.0,0.0,0.0,0.0,0.0,0.0,0.0,0.0,0.0,0.0,0.0,0.0,0.0,0.0,0.0,0.0,0.0,0.0,0.0,0.0,0.0,0.0,0.0,0.0,0.0,0.0,0.0,0.0,0.0,0.0,0.0,0.0,0.0,0.0,0.0,0.0,0.0,0.0,0.0,0.0,0.0,0.0,0.0,0.0,-0.0353,-0.1058,-0.1058,-0.141,0.0,0.0,0.0,0.0,0.0,0.0,-0.0757,0.0,0.0,0.0,0.0,0.0,0.0,0.0,0.0,0.0,0.0,0.0,0.0,0.0,0.0,0.0,0.0,0.0,0.0,0.0,0.0,0.0,0.0,-0.3503,-0.332,-0.331,-0.3239,-0.3051,-0.3008,-0.3008,-0.3007,-0.2035,-0.1549,-0.155,-0.048,0.0,0.0,0.0,0.0,0.0,0.0,0.0,0.0,0.0,0.0,0.0,0.0,0.0,0.0,0.0,0.0,0.0,0.0,0.0,0.0,0.0,0.0,0.0,0.0,0.0,0.0,0.0,0.0,0.0,0.0,0.0,0.0,0.0,0.0,0.0,0.0,0.0039,0.0039,0.0,0.0,0.0,0.0,0.0,0.0,0.0,0.0,0.0,0.0,0.0,0.0,0.0,0.0,0.0,0.0,0.0036,0.0036,0.0,0.0036,0.0037,0.0,0.0,0.0,0.0,0.0,0.0,0.0,0.0,0.0,0.0,0.0,0.0,-0.7074,0.0,0.0,0.0,0.0,0.0,0.0,0.0,0.0,0.0,0.0,0.0,0.0,0.0,0.0,0.0,0.0,0.0,0.0,0.0,0.0,0.0,0.0,0.0,0.0,0.0,0.0,0.0,-0.3478,-0.3344,-0.3307,-0.2536,-0.2053,-0.1999,-0.1275,-0.0877,-0.0862,-0.0588,-0.043,-0.0427,-0.0154,0.0,0.0,0.0,0.0,0.0,0.0,0.0,0.0,0.0,0.0,0.0,0.0,0.0,0.0,0.0,0.0,0.0,0.0,0.0,0.0,0.0,0.0,0.0,0.0,0.0,0.0,0.0,0.0,0.0,0.0,0.0,0.0,0.0,0.0,0.0,0.0,0.0627,0.0938,0.0157,0.0,0.0,0.0,0.0,0.0,0.0,0.0,0.0,0.0,0.0,0.0,0.0,0.0,0.0,0.0,0.0728,0.0844,0.0037,0.0711,0.0795,0.0039,0.0,0.0,0.0,0.0,0.0,0.0,0.0,0.0,0.0,0.0,0.0,-0.6822,-0.5824,0.0,0.0,0.0,0.0,-0.1061,-0.0909,0.0,0.0,0.0,0.0,0.0,0.0,0.0,0.0,0.0,0.0,0.0,0.0,0.0,0.0,0.0,0.0,0.0,0.0,0.0,0.0,-0.2,-0.1927,-0.1909,-0.1305,-0.0941,-0.0916,-0.032,0.0,0.0,0.0,0.0,0.0,0.0,0.0,0.0,0.0,0.0,0.0,0.0,0.0,0.0,0.0,0.0,0.0,0.0,0.0,0.0,0.0,0.0,0.0,0.0,0.0,0.0,0.0,0.0,0.0,0.0,0.0,0.0,0.0,0.0311,0.0667,0.0667,0.098,0.1292,0.1293,0.1346,0.1362,0.1369,0.1932,0.2078,0.0903,0.1074,0.1412,0.1372,0.1403,0.1435,0.1435,0.1393,0.1391,0.1391,0.1443,0.1479,0.1405,0.1401,0.1349,0.1315,0.1874,0.2008,0.1437,0.1984,0.2084,0.1531,0.1493,0.1493,0.1493,0.1493,0.1445,0.1391,0.0434,0.0,0.0,0.0,0.0,-0.7624,-0.6423,-0.5225,0.0,0.0,0.0,-0.101,-0.0909,-0.0758,0.0,0.0,0.0,0.0,0.0,0.0,0.0,0.0,0.0,0.0,0.0,0.0,0.0,0.0,0.0,0.0,0.0,0.0,0.0,0.0,0.0,0.0,0.0,0.0,0.0,0.0,0.0,0.0,0.0,0.0,0.0,0.0,0.0,0.0,0.0,0.0,0.0,0.0,0.0,0.0,0.0118,0.0115,0.0,0.0,0.0,0.0,0.0,0.0,0.0,0.0,0.0079,0.0196,0.0196,0.0235,0.0353,0.0353,0.0353,0.0353,0.0353,0.1019,0.1763,0.1768,0.2434,0.3139,0.3153,0.3264,0.3342,0.3342,0.3561,0.3433,0.2218,0.2769,0.34,0.3359,0.3393,0.3437,0.3437,0.3384,0.3331,0.3331,0.3476,0.3534,0.3421,0.3371,0.3259,0.3142,0.3262,0.3331,0.3396,0.3449,0.3526,0.3601,0.3604,0.3604,0.3604,0.3604,0.3526,0.3331,0.1356,0.0399,0.0366,0.0408,0.0413,0.0,0.0,0.0,0.0,0.0,0.0,-0.1465,-0.1465,-0.1364,0.0,0.0,0.0,0.0,0.0,0.0,0.0,0.0,0.0,0.0,0.0,0.0,0.0,0.0,0.0,0.0,0.0,0.0,0.0,0.0,0.0,0.0,0.0,0.0,0.0,0.0,0.0,0.0,0.0,0.0,0.0,0.0,0.0,0.0,0.0,0.0,0.0,0.0,0.0,0.0079,0.0941,0.078,0.0,0.0,0.0,0.0,0.0,0.0,0.0,0.0,0.0549,0.1293,0.1293,0.184,0.25,0.25,0.25,0.25,0.25,0.2656,0.2826,0.2921,0.3095,0.3311,0.3458,0.3532,0.355,0.3559,0.4228,0.4714,0.4463,0.394,0.3571,0.3528,0.3533,0.3543,0.3543,0.3541,0.3539,0.3539,0.3593,0.3597,0.358,0.3539,0.3505,0.3343,0.4166,0.4308,0.3362,0.4237,0.4414,0.3644,0.3604,0.3604,0.3604,0.3604,0.3595,0.3539,0.3109,0.2833,0.2674,0.2808,0.2908,0.0,0.0,0.0,-0.3773,0.0,0.0,0.0,-0.1415,-0.1314,0.0,0.0,0.0,0.0,0.0,0.0,0.0,0.0,0.0,0.0,0.0,0.0,0.0,0.0,0.0,0.0,0.0,0.0,0.0,0.0,0.0,0.0,0.0,0.0,0.0,0.0,0.0,0.0,0.0,0.0,0.0,0.0,0.0,0.0,0.0549,0.0784,0.0824,0.1331,0.1565,0.1604,0.2112,0.2034,0.1565,0.1565,0.1565,0.1565,0.1565,0.1565,0.1565,0.1565,0.1917,0.2347,0.2347,0.2696,0.3085,0.3085,0.3085,0.3085,0.3085,0.3545,0.4027,0.4076,0.4529,0.5035,0.5137,0.5194,0.5238,0.5238,0.5707,0.6092,0.6092,0.5688,0.5305,0.5251,0.5257,0.5238,0.5238,0.5238,0.5238,0.5238,0.5285,0.5339,0.5244,0.5238,0.5191,0.5071,0.557,0.5649,0.5147,0.5667,0.5814,0.536,0.5362,0.5362,0.5362,0.5464,0.5464,0.5362,0.5362,0.4704,0.3435,0.356,0.3621,0.0,0.0,0.0,0.0,0.0,-0.1868,0.0,0.0,0.0,-0.101,0.0,0.0,0.0,0.0,0.0,0.0,0.0,0.0,0.0,0.0,0.0,0.0,0.0,0.0,0.0,0.0,0.0,0.0,0.0,0.0,0.0,0.0,0.0,0.0,0.0,0.0,0.0,0.0248,0.0327,0.0368,0.0559,0.0632,0.0671,0.1492,0.188,0.1919,0.2735,0.3085,0.3124,0.3318,0.3396,0.3396,0.3163,0.3085,0.3085,0.3085,0.3085,0.3085,0.3085,0.324,0.3396,0.3396,0.3552,0.3715,0.3789,0.3787,0.3773,0.3773,0.448,0.5257,0.5257,0.6008,0.6753,0.6776,0.6878,0.6927,0.6927,0.7014,0.7095,0.7095,0.7095,0.7058,0.6947,0.6927,0.6927,0.6927,0.6927,0.6927,0.6927,0.7024,0.7051,0.694,0.6927,0.6866,0.6756,0.677,0.6827,0.6879,0.6913,0.6977,0.7092,0.7125,0.7139,0.7139,0.7336,0.7353,0.7183,0.7183,0.6201,0.4268,0.4268,0.4314,0.0,0.0,0.0,0.0,-0.4173,0.0,0.0,0.0,-0.1566,-0.1516,0.0,0.0,0.0,0.0,0.0,0.0,0.0,0.0,0.0,0.0,0.0,0.0,0.0,0.0,0.0,0.0,0.0,0.0,0.0,0.0,0.0,0.0,0.0,0.0,0.0,0.0,0.0,0.1047,0.1588,0.1587,0.257,0.2984,0.2941,0.2918,0.2929,0.2929,0.3046,0.3085,0.3163,0.4139,0.453,0.4414,0.3474,0.3085,0.3085,0.3085,0.3085,0.3085,0.3085,0.3709,0.453,0.453,0.5157,0.5989,0.62,0.6225,0.6122,0.6122,0.6309,0.6509,0.6509,0.6703,0.6893,0.7018,0.7058,0.7071,0.7071,0.7085,0.7095,0.7095,0.7095,0.7092,0.7075,0.7071,0.7071,0.7071,0.7071,0.7071,0.7071,0.7085,0.7088,0.7071,0.7071,0.7014,0.6873,0.6974,0.7001,0.6893,0.7004,0.7078,0.7095,0.7272,0.7346,0.7346,0.7495,0.7563,0.7546,0.7546,0.726,0.6716,0.6716,0.6793,0.0,0.0,0.0,0.0,0.0,0.0,0.0,0.0,-0.1617,0.0,0.0,0.0,0.0,0.0,0.0,0.0,0.0,0.0,0.0,0.0,0.0,0.0,0.0,0.0,0.0,0.0,0.0,0.0,0.0,0.0652,0.0046,0.0,0.0,0.0,0.0,0.0353,0.1048,0.155,0.2136,0.2862,0.3298,0.351,0.3508,0.3949,0.4148,0.4183,0.4716,0.496,0.5002,0.5431,0.5674,0.5698,0.5258,0.5019,0.4968,0.5036,0.506,0.506,0.506,0.5428,0.586,0.586,0.6146,0.6539,0.6664,0.6654,0.6603,0.6603,0.6715,0.6831,0.6831,0.69,0.7021,0.7082,0.721,0.7251,0.7115,0.721,0.7248,0.7112,0.7214,0.7275,0.7275,0.72,0.7095,0.7095,0.7095,0.7095,0.7095,0.7095,0.7095,0.7095,0.7095,0.7071,0.7014,0.7061,0.7071,0.7011,0.7193,0.7312,0.7404,0.755,0.7587,0.7506,0.7648,0.7723,0.7723,0.7641,0.7573,0.7526,0.7444,0.7441,-0.9381,0.0,0.0,0.0,0.0,0.0,0.0,0.0,0.0,0.0,0.0,0.0,0.0,0.0,0.0,0.0,0.0,0.0,0.0,0.0,0.0,0.0,0.0,0.0,0.0,0.0,0.0,0.0,0.1337,0.0,0.0544,0.0181,0.0,0.0,0.0,0.0587,0.179,0.2114,0.2883,0.4104,0.4357,0.4522,0.4517,0.5086,0.5342,0.5376,0.6006,0.6323,0.6358,0.6358,0.6443,0.6539,0.658,0.6508,0.6433,0.6538,0.6536,0.6536,0.6536,0.6607,0.6709,0.6749,0.6732,0.6715,0.6797,0.6793,0.6763,0.6763,0.6871,0.6933,0.6896,0.6991,0.7095,0.7095,0.7258,0.7343,0.7227,0.7326,0.74,0.7243,0.7356,0.7421,0.7426,0.7312,0.722,0.722,0.722,0.7206,0.7166,0.7193,0.7206,0.7207,0.7196,0.722,0.722,0.722,0.722,0.722,0.7373,0.7485,0.7594,0.7736,0.7763,0.7658,0.7801,0.7875,0.7872,0.777,0.7773,0.7868,0.7685,0.7621,0.0,0.0,0.0,-0.7865,0.0,0.0,0.0,0.0,-0.2873,0.0,0.0,0.0,0.0,0.0,0.0,0.3224,0.0,0.0,0.0,0.0,0.0,0.0,0.0,0.0,0.0,0.0,0.0,0.3276,0.2258,0.0,0.1755,0.0647,0.0,0.0,0.0,0.0595,0.1791,0.2945,0.4146,0.5351,0.6334,0.679,0.678,0.6569,0.6431,0.6424,0.6361,0.6378,0.6504,0.6504,0.6556,0.6709,0.6858,0.682,0.6685,0.6692,0.6695,0.6695,0.6695,0.6698,0.6725,0.6829,0.682,0.6753,0.6997,0.6987,0.6879,0.6879,0.698,0.7058,0.692,0.6991,0.7095,0.7095,0.7258,0.7415,0.7409,0.7485,0.759,0.7587,0.759,0.7546,0.7443,0.7492,0.7587,0.7587,0.7587,0.7533,0.7429,0.7492,0.7529,0.7426,0.7495,0.7587,0.7587,0.7587,0.7587,0.7587,0.759,0.7594,0.76,0.7736,0.7811,0.7804,0.7907,0.7982,0.7982,0.7978,0.7978,0.7975,0.7736,0.7675,0.0,0.0,-0.868,-0.8676,0.0,0.0,0.0,0.0,0.0,0.0,0.0,0.0,0.0,0.0,0.2668,0.3123,0.4981,0.0,0.0,0.0,0.0,0.0,0.0,0.0,0.0,0.0,0.0,0.346,0.3767,0.3713,0.0,0.272,0.2544,0.2655,0.2545,0.3078,0.4288,0.4631,0.5356,0.6514,0.6872,0.7024,0.7018,0.6865,0.6773,0.6766,0.6617,0.658,0.6624,0.6624,0.6712,0.6858,0.6866,0.6913,0.6937,0.6846,0.6851,0.6865,0.6916,0.6947,0.6957,0.7007,0.6991,0.6967,0.7065,0.7061,0.7024,0.7024,0.7177,0.7282,0.7234,0.7333,0.7444,0.7444,0.7556,0.7638,0.7543,0.7638,0.7712,0.7617,0.7675,0.7723,0.7672,0.779,0.779,0.7492,0.7448,0.7465,0.7516,0.7567,0.758,0.7529,0.7567,0.76,0.76,0.76,0.7641,0.7733,0.774,0.7784,0.7837,0.7887,0.7914,0.7914,0.7965,0.7988,0.7988,0.7988,0.7988,0.7988,0.7887,0.7867,-0.8627,-0.8531,0.0,0.0,-0.823,0.0,-0.7223,0.0,0.0,0.0,0.0,0.0,0.0,0.0,0.0,0.292,0.463,0.0,0.0,0.6387,0.0,0.0,0.0,0.0,0.0,0.0,0.5275,0.4666,0.4958,0.4955,0.0,0.0,0.3917,0.3987,0.3919,0.4439,0.5578,0.5501,0.6028,0.7095,0.7095,0.7095,0.7092,0.695,0.6886,0.6876,0.6766,0.6732,0.678,0.678,0.6868,0.696,0.696,0.7014,0.7085,0.6994,0.696,0.6974,0.7065,0.7095,0.7095,0.7095,0.7095,0.7095,0.7095,0.7095,0.7105,0.7207,0.7295,0.7429,0.7438,0.7526,0.76,0.76,0.7706,0.7787,0.7695,0.779,0.7865,0.7773,0.7831,0.7875,0.7821,0.7892,0.7879,0.7645,0.7607,0.7624,0.7668,0.7723,0.7736,0.7682,0.7723,0.7756,0.7756,0.7756,0.7794,0.7885,0.7892,0.7887,0.7985,0.7988,0.8015,0.8123,0.8019,0.8015,0.8123,0.8015,0.7988,0.7988,0.7988,0.7988]},{"header":{"parameterUnit":"m.s-1","parameterCategory":1,"la1":30.6,"la2":29.2853,"lo1":-89.7004,"lo2":-87.6739,"dy":0.0162,"dx":0.0183,"nx":112,"ny":82,"refTime":"2023-08-22T12:00:00:Z","depth":0,"parameterNumber":3,"parameterNumberName":"V-component_of_WINDS"},"data":[0.0,0.0,0.0,0.0,0.0,0.0,0.0,0.0,0.0,0.0,0.0,0.0,0.0,0.0,0.0,0.0,0.0,0.0,0.0,0.0,0.0,0.0,0.0,0.0,0.0,0.0,0.0,0.0,0.0,0.0,0.0,0.0,0.0,0.0,0.0,0.0,0.0,0.0,0.0,0.0,0.0,0.0,0.0,0.0,0.0,0.0,0.0,0.0,0.0,0.0,0.0,0.0,0.0,0.0,0.0,0.0,0.0,0.0,0.0,0.0,0.0,0.0,0.0,0.0,0.0,0.0,0.0,0.0,0.0,0.0,0.0,0.0,0.0,0.0,0.0,0.0,0.0,0.0,0.0,0.0,0.0,0.0,0.0,0.0,0.0,0.0,0.0,0.0,0.0,0.0,0.0,0.5964,0.3852,0.242,0.2289,0.0905,0.0,0.0,0.0,0.0,0.0,0.0,0.0,0.0,0.0,0.0,0.0,0.0,0.0,0.0,0.0,0.0,0.0,0.0,0.0,0.0,0.0,0.0,0.0,0.0,0.0,0.0,0.0,0.0,0.0,0.0,0.0,0.0,0.0,0.0,0.0,0.0,0.0,0.0,0.0,0.0,0.0,0.0,0.0,0.0,0.0,0.0,0.0,0.0,0.0,0.0,0.0,0.0,0.0,0.0,0.0,0.0,0.0,0.0,0.0,0.0,0.0,0.0,0.0,0.0,0.0,0.0,0.0,0.0,0.0,0.0,0.0,0.0,0.0,0.0,0.0,0.0,0.0,0.0,0.0,0.0,0.0,0.0,0.0,0.0,0.0,0.0,0.0,0.0,0.0,0.0,0.0,0.0,0.0,0.0,0.0,0.0,0.0,0.0,0.0,0.0,0.0,0.0,0.0,0.0,0.0,0.0,0.5411,0.2951,0.2548,0.1904,0.0517,0.0189,0.0,0.0,0.0,0.0,0.0,0.0,0.0,0.0,0.0,0.0,0.0,0.0,0.0,0.0,0.0,0.0,0.0,0.0,0.0,0.0,0.0,0.0,0.0,0.0,0.0,0.0,0.0,0.0,0.0,0.0,0.0,0.0,0.0,0.0,0.0,0.0,0.0,0.0,0.0,0.0,0.0,0.0,0.0,0.0,0.0,0.0,0.0,0.0,0.0,0.0,0.0,0.0,0.0,0.0,0.0,0.0,0.0,0.0,0.0,0.0,0.0,0.0,0.0,0.0,0.0,0.0,0.0,0.0,0.0,0.0,0.0,0.0,0.0,0.0,0.0,0.0,0.0,0.0,0.0,0.0,0.0,0.0,0.0,0.0,0.0,0.0,0.0,0.0,0.0,0.0,0.0,0.0,0.0,0.0,0.0,0.0,0.0,0.0,0.0,0.0,0.0,0.0,0.0,0.0,0.0,0.472,0.3412,0.2254,0.1516,0.0815,0.0064,0.0,0.0,0.0,0.0,0.0,0.0,0.0,0.0,0.0,0.0,0.0,0.0,0.0,0.0,0.0,0.0,0.0,0.0,0.0,0.0,0.0,0.0,0.0,0.0,0.0,0.0,0.0,0.0,0.0,0.0,0.0,0.0,0.0,0.0,0.0,0.0,0.0,0.0,0.0,0.0,0.0,0.0,0.0,0.0,0.0,0.0,0.0,0.0,0.0,0.0,0.0,0.0,0.0,0.0,0.0,0.0,0.0,0.0,0.0,0.0,0.0,0.0,0.0,0.0,0.0,0.0,0.0,0.0,0.0,0.0,0.0,0.0,0.0,0.0,0.0,0.0,0.0,0.0,0.0,0.0,0.0,0.0,0.0,0.0,0.0,0.0,0.0,0.0,0.0,0.0,0.0,0.0,0.0,0.0,0.0,0.0,0.0,0.0,0.0,0.0,0.0,0.0,0.0,0.0,0.0,0.0,0.2674,0.1919,0.1698,0.0664,0.0,0.0,0.0,0.0,0.0,0.0,0.0,0.0,0.0,0.0,0.0,0.0,0.0,0.0,0.0,0.0,0.0,0.0,0.0,0.0,0.0,0.0,0.0,0.0,0.0,0.0,0.0,0.0,0.0,0.0,0.0,0.0,0.0,0.0,0.0,0.0,0.0,0.0,0.0,0.0,0.0,0.0,0.0,0.0,0.0,0.0,0.0,0.0,0.0,0.0,0.0,0.0,0.0,0.0,0.0,0.0,0.0,0.0,0.0,0.0,0.0,0.0,0.0,0.0,0.0,0.0,0.0,0.0,0.0,0.0,0.0,0.0,0.0,0.0,0.0,0.0,0.0,0.0,0.0,0.0,0.0,0.0,0.0,0.0,0.0,0.0,0.0,0.0,0.0,0.0,0.0,0.0,0.0,0.0,0.0,0.0,0.0,0.0,0.0,0.0,0.0,0.0,0.0,0.0,0.0,0.0,0.0,0.0,0.2053,0.1505,0.0293,0.006,0.0,0.0,0.0,0.0,0.0,0.0,0.0,0.0,0.0,0.0,0.0,0.0,0.0,0.0,0.0,0.0,0.0,0.0,0.0,0.0,0.0,0.0,0.0,0.0,0.0,0.0,0.0,0.0,0.0,0.0,0.0,0.0,0.0,0.0,0.0,0.0,0.0,0.0,0.0,0.0,0.0,0.0,0.0,0.0,0.0,0.0,0.0,0.0,0.0,0.0,0.0,0.0,0.0,0.0,0.0,0.0,0.0,0.0,0.0,0.0,0.0,0.0,0.0,0.0,0.0,0.0,0.0,0.0,0.0,0.0,0.0,0.0,0.0,0.0,0.0,0.0,0.0,0.0,0.0,0.0,0.0,0.0,0.0,0.0,0.0,0.0,0.0,0.0,0.0,0.0,0.0,0.0,0.0,0.0,0.0,0.0,0.0,0.0,0.0,0.0,0.0,0.0,0.0,0.0,0.0,0.0,0.0,0.0,0.0752,0.0553,0.0,0.0,0.0,0.0,0.0,0.0,0.0,0.0,0.0,0.0,0.0,0.0,0.0,0.0,0.0,0.0,0.0,0.0,0.0,0.0,0.0,0.0,0.0,0.0,0.0,0.0,0.0,0.0,0.0,0.0,0.0,0.0,0.0,0.0,0.0,0.0,0.0,0.0,0.0,0.0,0.0,0.0,0.0,0.0,0.0,0.0,0.0,0.0,0.0,0.0,0.0,0.0,0.0,0.0,0.0,0.0,0.0,0.0,0.0,0.0,0.0,0.0,0.0,0.0,0.0,0.0,0.0,0.0,0.0,0.0,0.0,0.0,0.0,0.0,0.0,0.0,0.0,0.0,0.0,0.0,0.0,0.0,0.0,0.0,0.0,0.0,0.0,0.0,0.0,0.0,0.0,0.0,0.0,0.0,0.0,0.0,0.0,0.0,0.0,0.0,0.0,0.0,0.0,0.0,0.0,0.0,0.0,0.0,0.0,0.0104,0.0,0.0,0.0,0.0,0.0,0.0,0.0,0.0,0.0,0.0,0.0,0.0,0.0,0.0,0.0,0.0,0.0,0.0,0.0,0.0,0.0,0.0,0.0,0.0,0.0,0.0,0.0,0.0,0.0,0.0,0.0,0.0,0.0,0.0,0.0,0.0,0.0,0.0,0.0,0.0,0.0,0.0,0.0,0.0,0.0,0.0,0.0,0.0,0.0,0.0,0.0,0.0,0.0,0.0,0.0,0.0,0.0,0.0,0.0,0.0,0.0,0.0,0.0,0.0,0.0,0.0,0.0,0.0,0.0,0.0,0.0,0.0,0.0,0.0,0.0,0.0,0.0,0.0,0.0,0.0,0.0,0.0,0.0,0.0,0.0,0.0,0.0,0.0,0.0,0.0,0.0,0.0,0.0,0.0,0.0,0.0,0.0,0.0,0.0,0.0,0.0,0.0,0.0,0.0,0.0,0.0,0.0,0.0,0.0,0.0,0.0,0.0,0.0,0.0,0.0,0.0,0.0,0.0,0.0,0.0,0.0,0.0,0.0,0.0,0.0,0.0,0.0,0.0,0.0,0.0,0.0,0.0,0.0,0.0,0.0,0.0,0.0,0.0,0.0,0.0,0.0,0.0,0.0,0.0,0.0,0.0,0.0,0.0,0.0,0.0,0.0,0.0,0.0,0.0,0.0,0.0,0.0,0.0,0.0,0.0,0.0,0.0,0.0,0.0,0.0,0.0,0.0,0.0,0.0,0.0,0.0,0.0,0.0,0.0,0.0,0.0,0.0,0.0,0.0,0.0,0.0,0.0,0.0,0.0,0.0,0.0,0.0,0.0,0.0,0.0,0.0,0.0,0.0,0.0,0.0,0.0,0.0,0.0,0.0,0.0,0.0,0.0,0.0,0.0,0.0,0.0,0.0,0.0,0.0,0.0,0.0,0.0,0.0,0.0,0.0,0.0,0.0,0.0,0.0,0.0,0.0,0.0,0.0,0.0,0.0,0.0,0.0,0.0,0.0,0.0,0.0,0.0,0.0,0.0,0.0,0.0,0.0,0.0,0.0,0.0,0.0,0.0,0.0,0.0,0.0,0.0,0.0,0.0,0.0,0.0,0.0,0.0,0.0,0.0,0.0,0.0,0.0,0.0,0.0,0.0,0.0,0.0,0.0,0.0,0.0,0.0,0.0,0.0,0.0,0.0,0.0,0.0,0.0,0.0,0.0,0.0,0.0,0.0,0.0,0.0,0.0,0.0,0.0,0.0,0.0,0.0,0.0,0.0,0.0,0.0,0.0,0.0,0.0,0.0,0.0,0.0,0.0,0.0,0.0,0.0,0.0,0.0,0.0,0.0,0.0,0.0,0.0,0.0,0.0,0.0,0.0,0.0,0.0,0.0,0.0,0.0,0.0,0.0,0.0,0.0,0.0,0.0,0.0,0.0,0.0,0.0,0.0,0.0,0.0,0.0,0.0,0.0,0.0,0.0,0.0,0.0,0.0,0.0,0.0,0.0,0.0,0.0,0.0,0.0,0.0,0.0,0.0,0.0,0.0,0.0,0.0,0.0,0.0,0.0,0.0,0.0,0.0,0.0,0.0,0.0,0.0,0.0,0.0,0.0,0.0,0.0,0.0,0.0,0.0,0.0,0.0,0.0,0.0,0.0,0.0,0.0,0.0,0.0,0.0,0.0,0.0,0.0,0.0,0.0,0.0,0.0,0.0,0.0,0.0,0.0,0.0,0.0,0.0,0.0,0.0,0.0,0.0,0.0,0.0,0.0,0.0,0.0,0.0,0.0,0.0,0.0,0.0,0.0,0.0,0.0,0.0,0.0,0.0,0.0,0.0,0.0,0.0,0.0,0.0,0.0,0.0,0.0,0.0,0.0,0.0,0.0,0.0,0.0,0.0,0.0,0.0,0.0,0.0,0.0,0.0,0.0,0.0,0.0,0.0,0.0,0.0,0.0,0.0,0.0,0.0,0.0,0.0,0.0,0.0,0.0,0.0,0.0,0.0,0.0,0.0,0.0,0.0,0.0,0.0,0.0,0.0,0.0,0.0,0.0,0.0,0.0,0.0,0.0,0.0,0.0,0.0,0.0,0.0,0.0,0.0,0.0,0.0,0.0,0.0,0.0,0.0,0.0,0.0,0.0,0.0,0.0,0.0,0.0,0.0,0.0,0.0,0.0,0.0,0.0,0.0,0.0,0.0,0.0,0.0,0.0,0.0,0.0,0.0,0.0,0.0,0.0,0.0,0.0,0.0,0.0,0.0,0.0,0.0,0.0,0.0,0.0,0.0,1.0048,0.0,0.0,0.0,0.0,0.0,0.0,0.0,0.0,0.0,0.0,0.0,0.0,0.0,0.0,0.0,0.0,0.0,0.0,0.0,0.0,0.0,0.0,0.0,0.0,0.0,0.0,0.0,0.0,0.0,0.0,0.0,0.0,0.0,0.0,0.0,0.0,0.0,0.0,0.0,0.0,0.0,0.0,0.0,0.0,0.0,0.0,0.0,0.0,0.0,0.0,0.0,0.0,0.0,0.0,0.0,0.0,0.0,0.0,0.0,0.0,0.0,0.0,0.0,0.0,0.0,0.0,0.0,0.0,0.0,0.0,0.0,0.0,0.0,0.0,0.0,0.0,0.0,0.0,0.0,0.0,0.0,0.0,0.0,0.0,0.0,0.0,0.0,0.0,0.0,0.0,0.0,0.0,0.0,0.0,0.0,0.0,0.0,0.0,0.0,0.0,0.0,0.0,0.0,0.0,0.0,0.0,0.0,0.0,0.0,0.0,0.0,0.0,0.9629,0.0,0.0,0.0,0.0,0.0,0.0,0.0,0.0,0.0,0.0,0.0,0.0,0.0,0.0,0.0,0.0,0.0,0.0,0.0,0.0,0.0,0.0,0.0,0.0,0.0,0.0,0.0,0.0,0.0,0.0,0.0,0.0,0.0,0.0,0.0,0.0,0.0,0.0,0.0,0.0,0.0,0.0,0.0,0.0,0.0,0.0,0.0,0.0,0.0,0.0,0.0,0.0,0.0,0.0,0.0,0.0,0.0,0.0,0.0,0.0,0.0,0.0,0.0,0.0,0.0,0.0,0.0,0.0,0.0,0.0,0.0,0.0,0.0,0.0,0.0,0.0,0.0,0.0,0.0,0.0,0.0,0.0,0.0,0.0,0.0,0.0,0.0,0.0,0.0,0.0,0.0,0.0,0.0,0.0,0.0,0.0,0.0,0.0,0.0,0.0,0.0,0.0,0.0,0.0,0.0,1.2478,1.1057,1.0589,1.0327,1.0135,1.0046,0.9836,0.9549,0.0,0.0,0.0,0.0,0.0,0.0,0.0,0.0,0.0,0.0,0.0,0.0,0.0,0.0,0.0,0.0,0.0,0.0,0.0,0.0,0.0,0.0,0.0,0.0,0.0,0.7988,0.7988,0.0,0.0,0.0,0.0,0.0,0.0,0.0,0.0,0.0,0.0,0.0,0.0,0.0,0.0,0.0,0.0,0.0,0.0,0.0,0.0,0.0,0.0,0.0,0.0,0.0,0.0,0.0,0.0,0.0,0.0,0.0,0.0,0.0,0.0,0.0,0.0,0.0,0.0,0.0,0.0,0.0,0.0,0.0,0.0,0.0,0.0,0.0,0.0,0.0,0.0,0.0,0.0,0.0,0.0,0.0,0.0,2.4988,2.3209,0.0,0.0,0.0,0.0,0.0,0.0,0.0,0.0,0.0,0.0,0.0,0.0,0.0,0.0,1.5401,1.5811,1.5897,1.5674,1.4477,1.3773,1.3501,1.166,1.0782,1.0756,1.067,0.0,0.9549,0.9304,0.0,0.0,0.0,0.0,0.0,0.0,0.0,0.0,0.0,0.0,0.0,0.0,0.0,0.0,0.0,0.0,0.0,0.0,0.0,0.0,0.0,0.0,0.7185,0.7839,0.7988,0.7988,0.0,0.7083,0.6179,0.5827,0.0,0.0,0.0,0.0,0.0,0.0,0.0,0.0,0.0,0.0,0.0,0.0,0.0,0.0,0.0,0.0,0.0,0.0,0.0,0.0,0.0,0.0,0.0,0.0,0.0,0.0,0.0,0.0,0.0,0.0,0.0,0.0,0.0,0.0,0.0,0.0,0.0,0.0,0.0,0.0,0.0,0.0,0.0,0.0,0.0,0.0,0.0,0.0,0.0,0.0,0.0,2.546,2.4982,2.2825,2.2392,2.1391,0.0,0.0,0.0,0.0,0.0,0.0,0.0,0.0,0.0,1.7889,1.8349,1.8625,1.8655,1.9154,1.887,1.7818,1.7359,1.6026,1.3878,1.299,1.1965,1.0873,1.0785,1.0487,1.0093,0.9617,0.921,0.8755,0.0,0.0,0.0,0.0,0.0,0.5762,0.6042,0.0,0.0,0.0,0.0,0.0,0.0,0.0,0.0,0.0,0.0,0.0,0.0,0.0,0.0,0.7786,0.7988,0.7988,0.7988,0.7537,0.6883,0.0,0.4932,0.3581,0.2247,0.0,0.0,0.0,0.0,0.0,0.202,0.0891,0.0303,0.1058,0.0454,0.0,0.0,0.0,0.0,0.0,0.0,0.0,0.0,0.0668,0.0701,0.0,0.0,0.0,0.0,0.0,0.0,0.0,0.0,0.0,0.0,0.0,0.0,0.0,0.0,0.0,0.0,0.0,0.0,0.0,0.0,0.0,0.0,0.0,0.0,0.0,0.0,0.0,0.0,2.5955,2.5649,2.2722,2.3068,2.2242,0.0,0.0,0.0,0.0,0.0,0.0,1.8808,1.8885,1.9187,1.9745,2.0276,2.0819,2.1339,2.1746,2.1311,1.9893,1.9616,1.7971,1.5159,1.4356,1.311,1.1539,1.096,1.0694,1.0527,0.9979,0.9627,0.9351,0.8622,0.8242,0.814,0.7999,0.7451,0.6928,0.79,0.7656,0.6869,0.6756,0.0,0.5798,0.4721,0.0,0.0,0.0,0.0,0.4422,0.5774,0.0,0.6684,0.7739,0.7988,0.7988,0.7988,0.7739,0.7285,0.0,0.5713,0.46,0.3267,0.0,0.0,0.0,0.0,0.2666,0.373,0.2162,0.1353,0.2412,0.1611,0.1008,0.1008,0.1008,0.1008,0.1008,0.1008,0.1002,0.1037,0.1831,0.189,0.0978,0.0,0.0,0.0,0.0,0.0,0.0,0.0,0.0,0.0,0.0,0.0,0.0,0.0,0.0,0.0,0.0,0.0,0.0,0.0,0.0,0.0,0.0,0.0,0.0,0.0,0.0,0.0,0.0,0.0,2.3548,2.4928,0.0,0.0,0.0,0.0,1.9319,1.9351,1.9462,1.9702,2.0025,2.0437,2.1019,2.1374,2.1657,2.1957,2.1977,2.1918,2.1852,2.0044,1.9099,1.8814,1.5362,1.3641,1.3273,1.1607,1.0782,1.0683,1.0392,0.9906,0.937,0.9072,0.8702,0.8341,0.8143,0.8036,0.8039,0.8109,0.7968,0.7816,0.7883,0.7037,0.5955,0.5636,0.4818,0.0,0.0,0.5472,0.5824,0.7138,0.7497,0.7593,0.7942,0.7988,0.7988,0.7988,0.6983,0.6481,0.0,0.7832,0.7381,0.6017,0.0,0.542,0.4082,0.3793,0.3776,0.3945,0.3765,0.3695,0.3859,0.3815,0.3815,0.3815,0.3815,0.3815,0.3815,0.3815,0.3814,0.381,0.3728,0.3654,0.3602,0.3599,0.0,0.0,0.0,0.0,0.0,0.0,0.0,0.0,0.0,0.0,0.0,0.0,0.0,0.0,0.0,0.0,0.0,0.0,0.0,0.0,0.0,0.0,0.0,0.0,0.0,0.0,0.0,0.0,2.6404,2.6721,0.0,2.3004,2.1205,2.0287,2.0474,2.0699,2.0929,2.1221,2.1334,2.148,2.1693,2.1765,2.1884,2.1984,2.1984,2.1891,2.171,2.0073,1.9105,1.8652,1.6282,1.4463,1.3171,1.2414,1.144,1.0429,1.0324,1.0152,0.9965,0.9664,0.94,0.9153,0.9097,0.9018,0.8949,0.9045,0.8917,0.8677,0.8393,0.786,0.7259,0.6965,0.6634,0.6381,0.6581,0.6734,0.6989,0.7494,0.7746,0.7892,0.7992,0.7988,0.7988,0.7988,0.7637,0.7437,0.7889,0.7285,0.6517,0.5973,0.6521,0.6576,0.5232,0.4987,0.5277,0.6183,0.4897,0.4267,0.508,0.4485,0.4016,0.4016,0.4016,0.4016,0.4016,0.3924,0.3849,0.3849,0.4231,0.4189,0.3676,0.5115,0.5066,0.0,0.0,0.0,0.0,0.0,0.0,0.0,0.0,0.0,0.0,0.0,0.0,0.0,0.0,0.0,0.0,0.0,0.0,0.0,0.0,0.0,0.0,0.0,0.0,0.0,0.0,2.8804,2.6246,2.6865,2.6268,2.3027,2.1735,2.1196,2.139,2.1583,2.1784,2.1977,2.1984,2.1984,2.1984,2.1984,2.1984,2.1984,2.1891,2.169,2.1403,2.0372,1.9579,1.9016,1.7287,1.5801,1.458,1.3254,1.2087,1.1091,1.0531,1.0249,1.0181,0.9978,0.9839,0.9744,0.9646,0.9513,0.9374,0.9323,0.9174,0.894,0.854,0.8275,0.8059,0.7809,0.7746,0.7693,0.754,0.759,0.7746,0.7746,0.7892,0.7988,0.7988,0.7988,0.7988,0.7988,0.7948,0.7914,0.7914,0.7251,0.6616,0.65,0.714,0.7335,0.6398,0.6221,0.6543,0.7496,0.6173,0.5465,0.6395,0.5772,0.5282,0.5366,0.537,0.5354,0.5271,0.521,0.516,0.5131,0.5484,0.543,0.497,0.6364,0.6317,0.4773,0.0,0.0,0.0,0.0,0.0,0.0,0.0,0.0,0.0,0.0,0.0,0.0,0.0,0.0,0.0,0.0,0.0,0.0,0.0,0.0,0.0,0.0,0.0,2.4482,2.7903,2.8507,2.3076,2.5598,2.6015,2.1694,2.1748,2.2004,2.1997,2.1997,2.1997,2.1984,2.1984,2.1984,2.1971,2.1971,2.1964,2.1944,2.1728,2.1376,2.1082,2.0733,2.0446,2.0113,1.8417,1.7602,1.7418,1.4241,1.275,1.2561,1.1009,1.0234,0.9974,0.9977,0.9977,0.9936,0.971,0.9503,0.9303,0.8855,0.8699,0.8648,0.8364,0.832,0.8235,0.8035,0.7988,0.7988,0.7988,0.7988,0.7988,0.7988,0.7988,0.7988,0.7988,0.7988,0.7988,0.7985,0.7916,0.7811,0.7804,0.7923,0.7928,0.7824,0.7797,0.775,0.7614,0.7465,0.0,0.7573,0.7468,0.7489,0.7773,0.7811,0.7872,0.7978,0.7985,0.7921,0.7821,0.7801,0.7736,0.7695,0.7491,0.7454,0.7591,0.726,0.7114,0.7114,0.0,0.0,0.0,0.0,0.0,0.0,0.0,0.0,0.0,0.0,0.0,0.0,0.0,0.0,0.0,0.0,0.0,0.0,0.0,0.0,0.0,0.0,2.7478,2.7342,2.9136,2.9874,2.821,2.8064,2.7218,2.5011,2.3512,2.2532,2.2311,2.2298,2.2211,2.1997,2.1984,2.1891,2.1742,2.1735,2.1534,2.1042,2.0955,2.0768,2.0413,1.9074,1.906,2.0106,1.8161,1.7334,1.7383,1.6286,1.447,1.2296,1.1744,1.0835,0.9741,0.9842,0.9822,0.9707,0.9513,0.9283,0.9011,0.8665,0.8479,0.8377,0.8347,0.8194,0.8096,0.8002,0.7988,0.7988,0.7988,0.7988,0.7988,0.7988,0.7988,0.7988,0.7988,0.7988,0.7961,0.7896,0.7841,0.778,0.7678,0.7692,0.7672,0.7519,0.7492,0.7478,0.7441,0.0,0.0,0.7431,0.7495,0.7567,0.7648,0.775,0.7872,0.7978,0.7887,0.7858,0.0,0.7611,0.7521,0.7484,0.7285,0.72,0.7232,0.7162,0.7113,0.0,0.0,0.0,0.0,0.0,0.0,0.0,0.0,0.0,0.0,0.0,0.0,0.0,0.0,0.0,0.0,0.0,0.0,0.0,0.0,0.0,0.0,2.7571,2.8705,2.9143,3.0199,3.0613,2.975,2.852,2.7148,2.5575,2.3644,2.2425,2.2251,2.2124,2.1984,2.181,2.169,2.1543,2.137,2.1249,2.1022,2.0681,2.0555,2.0341,1.9993,1.8997,1.9,1.9807,1.8661,1.8164,0.0,1.7332,1.5842,1.3912,1.256,1.1364,0.0,0.0,0.0,0.0,0.0,0.9005,0.8713,0.8476,0.834,0.831,0.8194,0.8113,0.7988,0.7988,0.7988,0.7988,0.7988,0.7988,0.7988,0.7988,0.7988,0.7975,0.7911,0.7894,0.7902,0.7753,0.7672,0.76,0.7519,0.0,0.0,0.7288,0.7329,0.735,0.7285,0.7275,0.7275,0.0,0.7353,0.7431,0.7499,0.7577,0.7689,0.7841,0.7773,0.0,0.0,0.0,0.7343,0.7278,0.7142,0.0,0.0,0.0,0.6967,0.0,0.0,0.0,0.0,0.6121,0.6381,0.0,0.0,0.0,0.0,0.0,0.0,0.0,0.0,0.0,0.0,0.0,0.0,0.0,0.0,0.0,0.0,2.8447,2.9277,3.0078,3.083,3.0665,2.9064,2.7994,2.6582,2.4603,2.3138,2.2161,2.1937,2.1762,2.1601,2.1568,0.0,0.0,0.0,0.0,2.0608,2.0581,2.0314,2.004,1.9746,1.9746,1.9599,1.9319,1.9319,1.9299,1.9208,1.7772,1.6924,1.6241,1.3553,1.2045,1.131,0.9896,0.932,0.9269,0.8974,0.8689,0.0,0.0,0.0,0.0,0.8032,0.7988,0.7988,0.7988,0.7988,0.7988,0.7988,0.7988,0.7985,0.7968,0.7965,0.7928,0.7824,0.7787,0.7746,0.7604,0.7468,0.7412,0.7395,0.7234,0.7095,0.7095,0.7255,0.7299,0.7119,0.7095,0.0,0.7095,0.7095,0.72,0.7402,0.0,0.0,0.7587,0.7584,0.7516,0.7426,0.7402,0.7285,0.7102,0.7095,0.7088,0.7119,0.6861,0.6861,0.7115,0.7088,0.7095,0.7095,0.6915,0.6936,0.0,0.0,0.0,0.0,0.0,0.0,0.0,0.0,0.0,0.0,0.0,0.0,0.0,0.0,0.0,2.8066,2.8887,2.9619,3.0127,3.0049,2.9671,2.8965,2.8986,2.7823,2.4724,2.4092,2.3285,2.178,2.1648,2.145,2.1209,2.0922,0.0,2.0762,2.0474,2.0207,1.9973,1.9913,1.974,1.9511,0.0,0.0,1.9011,1.9011,1.8885,1.8657,1.8371,1.7416,1.6139,1.5422,1.3588,1.1049,0.9572,0.8947,0.8804,0.8509,0.8364,0.8289,0.8136,0.8032,0.8029,0.7998,0.7988,0.7988,0.7988,0.7988,0.0,0.7988,0.7988,0.7961,0.7885,0.7855,0.7821,0.7675,0.7641,0.76,0.7448,0.7439,0.7333,0.721,0.7119,0.7095,0.7095,0.7122,0.7129,0.7102,0.7095,0.7095,0.7095,0.7095,0.72,0.7402,0.7415,0.7434,0.7587,0.7489,0.745,0.7419,0.7255,0.7129,0.7098,0.7095,0.7088,0.7106,0.7038,0.7041,0.7102,0.7085,0.7095,0.7095,0.7051,0.7064,0.0,0.0,0.0,0.0,0.0,0.0,0.0,0.0,0.0,0.0,0.0,2.8653,0.0,0.0,2.8665,2.9505,2.9436,2.9394,2.9824,2.9707,2.959,2.9536,2.9025,2.8052,2.6575,2.4921,2.3613,2.2652,2.1696,2.1049,2.0902,2.0615,2.0454,2.0454,2.0167,1.9947,1.98,1.9659,1.9512,1.9424,1.9219,1.9065,1.8918,1.8771,1.8631,1.849,1.849,1.7949,1.6992,1.5911,1.4056,1.1854,1.0917,0.9746,0.857,0.835,0.8221,0.8143,0.8015,0.7988,0.7988,0.7988,0.7988,0.7988,0.7988,0.7988,0.7975,0.7897,0.7877,0.7892,0.7743,0.7706,0.7668,0.7519,0.7485,0.7444,0.7288,0.7255,0.721,0.7018,0.6991,0.6967,0.6889,0.73,0.7493,0.7064,0.6927,0.6906,0.698,0.6991,0.7048,0.7241,0.7255,0.7288,0.7363,0.7299,0.7255,0.7255,0.7139,0.7095,0.7095,0.7095,0.7109,0.7081,0.7034,0.7,0.7018,0.6926,0.6919,0.6919,0.6922,0.6997,0.0,0.0,0.0,0.0,0.0,0.0,0.0,0.0,2.9376,2.98,3.0285,3.0799,3.1329,3.0542,3.0064,3.0884,3.0069,2.9362,2.945,2.9375,2.9482,2.9893,2.8907,2.8168,2.8264,2.5954,2.4293,2.4054,2.2298,2.1163,2.1163,2.0517,2.0147,2.0147,1.9867,1.9686,1.9633,1.9399,1.9252,1.9199,1.8958,1.8804,1.8744,1.851,1.837,1.8317,1.8317,1.815,1.7722,1.6122,1.4538,1.3091,1.2729,1.1217,0.919,0.9035,0.889,0.8775,0.8775,0.8775,0.8775,0.8775,0.8577,0.8375,0.8347,0.8192,0.7914,0.7814,0.777,0.7736,0.7594,0.7556,0.7562,0.7678,0.7663,0.7606,0.7691,0.7636,0.7577,0.7453,0.7427,0.7429,0.7296,0.793,0.8176,0.7278,0.707,0.7114,0.7412,0.7119,0.7016,0.7304,0.721,0.7095,0.7095,0.7071,0.7051,0.7088,0.7253,0.737,0.7433,0.7541,0.7584,0.7614,0.7489,0.7346,0.7137,0.7048,0.6905,0.6702,0.6743,0.6852,3.2232,3.1415,3.1068,3.1705,3.1344,3.1161,0.0,0.0,3.3366,3.3427,3.3481,3.3389,3.3049,3.2703,3.2222,3.1148,3.0861,3.0358,2.9139,2.8672,2.8594,2.9014,2.9228,2.8994,2.7984,2.7552,2.6908,2.5838,2.3917,2.2837,2.2837,2.0909,1.9846,1.9846,1.9566,1.9285,1.9025,1.8991,1.8844,1.8591,1.8557,1.8404,1.8089,1.8055,1.7943,1.7682,1.7682,1.7515,1.7248,1.7071,1.5946,1.4361,1.4167,1.3126,1.1778,1.157,1.1482,1.1458,1.1458,1.1458,1.1458,1.1458,1.0681,0.9772,0.9654,0.8746,0.7807,0.7662,0.7624,0.759,0.7438,0.7443,0.7629,0.8528,0.8494,0.8585,0.9611,0.9622,0.9401,0.9382,0.9377,0.9368,0.9349,0.9343,0.9056,0.8168,0.8057,0.8377,0.925,0.7926,0.7229,0.8176,0.7581,0.7095,0.7095,0.698,0.6979,0.7112,0.7705,0.8263,0.8682,0.9169,0.9415,0.9406,0.9387,0.8928,0.8073,0.8053,0.7555,0.6702,0.6702,0.6725,3.3577,3.2739,3.2364,0.0,3.2541,3.2436,3.3768,3.3776,3.3669,3.4259,3.4422,3.4428,3.4513,3.3837,3.322,0.0,3.2299,3.1268,2.9937,2.9572,2.9225,2.8633,2.8711,2.8862,2.8842,2.7967,2.7205,2.6705,2.4851,2.3426,2.249,2.1416,2.0361,1.9292,1.9172,1.8971,1.8677,1.8671,1.8611,1.849,1.8317,1.8115,1.7982,1.7856,1.7702,1.7569,1.7454,1.7313,1.7172,1.6831,1.6262,1.5568,1.5282,1.4824,1.4079,1.2467,1.1896,1.1896,1.1896,1.1896,1.1896,1.1896,1.1556,1.1079,1.0862,1.0416,0.988,0.9543,0.9462,0.9418,0.9313,0.9135,0.9122,0.9553,0.9419,0.9307,0.9802,0.981,0.9671,0.9617,0.9592,0.9553,0.9477,0.9907,1.0138,0.9777,0.9213,0.9026,0.9498,0.8913,0.8606,0.9092,0.8844,0.8598,0.8598,0.8572,0.8429,0.8147,0.8717,0.931,0.9882,0.9757,0.9712,0.9705,0.9622,0.9393,0.896,0.8883,0.8636,0.8208,0.8208,0.7892,3.4559,3.3818,0.0,3.3768,3.3687,3.3753,3.482,3.451,3.4201,3.4971,3.4925,3.4806,3.5194,3.4603,3.4042,3.4149,3.3421,3.2392,3.1019,3.0514,2.9964,2.8953,2.8548,2.8535,2.916,2.822,2.7647,2.7757,2.6009,2.448,2.3385,2.2606,2.1594,2.0316,2.0118,1.9926,1.9669,1.9207,1.8905,1.8823,1.8178,1.7862,1.7856,1.7602,1.7514,1.7442,1.7206,1.7032,1.6924,1.6496,1.6274,1.6126,1.5912,1.5784,1.5581,1.3692,1.2969,1.2969,1.2969,1.2969,1.2969,1.2969,1.2678,1.2289,1.2052,1.1651,1.119,1.0756,1.0631,1.0581,1.0399,1.0228,1.0149,1.0481,1.0304,1.0138,1.0498,1.0484,1.0387,1.0285,1.0253,1.0242,1.0154,1.072,1.1199,1.1199,1.0608,1.0143,1.0275,1.0041,0.9853,0.9726,0.9705,0.9705,0.9705,0.952,0.9306,0.9117,0.9572,1.0248,1.1044,1.0655,1.0441,1.0441,1.0307,1.0137,0.9867,0.9748,0.9561,0.9296,0.9296,0.8917,3.4902,3.4337,3.3899,3.4427,3.4892,3.5363,3.5917,3.6137,3.6222,3.6249,3.5436,3.468,3.4705,3.5132,3.5006,3.3744,3.3992,3.3871,3.2443,3.1122,3.0266,3.0214,2.9102,2.8301,0.0,2.8647,2.9056,2.9475,2.7735,2.6603,2.6547,2.4756,2.371,2.3638,2.3255,2.2904,2.2589,2.0879,1.9873,1.9554,1.8213,1.7595,1.7589,1.7347,1.7213,1.7199,1.6847,1.656,1.6348,1.6328,1.6106,1.5791,1.5784,1.5784,1.5778,1.573,1.5683,1.5683,1.5683,1.5683,1.5683,1.5683,1.4625,1.331,1.3209,1.2046,1.0741,1.0344,1.0218,1.0126,0.9825,0.972,0.9999,1.1175,1.1179,1.1266,1.2446,1.245,1.2214,1.2207,1.2238,1.2201,1.2224,1.2224,1.2261,1.2261,1.2224,1.2194,1.2201,1.1487,1.0645,0.9807,0.9705,0.9705,0.9705,0.9042,0.8935,0.9617,1.0052,1.0858,1.2177,1.2214,1.2214,1.2214,1.2207,1.1744,1.0757,1.0752,1.0265,0.9296,0.9296,0.9296,3.5864,3.5317,3.4915,3.5663,3.5443,3.5283,3.6264,3.5698,3.4914,3.4639,3.3962,3.3363,3.3109,3.3822,3.4427,3.4308,3.5075,3.5271,3.3871,3.3604,3.2763,3.0557,3.0233,0.0,0.0,0.0,0.0,2.8711,2.8141,2.7321,2.6363,2.567,2.4651,2.312,2.2934,2.258,2.2022,2.1436,2.111,2.099,2.0531,2.0158,1.9833,1.8941,1.8333,1.8017,1.6936,1.6359,1.6259,1.6059,1.5919,1.5784,1.5784,1.5784,1.5784,1.5784,1.5784,1.5784,1.5784,1.5784,1.5751,1.5605,1.5186,1.4641,1.418,1.3699,1.3193,1.2881,1.2642,1.2441,1.2314,1.2016,1.1864,1.226,1.212,1.1952,1.2377,1.2371,1.2305,1.2305,1.2305,1.2305,1.2305,1.2305,1.2305,1.2305,1.2305,1.2305,1.2305,1.2044,1.1759,1.1467,1.1435,1.1435,1.1435,1.1187,1.1158,1.1421,1.1285,1.1563,1.2254,1.2118,1.2011,1.2011,1.2204,1.1923,1.1211,1.1589,1.143,1.0687,1.0906,1.0563,3.6492,3.6102,3.5761,3.6079,3.5798,3.5671,3.6451,3.5709,3.478,3.4533,3.3591,3.2712,3.247,3.2908,3.342,3.3771,3.4555,3.4947,3.4554,3.4306,3.3566,3.1938,3.1345,3.0514,0.0,0.0,0.0,2.8301,2.8291,2.7897,2.6943,2.6749,2.5997,2.4509,2.4175,2.3797,2.3388,2.2736,2.2088,2.1453,2.1321,2.109,2.0761,1.9864,1.93,1.8931,1.7886,1.7421,1.7406,1.7203,1.7109,1.7109,1.7109,1.6998,1.685,1.6439,1.619,1.6021,1.5772,1.5671,1.5625,1.5337,1.517,1.501,1.4636,1.4449,1.4302,1.4008,1.3714,1.342,1.3353,1.2953,1.2623,1.2623,1.2445,1.2305,1.2305,1.2305,1.2305,1.2305,1.2305,1.2409,1.2732,1.3091,1.3266,1.3114,1.31,1.2891,1.2358,1.2305,1.2305,1.2305,1.2305,1.2305,1.2305,1.2305,1.2305,1.2305,1.2045,1.2025,1.2291,1.2024,1.1906,1.1906,1.2051,1.1911,1.1389,1.1911,1.1897,1.1395,1.1623,1.1248,3.6873,3.6661,3.6446,3.5718,3.6001,3.6432,3.6432,3.6133,3.5856,3.582,3.4221,3.2816,0.0,0.0,3.2269,3.2252,3.2634,3.3377,3.4605,3.3562,3.3078,0.0,0.0,0.0,0.0,0.0,0.0,2.8427,0.0,2.8291,2.8291,2.7891,2.7708,2.7679,2.6826,2.6377,2.6357,2.4628,2.2897,2.1172,2.0783,2.0609,2.0585,2.0182,1.997,1.9929,1.9637,1.9497,1.9497,1.9497,1.948,1.9464,1.9464,1.9196,1.8653,1.7626,1.7033,1.6551,1.5791,1.5495,1.5416,1.521,1.4926,1.4639,1.4613,1.446,1.4189,1.3844,1.3548,1.329,1.3031,1.2719,1.2445,1.2445,1.2445,1.2445,1.2445,1.2445,1.2445,1.2445,1.2432,1.2718,1.3629,1.4526,1.4998,1.4565,1.4465,1.3956,1.2576,1.2361,1.2361,1.2361,1.2361,1.2361,1.2361,1.2361,1.2361,1.2361,1.2384,1.2391,1.2405,1.2121,1.1965,1.1965,1.1979,1.183,1.1478,1.183,1.1823,1.1478,1.1492,1.1492,3.823,3.7395,3.6554,3.6368,3.6048,3.5744,3.5744,3.5666,3.5354,3.4525,3.3889,3.309,0.0,0.0,0.0,3.2907,3.3978,0.0,3.5843,3.5986,0.0,3.4544,0.0,3.3531,3.192,3.1578,0.0,0.0,2.8847,2.8291,2.8291,2.7891,2.7519,2.7197,2.666,2.623,2.5859,2.5102,2.4317,2.3505,2.3448,2.3205,2.2906,2.1914,2.1278,2.0896,1.994,1.9497,1.9497,1.9497,1.9286,1.8994,1.8994,1.8737,1.833,1.8069,1.7882,1.7743,1.7325,1.6783,1.6359,1.6903,1.704,1.6867,1.6294,1.6304,1.6407,1.6014,1.5662,1.5411,1.5363,1.4898,1.445,1.445,1.445,1.445,1.445,1.445,1.445,1.445,1.4167,1.4143,1.4724,1.4476,1.4285,1.4457,1.4252,1.3921,1.3543,1.3483,1.3483,1.3483,1.3483,1.34,1.3157,1.3116,1.3241,1.3483,1.3441,1.3534,1.3836,1.3306,1.3004,1.3004,1.3261,1.3131,1.2594,1.3131,1.3115,1.2602,1.2788,1.2772,3.8854,3.8213,3.7526,3.7203,3.6554,3.5975,3.5975,3.5445,3.4735,3.4101,3.3619,3.2958,3.1845,3.2215,0.0,0.0,0.0,0.0,3.5491,3.5859,3.5814,0.0,3.5171,0.0,3.335,3.2847,3.2221,0.0,2.9911,2.882,2.808,2.7617,2.7187,2.6758,2.6328,2.5889,2.5449,2.4814,2.4385,2.4141,2.3945,2.3686,2.3461,2.2773,2.2363,2.2031,0.0,2.1087,2.1078,2.09,2.0659,2.0402,2.0233,1.9889,1.9459,1.8988,1.8709,1.8546,1.8374,1.802,1.7652,1.7589,1.745,1.7269,1.7055,1.6858,1.672,1.6711,1.6316,1.5951,1.5951,1.5576,1.5199,1.5199,1.5199,1.5199,1.5199,1.5199,1.5199,1.5199,1.5144,1.5189,1.5472,1.5302,1.5154,1.5189,1.5012,1.4785,1.4577,1.4175,1.3892,1.3892,1.3892,1.3768,1.3415,1.3686,1.3925,1.4123,1.4088,1.4104,1.4164,1.3687,1.341,1.341,1.3582,1.3443,1.3009,1.3443,1.3466,1.3009,1.3153,1.3137,3.9209,3.8989,3.8745,3.8121,3.7352,3.6706,3.6522,3.5399,3.4317,3.4085,3.33,3.262,3.2571,3.2182,3.2094,3.2698,0.0,3.297,3.4756,3.484,3.5119,3.6345,3.571,3.5071,3.4726,3.385,3.3118,3.2514,3.1327,2.9889,2.8281,2.7536,2.685,2.623,2.5927,2.5581,2.5127,2.4251,2.3849,2.3915,2.3355,2.3091,2.3091,2.3091,2.3091,2.3091,0.0,0.0,2.3062,2.2701,2.2529,2.2393,2.2031,2.1582,2.1023,2.009,1.946,1.9122,1.9122,1.9085,1.8891,1.7934,1.7403,1.7167,1.7411,1.6971,1.6514,1.6867,1.648,1.5984,1.5984,1.5787,1.5552,1.5552,1.5552,1.5552,1.5552,1.5518,1.5484,1.5484,1.5718,1.5927,1.599,1.6302,1.6445,1.6144,1.6046,1.587,1.5459,1.4653,1.4104,1.4104,1.4104,1.3982,1.3705,1.4186,1.4538,1.4538,1.4538,1.4382,1.4104,1.3827,1.3683,1.3683,1.3683,1.3563,1.3312,1.3563,1.3554,1.3312,1.3312,1.3312,3.9927,3.9411,3.8881,3.8745,3.8161,3.7268,3.6052,3.5566,0.0,0.0,3.3071,3.282,3.2419,3.2647,3.3087,3.3813,3.4273,3.5076,3.6553,3.6358,3.6307,0.0,3.6518,3.6113,0.0,0.0,0.0,0.0,0.0,0.0,3.0899,2.9024,2.7199,2.537,2.5787,2.5819,2.5354,2.4341,2.4072,2.4624,2.359,2.3091,2.3091,2.3091,2.3091,2.3091,0.0,0.0,2.3091,2.3013,2.2617,2.1992,2.1914,2.1387,2.0684,2.0517,2.0159,1.9754,1.9754,1.9533,1.9264,1.9402,1.9383,1.9212,1.8559,1.8548,1.8653,1.8341,1.8197,1.8083,1.8083,1.778,1.751,1.751,1.751,1.751,1.751,1.7244,1.7007,1.7007,1.6507,1.6169,1.6504,1.604,1.5732,1.6046,1.5782,1.5498,1.542,1.5243,1.5141,1.5141,1.5141,1.5111,1.5062,1.515,1.5219,1.5219,1.5219,1.519,1.5141,1.5075,1.5037,1.5037,1.5037,1.5028,1.4991,1.5028,1.5028,1.4991,1.4991,1.4991,4.0096,3.9808,3.9516,3.9516,3.8951,3.8012,3.6537,0.0,0.0,3.3405,3.2738,3.2501,3.2961,3.3061,0.0,3.4395,3.4794,3.5321,3.6385,3.6365,0.0,3.6742,3.6568,0.0,0.0,0.0,0.0,0.0,0.0,0.0,3.039,2.8779,2.75,2.6473,2.6546,2.6498,2.6314,2.5561,2.537,2.5672,2.5136,2.4851,2.4851,2.4851,2.4851,2.4851,2.4851,0.0,2.4378,2.4189,2.3696,2.3066,2.2814,2.2177,2.1336,2.1336,2.0871,2.0225,1.999,1.9785,1.9644,1.9851,1.9591,1.9173,1.9033,1.8809,1.8623,1.8598,1.8442,1.8276,1.8276,1.813,1.8008,1.8008,1.8008,1.8008,1.8008,1.7852,1.7646,1.7422,1.6855,1.653,1.69,1.6395,1.6194,1.6804,1.6693,1.6546,1.6546,1.6546,1.6244,1.5497,1.541,1.541,1.541,1.541,1.541,1.541,1.541,1.541,1.541,1.541,1.541,1.541,1.541,1.541,1.541,1.541,1.541,1.541,1.541,1.541,4.0096,4.0096,4.0096,4.0096,3.9636,3.8747,3.7145,3.57,0.0,3.3442,3.2419,3.2099,3.3457,3.3322,3.3431,0.0,3.4848,3.5196,3.6296,3.6249,3.6287,0.0,3.6609,0.0,0.0,0.0,0.0,0.0,0.0,0.0,2.9387,2.868,2.8105,2.7576,2.7406,2.7326,2.7326,2.6787,2.6637,2.6842,2.6595,2.6524,2.6524,2.6524,2.6416,2.6315,2.6315,0.0,0.0,2.5072,2.4675,2.4145,2.3791,2.3124,2.2328,2.2328,2.1734,2.0861,2.0471,2.0219,2.0056,2.0065,1.9531,1.8988,1.945,1.9107,1.8633,1.8942,1.8791,1.8563,1.8563,1.8563,1.8563,1.8563,1.8563,1.8563,1.8563,1.8482,1.8281,1.7857,1.7404,1.7134,1.7256,1.6981,1.6922,1.7523,1.7605,1.7605,1.7605,1.7605,1.7174,1.6009,1.5796,1.5718,1.5719,1.5912,1.6048,1.6048,1.5931,1.5853,1.5853,1.5853,1.5853,1.5853,1.5853,1.5853,1.5853,1.5853,1.5853,1.5853,1.5853,1.5853,4.0096,4.0096,4.0096,4.0096,4.0045,3.9412,3.7211,0.0,3.5185,3.3453,3.2179,3.1841,3.3416,3.3153,3.3196,3.468,3.4878,3.5668,3.7954,3.6893,3.6622,3.8424,0.0,0.0,0.0,0.0,0.0,0.0,0.0,0.0,0.0,3.0053,2.9357,2.7214,2.7696,2.7995,2.7995,2.7028,2.7005,2.7924,2.6964,2.6524,2.6524,2.6524,2.6185,2.5657,0.0,0.0,0.0,2.4848,2.4586,2.4189,2.4145,2.3806,2.3368,2.3368,2.2728,2.1858,2.1814,2.1262,2.0554,2.053,2.0203,1.9873,2.0325,2.0432,2.0376,2.0421,2.0399,2.0365,2.0365,2.0365,2.0365,2.0365,2.0365,2.0365,2.0365,2.0042,1.9587,1.9039,1.8611,1.8162,1.7651,1.7529,1.7523,1.7578,1.7605,1.7605,1.7605,1.7605,1.7551,1.7405,1.7019,1.6772,1.6771,1.7612,1.8118,1.8118,1.7667,1.7413,1.7413,1.7413,1.7413,1.7413,1.7413,1.7413,1.7413,1.7413,1.7413,1.7413,1.7413,1.7413,4.0096,4.0096,4.0096,4.0096,4.0037,3.9521,3.7708,0.0,3.6501,3.5326,3.3986,3.3472,3.4931,3.4152,3.3613,3.4612,3.4772,3.5138,3.6175,3.585,3.613,0.0,0.0,0.0,0.0,0.0,0.0,0.0,0.0,0.0,0.0,2.9982,2.97,2.8763,2.898,2.9106,2.9106,2.8712,2.87,2.9106,2.87,2.8502,2.845,2.8126,2.781,2.7582,0.0,0.0,0.0,2.6296,2.6033,2.5588,2.5588,2.4909,2.392,2.392,2.3073,2.1899,2.1632,2.1274,2.1004,2.1299,2.127,2.1031,2.0711,2.059,2.059,2.059,2.059,2.059,2.059,2.059,2.059,2.059,2.0323,2.0158,2.0523,2.0156,1.9622,1.9171,1.8984,1.8747,1.8344,1.8259,1.8421,1.8859,1.8927,1.8927,1.8927,1.8927,1.8924,1.8917,1.7955,1.7311,1.7323,1.7691,1.7907,1.7927,1.7722,1.7605,1.7605,1.7605,1.7605,1.7605,1.7605,1.7605,1.7605,1.7605,1.7605,1.7605,1.7605,1.7605,4.0096,4.0096,4.0096,4.0096,3.9986,3.9554,0.0,0.0,3.7335,3.6754,3.5545,3.4887,3.6013,3.5067,3.4283,3.4647,3.4698,3.4849,3.5329,3.5243,3.5679,0.0,0.0,0.0,0.0,0.0,0.0,0.0,0.0,0.0,0.0,3.0633,3.0355,2.983,2.9792,2.9792,2.9792,2.9792,2.9792,2.9792,2.9792,2.9704,2.9528,2.9076,2.8712,0.0,0.0,0.0,0.0,2.7065,2.6751,2.6235,2.6235,2.5478,2.4391,2.4391,2.3593,2.2463,2.2138,2.1906,2.1818,2.2152,2.2249,2.2125,2.1522,2.1353,2.1353,2.1353,2.1353,2.1252,2.095,2.109,2.1252,2.0939,2.0665,2.053,2.0792,2.0518,2.0102,1.9663,1.957,1.9462,1.9083,1.9044,1.9202,1.9721,1.9978,2.0105,2.0105,2.0246,2.0347,2.0347,1.9427,1.8665,1.8272,1.8245,1.8239,1.8248,1.8259,1.8259,1.8259,1.8259,1.8259,1.8259,1.8259,1.8259,1.8259,1.8259,1.8259,1.8259,1.8259,1.8259,4.0096,4.0096,4.0096,4.0096,3.9986,3.9673,3.8799,3.8008,3.7443,3.7242,3.6238,3.5556,3.6091,3.563,3.5076,3.4747,3.4698,3.5136,3.638,3.5609,0.0,0.0,0.0,0.0,0.0,0.0,0.0,0.0,0.0,0.0,0.0,0.0,3.1719,2.9869,2.9792,2.9792,2.9792,2.9792,2.9792,2.9792,2.9792,2.949,2.89,2.8888,0.0,0.0,0.0,0.0,0.0,2.6499,2.616,2.5598,2.5598,2.5297,2.48,2.48,2.4449,2.3973,2.396,2.3597,2.3078,2.3078,2.3078,2.3078,2.3078,2.3078,2.3078,2.3078,2.3078,2.2815,2.1754,2.228,2.2802,2.1741,2.1892,2.213,2.1591,2.1493,2.133,2.0778,2.0677,2.0489,1.9899,1.9798,1.9798,1.9798,2.0346,2.0795,2.0795,2.1301,2.1678,2.1678,2.1654,2.1154,1.9888,1.9773,1.9773,1.9773,1.9773,1.9773,1.9773,1.9773,1.9773,1.9773,1.9773,1.9773,1.9773,1.9773,1.9773,1.9773,1.9773,1.9773,4.0096,4.0096,4.0096,4.0096,3.9935,3.9705,3.9402,3.9039,3.8704,3.865,3.7975,3.7436,3.7597,3.6688,3.5857,3.5721,3.5133,3.4844,0.0,0.0,0.0,0.0,0.0,0.0,0.0,0.0,0.0,0.0,0.0,0.0,0.0,0.0,3.2321,3.1719,3.1719,3.1495,3.1021,3.1021,3.0784,3.0361,3.0361,3.0254,3.0054,2.9688,0.0,0.0,0.0,0.0,0.0,2.7028,2.6747,2.6573,2.6573,2.6226,2.5775,2.5775,2.5429,2.4962,2.4962,2.4518,2.3981,2.3981,2.3686,2.3298,2.3298,2.3207,2.311,2.3219,2.2646,2.2135,2.2601,2.2687,2.2648,2.2702,2.2261,2.2007,2.2658,2.2154,2.1655,2.1936,2.2011,2.181,2.1193,2.111,2.111,2.111,2.128,2.142,2.1412,2.1585,2.1694,2.1694,2.1694,2.1549,2.1125,2.1102,2.0928,2.0497,2.0879,2.0706,1.985,1.9885,1.9884,1.9786,1.9447,1.9421,1.9798,1.9798,1.9798,1.9798,1.9798,1.9798,4.0146,4.0096,4.0096,4.0096,3.991,0.0,3.9703,3.9494,3.9299,3.9299,3.8969,3.859,3.8351,3.7589,3.6814,3.629,3.5671,3.5222,0.0,0.0,0.0,0.0,0.0,0.0,0.0,0.0,0.0,0.0,0.0,0.0,0.0,0.0,3.3571,3.3314,3.2612,3.2012,3.1592,3.1337,3.1,3.0596,3.0596,3.0486,3.0272,0.0,0.0,0.0,0.0,0.0,0.0,2.7154,2.688,2.6717,2.6717,2.6359,2.588,2.5604,2.5453,2.537,2.5094,2.4749,2.4391,2.4391,2.3939,2.3393,2.3393,2.3312,2.3178,2.3084,2.263,2.2296,2.2618,2.2724,2.2751,2.2723,2.2322,2.2115,2.2654,2.2169,2.1749,2.2168,2.2266,2.2142,2.1766,2.1697,2.1697,2.1697,2.1922,2.2077,2.2092,2.2285,2.2427,2.2427,2.2427,2.2427,2.2427,2.1978,2.1544,2.1161,2.1281,2.1003,2.0208,2.0006,1.9884,1.9785,1.9473,1.9588,2.0196,2.0416,2.0521,2.0521,2.0521,2.0521,0.0,4.0121,4.0096,4.0096,3.991,3.9703,3.9703,3.9494,0.0,3.9299,3.9299,3.9121,3.8507,3.8351,3.7879,3.6554,3.629,3.6234,0.0,0.0,0.0,0.0,0.0,0.0,0.0,0.0,0.0,0.0,0.0,0.0,0.0,0.0,0.0,3.4533,3.2658,3.1674,3.1674,3.1053,3.0715,3.0673,3.0673,3.0389,2.9813,0.0,0.0,0.0,0.0,0.0,0.0,2.7029,2.6697,2.6284,2.6244,2.5953,2.5465,2.484,2.4979,2.5368,2.4772,2.4496,2.4426,2.4345,2.3931,2.3409,2.3409,2.3374,2.324,2.2776,2.2972,2.3059,2.208,2.2594,2.3096,2.2076,2.2242,2.2477,2.1953,2.1791,2.1767,2.1815,2.1838,2.1838,2.1838,2.1838,2.1838,2.1838,2.2369,2.276,2.2755,2.3246,2.3595,2.3595,2.3586,2.3578,2.3578,2.2466,2.1759,2.1712,2.1213,2.0872,2.074,2.018,1.9847,1.9803,1.9845,2.0204,2.0864,2.1425,2.1697,2.1697,2.1697,2.1697,4.0754,0.0,4.0096,4.0096,3.9986,3.9824,0.0,3.959,3.9405,3.9325,3.9299,3.9245,3.9077,3.8662,3.8193,3.7851,3.7294,3.7108,0.0,0.0,0.0,0.0,0.0,0.0,0.0,0.0,0.0,0.0,0.0,0.0,0.0,0.0,0.0,3.4503,3.3053,3.2275,3.2275,3.2128,3.1805,3.1291,3.1291,3.0969,3.0323,3.0162,0.0,0.0,0.0,0.0,2.8123,2.7111,2.6931,2.7203,2.6578,2.6591,2.6901,2.6736,2.6464,2.6152,2.6091,2.5404,2.447,2.3957,2.3678,2.356,2.356,2.3184,2.2854,2.318,2.2716,2.2252,2.2918,2.2975,2.289,2.3051,2.2861,2.2775,2.3091,2.2793,2.2612,2.3061,2.315,2.315,2.315,2.315,2.315,2.315,2.3297,2.3377,2.3385,2.3501,2.3595,2.3595,2.3445,2.3366,2.3366,2.2826,2.2251,2.1739,2.204,2.1585,2.0089,2.0429,2.0387,1.9825,2.0309,2.0877,2.1503,2.1641,2.1697,2.1697,2.1697,2.1697,4.1253,4.0611,4.0096,4.0096,3.9986,3.9875,3.9824,3.9694,3.9563,3.9405,3.9379,3.9379,3.9299,3.9276,3.9037,3.8399,3.8554,0.0,0.0,0.0,0.0,0.0,0.0,0.0,0.0,0.0,0.0,0.0,0.0,0.0,0.0,0.0,0.0,0.0,3.3851,3.3154,3.2512,3.2183,3.1854,3.1511,3.1182,3.0992,3.0873,3.0308,0.0,0.0,0.0,0.0,2.8894,2.7813,2.7597,2.7852,2.707,2.6992,2.7268,2.6961,2.6804,2.6729,2.6505,2.5947,2.5228,2.4539,2.4328,2.4328,2.4328,2.4067,2.3755,2.3596,2.3076,2.2737,2.3387,2.334,2.3186,2.347,2.3511,2.3571,2.3906,2.3897,2.3945,2.4266,2.4328,2.4328,2.4328,2.4328,2.4328,2.4328,2.4333,2.4326,2.4326,2.404,2.383,2.3818,2.3432,2.3158,2.3158,2.2688,2.2359,2.2299,2.2661,2.24,2.1366,2.1212,2.0877,2.0226,2.0883,2.152,2.2167,2.2439,2.2583,2.2583,2.2583,2.2583,4.17,4.1175,4.065,4.0379,4.0229,4.0121,4.0037,3.9918,3.9764,3.9563,3.9511,3.9511,3.9468,3.9904,0.0,0.0,0.0,0.0,0.0,0.0,0.0,0.0,0.0,0.0,0.0,0.0,0.0,0.0,0.0,0.0,0.0,0.0,0.0,0.0,3.45,3.3814,3.2504,3.1945,3.1645,3.163,3.0963,3.0853,3.1197,3.013,0.0,0.0,0.0,0.0,2.9342,2.8616,2.8313,2.8227,2.747,2.7171,2.7086,2.6535,2.6615,2.6931,2.6262,2.605,2.5939,2.5374,2.5202,2.5202,2.5202,2.5202,2.5012,2.4095,2.3837,2.3837,2.3837,2.3837,2.3837,2.3837,2.4199,2.4532,2.4532,2.4875,2.5202,2.5202,2.5202,2.5202,2.5202,2.5202,2.5166,2.5057,2.5135,2.512,2.4891,2.4426,2.4055,2.3948,2.3337,2.2939,2.2939,2.2387,2.2293,2.2869,2.2912,2.2925,2.2925,2.1958,2.1301,2.1069,2.1613,2.2299,2.3091,2.3601,2.3837,2.3837,2.3837,2.3837,4.2115,4.278,4.3137,4.1658,4.1258,4.1122,4.0618,4.0473,4.0319,3.9764,3.9677,3.979,4.017,3.99,3.9707,0.0,0.0,0.0,0.0,0.0,0.0,0.0,0.0,0.0,0.0,0.0,0.0,0.0,0.0,0.0,0.0,0.0,0.0,0.0,0.0,3.3342,3.2513,3.2402,3.2355,3.2339,3.1602,3.1003,3.0553,3.0354,2.9987,0.0,0.0,2.9406,2.9342,2.8666,2.834,2.8206,2.7427,2.7041,2.6915,2.6836,2.6531,2.6108,2.5545,2.5342,2.5346,2.5234,2.5202,2.5202,2.5202,2.5202,2.5163,2.4992,2.4953,2.4953,2.4953,2.4953,2.4953,2.4953,2.5028,2.5086,2.5086,2.5144,2.5202,2.5202,2.5202,2.5202,2.5202,2.5202,2.4987,2.4366,2.4812,2.4761,2.3504,2.3776,2.3861,2.3227,2.2863,2.2655,2.2655,2.2406,2.2295,2.2398,2.2264,2.2173,2.2173,2.1469,2.1593,2.2697,2.2823,2.3523,2.481,2.4921,2.4953,2.4953,2.4953,2.4953,4.2595,4.3017,4.3491,4.3617,4.3625,4.3406,4.2706,4.255,4.2312,4.1481,4.1138,4.104,4.1371,0.0,4.2448,4.3948,0.0,0.0,0.0,0.0,0.0,0.0,0.0,0.0,0.0,0.0,0.0,0.0,0.0,0.0,0.0,0.0,0.0,0.0,3.4846,3.4334,3.3584,3.3205,3.2621,3.1884,3.1206,3.0883,3.0881,3.0514,3.037,3.0372,0.0,3.0372,3.029,2.9171,2.8708,2.8576,2.7344,2.6851,2.6781,2.6781,2.6616,2.6349,2.6087,2.6016,2.6016,2.6016,2.6016,2.6016,2.6016,2.6016,2.6016,2.6016,2.5617,2.5202,2.5202,2.5202,2.5202,2.5202,2.5411,2.5633,2.5633,2.5835,2.6016,2.6016,2.6016,2.6016,2.6016,2.6016,2.5895,2.5546,2.5797,2.5609,2.453,2.4347,2.4015,2.3292,2.2739,2.2445,2.2445,2.2485,2.262,2.2883,2.2815,2.2833,2.3013,2.2736,2.2912,2.3683,2.3699,2.4177,2.5202,2.5202,2.5202,2.5202,2.5016,2.4914,4.2901,4.321,4.3774,4.4941,4.5011,4.4835,4.4911,4.4618,4.421,4.3711,4.3174,4.2794,0.0,4.3417,0.0,0.0,0.0,0.0,0.0,0.0,0.0,0.0,0.0,0.0,0.0,0.0,0.0,0.0,0.0,0.0,0.0,0.0,0.0,0.0,3.5329,3.4912,3.3981,3.3423,3.2617,3.16,3.0911,3.0832,3.1267,3.0746,3.076,3.119,3.119,3.1147,3.0955,2.9835,2.9226,2.887,2.7706,2.7125,2.6988,2.6988,2.6988,2.6988,2.6988,2.6988,2.6971,2.6873,2.6841,2.6841,2.6841,2.6841,2.6857,2.6938,2.6437,2.5788,2.5601,2.5561,2.5561,2.5561,2.5872,2.6175,2.6281,2.659,2.6873,2.6954,2.6988,2.6988,2.6988,2.6973,2.6924,2.6755,2.6856,2.6579,2.547,2.4984,2.4385,2.3445,2.285,2.2508,2.2508,2.2704,2.2968,2.3339,2.3531,2.3699,2.3893,2.4076,2.4282,2.4525,2.4541,2.4865,2.5561,2.5561,2.5561,2.5561,2.5273,2.5155,4.2901,4.4083,4.5159,4.4541,4.3718,4.3781,4.647,4.5875,4.5036,4.6102,4.5691,4.5049,0.0,4.3989,0.0,0.0,0.0,0.0,0.0,0.0,0.0,0.0,0.0,0.0,0.0,0.0,0.0,0.0,0.0,0.0,0.0,0.0,0.0,0.0,0.0,3.3897,3.2462,3.2412,3.2337,3.2238,3.1476,3.1159,3.1216,3.1148,3.1151,3.119,3.119,3.0999,3.0628,3.0524,2.9897,2.8981,2.8891,2.8414,2.7808,2.7808,2.7808,2.7808,2.7808,2.7808,2.7754,2.7378,2.7257,2.7257,2.7257,2.7257,2.7332,2.7707,2.7765,2.7527,2.6791,2.659,2.659,2.659,2.6624,2.6741,2.7131,2.7224,2.738,2.7754,2.7808,2.7808,2.7808,2.7809,2.7592,2.6901,2.7389,2.7002,2.4764,2.505,2.486,2.3364,2.3182,2.3147,2.3147,2.3153,2.3189,2.3218,2.3919,2.4195,2.3912,2.4628,2.5163,2.5494,2.5494,2.5865,2.659,2.659,2.659,2.659,2.6556,2.6556,4.2901,4.4156,4.5433,4.5124,4.4776,4.5084,4.7343,4.7359,4.6898,4.6869,4.7162,0.0,0.0,0.0,0.0,0.0,0.0,0.0,0.0,0.0,0.0,0.0,0.0,0.0,0.0,0.0,0.0,0.0,0.0,0.0,0.0,0.0,0.0,0.0,0.0,3.4648,3.3117,3.3099,3.2891,3.2403,3.1585,3.1468,3.2003,3.1714,3.1715,3.1986,3.1481,3.1184,3.0968,3.0004,2.9378,2.8947,2.8502,2.8145,2.7897,2.7897,2.7897,2.7897,2.7897,2.7897,2.7883,2.7722,2.7663,2.7663,2.7663,2.7663,2.7692,2.7855,2.7897,2.784,2.7532,2.7457,2.7457,2.7457,2.7457,2.7485,2.7634,2.7663,2.7725,2.7869,2.7897,2.789,2.79,2.789,2.7805,2.7528,2.7713,2.7411,2.6062,2.5661,2.51,2.4063,2.3956,2.4029,2.4245,2.4717,2.5097,2.5313,2.4259,2.4025,2.487,2.5182,2.5869,2.7019,2.7021,2.716,2.7457,2.7457,2.7354,2.7202,2.6866,2.6968,4.2973,4.3955,4.5085,4.5105,4.5124,4.5746,4.8038,4.837,4.8314,4.885,4.8758,4.8345,4.7702,0.0,0.0,0.0,0.0,0.0,0.0,0.0,0.0,0.0,0.0,0.0,0.0,0.0,0.0,0.0,0.0,0.0,0.0,0.0,0.0,0.0,0.0,0.0,3.328,3.3262,3.3081,3.2713,3.1707,3.1549,3.2095,3.1532,3.1443,3.1707,3.116,3.0869,3.0673,2.9621,2.9105,2.8949,2.8425,2.8242,2.8242,2.8242,2.8242,2.8242,2.8242,2.8242,2.8228,2.8088,2.8061,2.8061,2.8061,2.8061,2.8075,2.8215,2.8242,2.8242,2.8242,2.8079,2.7897,2.7897,2.7897,2.794,2.8051,2.8061,2.8106,2.8215,2.8242,2.8255,2.8243,2.825,2.8255,2.825,2.8036,2.7681,2.7182,2.6375,2.5655,2.5159,2.4928,2.4975,2.5397,2.6077,2.6513,2.6594,2.5205,2.4876,2.5977,2.6048,2.6623,2.7894,2.7897,2.7897,2.7897,2.7812,2.7727,2.7625,2.7254,2.749,4.3118,4.3499,4.4152,4.4286,4.4323,4.5235,4.8625,4.8715,4.9042,5.2467,5.0519,4.8187,4.8187,0.0,0.0,0.0,0.0,0.0,0.0,0.0,0.0,0.0,0.0,0.0,0.0,0.0,0.0,0.0,0.0,0.0,0.0,0.0,0.0,0.0,0.0,0.0,3.2517,3.2517,3.2745,3.3181,3.1909,3.1299,3.1282,3.0474,3.0106,3.0106,3.0106,2.9905,2.9607,2.9607,2.9365,2.9005,2.9005,2.9005,2.9005,2.9005,2.9005,2.9005,2.9005,2.9005,2.8929,2.854,2.8407,2.8407,2.8407,2.842,2.8484,2.8893,2.9005,2.9005,2.9005,2.8469,2.7926,2.7911,2.7911,2.7992,2.8324,2.8407,2.8509,2.8929,2.9005,2.9005,2.9005,2.9005,2.9005,2.9005,2.8323,2.7831,2.7809,2.7119,2.6612,2.6612,2.608,2.5968,2.657,2.7053,2.7112,2.6654,2.6812,2.6991,2.7199,2.7199,2.7425,2.7908,2.7911,2.7911,2.7911,2.7639,2.7657,2.7911,2.7911,2.8301,4.3178,4.418,4.5148,4.4527,4.5713,4.7452,4.9029,4.8315,4.7951,5.0158,4.8911,4.7587,4.8097,0.0,0.0,0.0,0.0,0.0,0.0,0.0,0.0,0.0,0.0,0.0,0.0,0.0,0.0,0.0,0.0,0.0,0.0,0.0,0.0,0.0,0.0,0.0,3.2587,3.3128,3.3203,3.2766,3.1824,3.166,3.2173,3.1081,3.075,3.0988,3.0412,3.0114,2.9978,2.9399,2.9223,2.9278,2.9278,2.9384,2.9485,2.9485,2.9405,2.9278,2.9278,2.9167,2.8982,2.8863,2.8827,2.8827,2.8827,2.8943,2.909,2.9021,2.9249,2.9465,2.9312,2.9206,2.9077,2.8737,2.8676,2.87,2.8803,2.8827,2.8851,2.8982,2.9005,2.9005,2.9005,2.9166,2.927,2.927,2.9193,2.8933,2.8361,2.808,2.7714,2.716,2.7435,2.7744,2.792,2.8579,2.8926,2.8802,2.8311,2.7895,2.7631,2.7616,2.7953,2.8658,2.8676,2.8676,2.8676,2.8591,2.8609,2.8676,2.8676,2.8797,4.3682,4.4821,4.5999,4.5515,4.6789,4.8251,4.8624,0.0,0.0,0.0,4.8251,4.7241,4.7678,0.0,0.0,0.0,0.0,0.0,0.0,0.0,0.0,0.0,0.0,0.0,0.0,0.0,0.0,0.0,0.0,0.0,0.0,0.0,0.0,0.0,0.0,0.0,3.2601,3.2761,3.266,3.2275,3.1475,3.1385,3.1874,3.0655,3.0206,3.0442,3.0051,2.9887,2.9861,2.9453,2.9375,2.9523,2.9523,2.9598,2.9705,2.9705,2.9616,2.9523,2.9523,2.9415,2.9272,2.9272,2.905,2.8835,2.9161,2.9143,2.9035,2.9231,2.9476,2.967,2.9542,2.9616,2.9634,2.9355,2.9272,2.9272,2.9272,2.9272,2.928,2.9291,2.9289,2.9292,2.9278,2.9409,2.9513,2.952,2.9631,2.928,2.8126,2.8285,2.8172,2.7352,2.779,2.8229,2.8428,2.9083,2.9527,2.9695,2.9315,2.8923,2.857,2.8244,2.8467,2.9254,2.9272,2.9254,2.9198,2.9047,2.9095,2.9272,2.9272,2.9553,4.442,4.5348,4.6592,4.6835,4.7627,4.825,4.7943,4.9879,5.129,4.9612,0.0,4.704,0.0,0.0,0.0,0.0,0.0,0.0,0.0,0.0,0.0,0.0,0.0,0.0,0.0,0.0,0.0,0.0,0.0,0.0,0.0,0.0,0.0,0.0,0.0,0.0,3.2562,3.1912,3.1633,0.0,3.098,3.0711,3.0856,2.9622,2.9067,2.9078,2.9312,2.9424,2.9444,2.9616,2.9713,2.9731,2.9731,2.9748,2.9765,2.9765,2.9756,2.9731,2.9731,2.9722,2.9705,2.9705,2.9149,2.8678,2.946,2.9166,2.8703,2.9478,2.9731,2.9765,2.972,2.9748,2.9765,2.9765,2.9731,2.9705,2.9705,2.9696,2.9708,2.9711,2.9702,2.9704,2.9708,2.9729,2.9731,2.9764,2.9753,2.9198,2.7694,2.819,2.8372,2.7587,2.7707,2.8053,2.8545,2.897,2.9379,2.9733,2.995,2.9947,2.9773,2.902,2.8957,2.9686,2.9686,2.9621,2.9518,2.9217,2.9302,2.9761,2.9846,3.0486,4.449,4.5189,4.6129,4.6816,4.857,4.9954,4.919,4.9512,4.9347,4.715,4.6612,0.0,0.0,0.0,0.0,0.0,0.0,0.0,0.0,0.0,0.0,0.0,0.0,0.0,0.0,0.0,0.0,0.0,0.0,0.0,0.0,0.0,0.0,0.0,0.0,3.3354,3.2291,3.2731,3.2338,0.0,3.0923,3.0857,3.0866,2.9964,2.9551,2.9551,2.9607,2.9644,2.9634,2.9678,2.9788,2.9939,2.9939,3.0054,3.026,3.026,3.0109,2.9939,2.9939,2.9829,2.9705,2.9705,2.9573,2.946,2.9648,2.9672,2.9661,2.97,2.9969,3.0208,2.9984,3.0095,3.026,3.026,2.9977,2.9705,2.9705,2.9691,2.9701,2.971,2.9701,2.97,2.9707,2.9837,3.0011,3.0216,3.0254,3.0126,2.9768,2.9883,2.9922,2.9724,2.9761,2.9844,2.996,3.0061,3.0163,3.0241,3.0292,3.0299,3.0241,2.9725,2.9525,2.9705,2.9602,2.9583,2.9658,2.9583,2.978,3.0268,3.0909,3.1334,4.4919,4.5879,4.7151,4.8448,4.9439,4.9911,4.9256,4.8496,4.7516,4.6144,0.0,0.0,0.0,0.0,0.0,0.0,0.0,0.0,0.0,0.0,0.0,0.0,0.0,0.0,0.0,0.0,0.0,0.0,0.0,0.0,0.0,0.0,0.0,0.0,3.3666,3.2914,3.2213,3.1808,3.124,3.0473,3.0473,3.0549,3.0636,2.9988,2.9705,2.9713,2.9796,2.9845,2.9853,2.9973,3.0107,3.0196,3.0196,3.0292,3.0404,3.0404,3.0311,3.0138,2.9717,2.9772,2.9972,2.9553,2.9401,2.9496,2.9915,2.9815,2.9621,2.9944,3.0208,3.0367,3.0241,3.0299,3.0404,3.0404,3.0215,3.003,3.003,3.0042,3.0033,3.0033,3.0049,3.0032,3.0039,3.0113,3.0244,3.0385,3.0404,3.025,2.9833,3.0135,3.0096,2.93,2.9552,2.9777,2.9786,2.9781,2.9967,3.0365,3.0404,3.0404,3.0404,3.0174,3.003,3.003,2.9972,2.9972,3.003,3.0833,3.123,3.1249,3.2199,3.2722,4.539,4.657,4.8221,5.0029,4.9817,0.0,4.8769,4.7502,4.629,0.0,0.0,0.0,0.0,0.0,0.0,0.0,0.0,0.0,0.0,0.0,0.0,0.0,0.0,0.0,0.0,0.0,0.0,0.0,0.0,0.0,0.0,0.0,3.5402,3.4802,3.3422,3.2655,3.2549,3.1025,3.028,3.0285,3.0152,3.0266,3.0609,3.0076,2.9823,2.9832,3.0003,3.0075,3.0082,3.0311,3.0404,3.0404,3.0404,3.0404,3.0404,3.0404,3.0404,3.0308,2.9563,2.9794,3.0288,2.9563,2.9319,2.9467,3.0173,2.991,2.9467,3.0192,3.0402,3.0419,3.039,3.0425,3.0439,3.0411,3.0431,3.0425,3.039,3.0404,3.0404,3.0404,3.0404,3.0404,3.0404,3.0404,3.0404,3.0404,3.0404,3.0135,2.941,2.9948,2.9871,2.8483,2.8926,2.9322,2.9321,2.9312,2.964,3.0386,3.0425,3.0425,3.0425,3.0425,3.0425,3.0425,3.0414,3.0404,3.0404,3.1986,3.2531,3.2134,3.3314,3.3988,4.5389,4.6167,4.7377,4.9135,4.8913,4.8269,0.0,0.0,4.6579,0.0,0.0,0.0,0.0,0.0,0.0,0.0,0.0,0.0,0.0,0.0,0.0,0.0,0.0,0.0,0.0,0.0,0.0,0.0,0.0,0.0,0.0,3.5231,3.4926,3.5053,3.4833,3.4467,3.3939,3.296,3.2141,3.145,3.072,3.077,3.15,3.0688,3.0318,3.0299,3.0323,3.0349,3.0355,3.0392,3.0404,3.0404,3.0404,3.0404,3.0404,3.0404,3.0404,3.0385,3.0269,3.0308,3.0385,3.0269,3.0231,3.025,3.0365,3.0327,3.025,3.0365,3.0441,3.0467,3.0419,3.0486,3.057,3.0498,3.0537,3.0543,3.0425,3.0404,3.0404,3.0404,3.0404,3.0404,3.0404,3.0404,3.0404,3.0404,3.0404,3.0365,3.0231,3.0327,3.0308,3.0096,3.0163,3.0236,3.0229,3.0234,3.0338,3.0552,3.0571,3.0571,3.0571,3.0571,3.0571,3.0571,3.0457,3.0404,3.0404,3.1628,3.2172,3.2134,3.3513,3.4167,4.5983,4.6455,4.7098,4.8365,4.8048,4.7432,4.7432,0.0,0.0,0.0,0.0,0.0,0.0,0.0,0.0,0.0,0.0,0.0,0.0,0.0,0.0,0.0,0.0,0.0,0.0,0.0,0.0,0.0,0.0,0.0,3.6398,3.5596,3.5207,3.5312,3.484,0.0,3.4205,3.2891,3.1795,3.0962,3.1077,3.1085,3.1032,3.1148,3.1163,3.1096,3.0615,3.0404,3.039,3.0441,3.0452,3.0462,3.049,3.0516,3.0516,3.0516,3.0516,3.0458,2.9993,3.0128,3.0438,2.9993,3.0148,3.0516,3.0516,3.0516,3.0516,3.0516,3.0533,3.0556,3.0528,3.0563,3.0594,3.0558,3.0944,3.1301,3.1258,3.0859,3.0509,3.0509,3.0506,3.0516,3.0516,3.0516,3.0516,3.0516,3.0516,3.0516,3.0516,3.0457,3.0405,3.0405,3.0393,3.0444,3.055,3.0577,3.0585,3.0643,3.0659,3.0684,3.0761,3.0703,3.0956,3.1604,3.1841,3.1816,3.1521,3.3313,3.3877,3.336,3.4475,3.4968,4.6156,4.6417,4.6675,4.7593,4.7223,4.6681,0.0,0.0,0.0,0.0,0.0,0.0,0.0,0.0,0.0,0.0,0.0,0.0,0.0,0.0,0.0,0.0,0.0,0.0,0.0,0.0,0.0,0.0,0.0,0.0,3.675,3.6135,3.5712,3.5519,3.4872,3.4526,3.4526,3.3088,3.1815,3.0755,3.143,3.1444,3.087,3.1297,3.1593,3.1692,3.0823,3.0456,3.0447,3.0507,3.0521,3.0529,3.0581,3.0603,3.0603,3.0603,3.0603,3.0508,2.9908,3.0103,3.0508,2.9908,3.01,3.0603,3.0603,3.0603,3.0603,3.0603,3.0776,3.0942,3.0923,3.1123,3.1317,3.1283,3.1796,3.2263,3.2246,3.1724,3.1256,3.1259,3.1081,3.0995,3.1212,3.0898,3.0703,3.0995,3.0781,3.0703,3.1014,3.0717,3.0477,3.0478,3.0478,3.0546,3.0739,3.0747,3.0752,3.0752,3.0749,3.0891,3.1224,3.1127,3.1577,3.2632,3.326,3.3264,3.2602,3.4532,3.5079,3.4365,3.5233,3.5605,4.5436,4.5467,4.5725,4.6797,4.6452,4.61,0.0,0.0,0.0,0.0,0.0,0.0,0.0,0.0,0.0,0.0,0.0,0.0,0.0,0.0,0.0,0.0,0.0,0.0,0.0,0.0,0.0,0.0,0.0,0.0,3.6788,3.6654,3.6288,3.5519,3.5462,3.5423,3.5423,3.4582,3.3335,3.1729,3.184,3.1861,3.1796,3.1025,3.1119,3.1848,3.0976,3.0591,3.0591,3.0597,3.0597,3.0597,3.0603,3.0603,3.0603,3.0603,3.0603,3.0583,3.0544,3.0564,3.0583,3.0544,3.0564,3.0603,3.0603,3.0603,3.0603,3.0603,3.1241,3.1915,3.1857,3.2547,3.324,3.3163,3.3233,3.3297,3.3167,3.3095,3.3063,3.3065,3.2408,3.2093,3.2917,3.1682,3.0975,3.2054,3.129,3.1014,3.2152,3.1366,3.0689,3.0684,3.0681,3.0739,3.0876,3.0894,3.0898,3.0898,3.0898,3.1269,3.2109,3.2129,3.2519,3.3339,3.4199,3.4146,3.3153,3.4101,3.4542,3.452,3.5311,3.5696,4.5502,4.556,4.5708,4.6183,4.6075,4.5952,4.6295,0.0,0.0,0.0,0.0,0.0,0.0,0.0,0.0,0.0,0.0,0.0,0.0,0.0,0.0,0.0,0.0,0.0,0.0,0.0,0.0,0.0,0.0,0.0,3.7565,3.65,3.5823,3.5568,3.5568,3.5347,3.4854,3.4571,3.3852,3.2713,3.3288,3.3012,3.1976,3.2225,3.1931,3.1233,3.0922,3.0719,3.0609,3.0655,3.065,3.0673,3.0759,3.0785,3.0863,3.1411,3.1274,3.0863,3.1431,3.1255,3.0785,3.0785,3.0785,3.0785,3.0785,3.1177,3.1626,3.1626,3.2238,3.2886,3.2878,3.3122,3.3496,3.3865,3.3964,3.416,3.4859,3.4115,3.3333,3.3327,3.3072,3.2857,3.2818,3.231,3.2016,3.2427,3.2447,3.2681,3.3502,3.3897,3.3254,3.106,3.0837,3.0859,3.0895,3.0898,3.1133,3.1699,3.1738,3.2109,3.2949,3.2969,3.3379,3.4219,3.4531,3.451,3.4166,3.5043,3.5441,3.5409,3.57,3.5772,4.551,4.5591,4.5701,0.0,4.593,4.5982,4.6024,0.0,0.0,0.0,0.0,0.0,0.0,0.0,0.0,0.0,0.0,0.0,0.0,0.0,0.0,0.0,0.0,0.0,0.0,0.0,0.0,0.0,0.0,0.0,3.813,3.7048,3.6184,3.5654,3.5635,3.5406,3.4912,3.4959,3.4525,3.367,3.3982,3.3401,3.2078,3.2368,3.2063,3.1348,3.1348,3.1086,3.0693,3.0742,3.0769,3.0771,3.0878,3.1074,3.1406,3.1992,3.1992,3.1816,3.2402,3.2226,3.1738,3.1738,3.1738,3.1738,3.1738,3.2148,3.2598,3.2598,3.3203,3.3848,3.3848,3.4043,3.4375,3.4785,3.4863,3.5078,3.584,3.5098,3.4277,3.4277,3.4277,3.416,3.3809,3.3262,3.3066,3.3652,3.4043,3.4414,3.4824,3.5195,3.459,3.2402,3.1914,3.1738,3.1738,3.1738,3.1992,3.2578,3.2598,3.2969,3.3809,3.3848,3.4258,3.5117,3.5137,3.5137,3.5137,3.5723,3.5975,3.5922,3.5922,3.589,0.0,0.0,0.0,0.0,0.0,0.0,4.6263,0.0,0.0,0.0,0.0,0.0,0.0,0.0,0.0,0.0,0.0,0.0,0.0,0.0,0.0,0.0,0.0,0.0,0.0,0.0,0.0,0.0,0.0,4.0042,3.8431,3.8314,3.7497,3.5768,3.5733,3.5733,3.5713,3.5841,3.5474,3.4633,3.3844,3.3047,3.2246,3.1406,3.1465,3.2246,3.2246,3.1758,3.0976,3.0976,3.0976,3.0976,3.0976,3.1484,3.2246,3.2266,3.2754,3.3398,3.3437,3.3418,3.3398,3.3398,3.3398,3.3398,3.3398,3.3418,3.3437,3.3437,3.4062,3.4746,3.4746,3.5371,3.5996,3.5996,3.5996,3.5996,3.5996,3.5996,3.5996,3.5996,3.5996,3.5996,3.5996,3.4609,3.4043,3.5742,3.5996,3.5996,3.5996,3.5039,3.4434,3.4668,3.3945,3.3437,3.3398,3.3398,3.3418,3.3437,3.3437,3.3828,3.4707,3.4746,3.5137,3.5976,3.5996,3.5996,3.5996,3.5996,3.5996,3.5996,3.5996,3.6016,4.5627,0.0,0.0,0.0,0.0,0.0,0.0,0.0,0.0,0.0,0.0,0.0,0.0,0.0,0.0,0.0,0.0,0.0,0.0,0.0,0.0,0.0,0.0,0.0,0.0,0.0,0.0,0.0,4.026,3.9723,3.9275,3.8686,3.76,3.5901,3.6501,3.6552,3.5927,3.5952,3.5857,3.5603,3.539,3.4824,3.4004,3.3769,3.3437,3.3066,3.3066,3.293,3.2715,3.2715,3.2715,3.2715,3.2715,3.2851,3.3144,3.3789,3.375,3.3496,3.4121,3.3926,3.3398,3.3398,3.3398,3.3398,3.3398,3.3848,3.4336,3.4336,3.4961,3.5644,3.5644,3.582,3.5996,3.5996,3.5996,3.5996,3.5996,3.5893,3.5827,3.5976,3.5996,3.5996,3.5996,3.5605,3.5449,3.5937,3.5996,3.5996,3.5996,3.5723,3.5312,3.4766,3.4473,3.4082,3.3457,3.3351,3.3622,3.4297,3.4289,3.4678,3.5605,3.5644,3.5742,3.5996,3.5996,3.5996,3.5996,3.5996,3.5996,3.5996,3.5996,3.6348,4.5645,4.5783,0.0,0.0,0.0,0.0,4.6296,4.63,0.0,0.0,0.0,0.0,0.0,0.0,0.0,0.0,0.0,0.0,0.0,0.0,0.0,0.0,0.0,0.0,0.0,0.0,0.0,0.0,4.0713,4.011,3.9739,3.8591,3.7488,3.6512,3.6659,3.6504,3.5996,3.5996,3.5996,3.5996,3.5625,3.5195,3.4687,3.4316,3.4082,3.3945,3.3945,3.4141,3.4473,3.4473,3.4062,3.3398,3.3398,3.3613,3.4004,3.4512,3.4609,3.4551,3.5078,3.4902,3.4473,3.4473,3.4473,3.4473,3.4473,3.4844,3.5234,3.5234,3.5584,3.5951,3.5951,3.5924,3.5875,3.5914,3.6284,3.6693,3.6908,3.6863,3.6601,3.5985,3.6468,3.6965,3.6967,3.6731,3.6534,3.6534,3.6477,3.6419,3.6419,3.6729,3.663,3.5754,3.5656,3.5306,3.4428,3.4324,3.4688,3.5596,3.5628,3.6014,3.6921,3.6962,3.6962,3.6962,3.6962,3.6788,3.6419,3.615,3.6191,3.6543,3.6543,3.7012,4.5558,4.5703,4.5856,0.0,0.0,0.0,4.6297,4.63,4.6302,0.0,0.0,0.0,0.0,0.0,0.0,0.0,0.0,0.0,0.0,0.0,0.0,0.0,0.0,0.0,0.0,0.0,4.2617,4.2402,4.1641,4.082,3.9941,3.8516,3.7598,3.7305,3.6641,3.6191,3.5996,3.5996,3.5996,3.5996,3.5215,3.4844,3.4824,3.4043,3.4101,3.4844,3.4844,3.5273,3.5996,3.5996,3.5078,3.3691,3.3691,3.416,3.4844,3.4844,3.5332,3.5996,3.5996,3.5996,3.5995,3.5995,3.5976,3.5975,3.5975,3.5975,3.5975,3.5975,3.5923,3.5894,3.5992,3.5933,3.5878,3.6034,3.6848,3.7723,3.8194,3.8292,3.7813,3.626,3.726,3.8385,3.8388,3.7836,3.7401,3.7401,3.7269,3.7136,3.7136,3.7829,3.8,3.7226,3.7132,3.6789,3.5917,3.5926,3.6253,3.6954,3.7086,3.7471,3.8268,3.8307,3.8307,3.8307,3.8307,3.7922,3.7136,3.6557,3.6599,3.7264,3.7361,3.7888,0.0,0.0,0.0,0.0,0.0,0.0,4.6305,4.6305,4.6308,0.0,0.0,0.0,0.0,0.0,0.0,0.0,0.0,0.0,0.0,0.0,0.0,0.0,0.0,0.0,0.0,0.0,4.3906,4.2519,4.1641,4.082,3.9941,4.0234,3.9473,3.7363,3.7812,3.7422,3.6016,3.5996,3.5996,3.5996,3.582,3.5742,3.5742,3.5566,3.5586,3.5742,3.5742,3.584,3.5996,3.5945,3.5753,3.5488,3.5488,3.5605,3.5742,3.5742,3.5859,3.5996,3.5996,3.5953,3.5914,3.5914,3.5851,3.5752,3.5752,3.5752,3.5752,3.5752,3.5741,3.5905,3.6602,3.6764,3.6922,3.7634,3.7981,3.8175,3.8272,3.8224,3.8049,3.7705,3.8294,3.886,3.8864,3.8451,3.8097,3.8097,3.8078,3.8058,3.8058,3.8191,3.823,3.8054,3.8058,3.7689,3.6821,3.7287,3.7448,3.7035,3.7555,3.8006,3.8284,3.8307,3.8307,3.8307,3.8307,3.821,3.8058,3.792,3.7569,3.7072,3.7786,3.8562,0.0,0.0,0.0,4.6017,0.0,0.0,0.0,4.6306,4.6309,0.0,0.0,0.0,0.0,0.0,0.0,0.0,0.0,0.0,0.0,0.0,0.0,0.0,0.0,0.0,0.0,0.0,4.4277,4.2539,4.2031,4.1426,4.0586,4.0547,3.9941,3.8633,3.8594,3.8184,3.7305,3.6875,3.6641,3.6641,3.6211,3.5996,3.5996,3.5972,3.5948,3.5948,3.5874,3.5845,3.5843,3.5817,3.5821,3.5845,3.5845,3.5845,3.5845,3.5845,3.5845,3.5845,3.5845,3.5828,3.5802,3.5802,3.5758,3.5707,3.5707,3.5707,3.5707,3.5707,3.5998,3.6399,3.6845,3.7225,3.7614,3.8053,3.8479,3.8808,3.8808,3.9058,3.9296,3.9296,3.9534,3.9627,3.922,3.8944,3.8808,3.8808,3.8808,3.8808,3.8808,3.9157,3.9228,3.8847,3.8808,3.846,3.7569,3.7834,3.8079,3.8131,3.8491,3.8904,3.9383,3.9402,3.9402,3.9402,3.9822,3.9822,3.9402,3.9402,3.9014,3.8303,3.8743,3.9404,0.0,0.0,0.0,0.0,0.0,4.6251,0.0,0.0,0.0,4.6297,0.0,0.0,0.0,0.0,0.0,0.0,0.0,0.0,0.0,0.0,0.0,0.0,0.0,0.0,0.0,0.0,4.4414,4.3008,4.2598,4.2129,4.1465,4.0625,4.0078,3.9902,3.9219,3.8769,3.8594,3.787,3.7518,3.7498,3.6617,3.6186,3.6185,3.5965,3.5869,3.5867,3.5755,3.5707,3.5703,3.5686,3.5678,3.5678,3.57,3.5707,3.5707,3.5707,3.5707,3.5707,3.5707,3.5693,3.5678,3.5678,3.5663,3.5725,3.6051,3.6032,3.5896,3.5896,3.6484,3.711,3.711,3.7668,3.8296,3.843,3.9008,3.9534,3.9534,4.0035,4.0496,4.0496,4.0496,4.0285,3.965,3.9534,3.9534,3.9534,3.9534,3.9534,3.9534,4.0092,4.0246,3.9611,3.9534,3.9188,3.8315,3.8392,3.8719,3.9265,3.9457,3.9823,4.0477,4.0669,4.0746,4.0746,4.1604,4.17,4.0997,4.0997,4.0584,3.9772,3.9772,4.0199,0.0,0.0,0.0,0.0,4.5963,0.0,0.0,0.0,4.6302,4.6303,0.0,0.0,0.0,0.0,0.0,0.0,0.0,0.0,0.0,0.0,0.0,0.0,0.0,0.0,0.0,0.0,0.0,4.4726,4.3262,4.2363,4.2266,4.1484,4.0703,3.9922,3.9805,3.9375,3.8613,3.8384,3.8287,3.8268,3.7333,3.6891,3.6855,3.6073,3.572,3.572,3.571,3.5707,3.57,3.5639,3.5611,3.5626,3.5671,3.5707,3.5707,3.5707,3.5707,3.5707,3.5707,3.5667,3.5611,3.5611,3.5566,3.5791,3.7301,3.7198,3.6581,3.6581,3.7203,3.7882,3.7882,3.8503,3.9342,4.0054,4.0285,4.0362,4.0362,4.0439,4.0496,4.0496,4.0496,4.0477,4.0381,4.0362,4.0362,4.0362,4.0362,4.0362,4.0362,4.0439,4.0458,4.0362,4.0362,4.0035,3.9227,3.9804,3.9958,3.9342,3.9977,4.04,4.0496,4.1239,4.1662,4.1662,4.2508,4.2893,4.2797,4.2797,4.1974,4.0403,4.0403,4.0865,0.0,0.0,0.0,0.0,0.0,0.0,0.0,0.0,4.63,0.0,0.0,0.0,0.0,0.0,0.0,0.0,0.0,0.0,0.0,0.0,0.0,0.0,0.0,0.0,0.0,0.0,0.0,0.0,0.0,4.269,4.1758,4.1387,4.1035,4.0664,4.0644,4.0448,4.0006,3.9442,3.9121,3.9094,3.8178,3.7747,3.7728,3.68,3.6405,3.6362,3.5824,3.5574,3.5588,3.5544,3.5823,3.6234,3.6261,3.5999,3.5632,3.6115,3.6289,3.6289,3.6289,3.6592,3.7,3.7,3.6973,3.7084,3.7796,3.7738,3.745,3.745,3.8084,3.8738,3.8738,3.9381,4.0073,4.0419,4.0893,4.1123,4.0612,4.0893,4.1104,4.0593,4.0912,4.1258,4.1258,4.0835,4.0496,4.0496,4.0496,4.0496,4.0496,4.0496,4.0496,4.0496,4.0496,4.0362,4.0035,4.0304,4.0362,4.0015,4.0796,4.147,4.1989,4.2816,4.3028,4.2566,4.3374,4.3797,4.3797,4.3335,4.2951,4.2681,4.222,4.22,4.5348,0.0,0.0,0.0,0.0,0.0,0.0,0.0,0.0,0.0,0.0,0.0,0.0,0.0,0.0,0.0,0.0,0.0,0.0,0.0,0.0,0.0,0.0,0.0,0.0,0.0,0.0,0.0,4.3749,0.0,4.1578,4.1523,4.1426,4.1211,4.1406,4.1363,4.0996,4.0335,3.9974,3.9887,3.8996,3.8564,3.8525,3.737,3.6841,3.6797,3.5888,3.5635,3.5827,3.5827,3.6308,3.7084,3.7315,3.6911,3.625,3.6846,3.7065,3.7065,3.7065,3.7469,3.8046,3.8277,3.818,3.8084,3.8546,3.8527,3.8354,3.8354,3.8969,3.9573,3.9361,3.99,4.0496,4.0496,4.1162,4.1643,4.0989,4.1546,4.197,4.1343,4.172,4.2085,4.1846,4.147,4.1208,4.1208,4.1208,4.1131,4.09,4.1054,4.1131,4.0873,4.1073,4.1208,4.1208,4.1208,4.1208,4.1208,4.1816,4.245,4.3066,4.3874,4.4028,4.3431,4.4239,4.4662,4.4643,4.4066,4.4085,4.4624,4.3585,4.322,0.0,0.0,0.0,4.5477,0.0,0.0,0.0,0.0,4.6141,0.0,0.0,0.0,0.0,0.0,0.0,4.6098,0.0,0.0,0.0,0.0,0.0,0.0,0.0,0.0,0.0,0.0,0.0,4.4743,4.4005,0.0,4.2307,4.2339,4.1992,4.1211,4.1953,4.1929,4.1016,4.0831,4.0727,4.0645,3.9713,3.9261,3.9203,3.7495,3.6706,3.6668,3.5846,3.5942,3.6654,3.6654,3.718,3.8046,3.8892,3.8681,3.7911,3.795,3.7969,3.7969,3.7969,3.7988,3.8142,3.8977,3.8681,3.8296,3.9938,3.9881,3.9265,3.9265,3.9842,4.0285,3.9496,3.99,4.0496,4.0496,4.1162,4.1788,4.175,4.245,4.3047,4.3028,4.3047,4.2797,4.1942,4.2489,4.3028,4.3028,4.3028,4.272,4.1865,4.2489,4.2701,4.1846,4.2508,4.3028,4.3028,4.3028,4.3028,4.3028,4.3047,4.3066,4.3104,4.3874,4.4297,4.4259,4.5133,4.5556,4.5556,4.5537,4.5537,4.5518,4.3874,4.3528,0.0,0.0,4.5448,4.5429,0.0,0.0,0.0,0.0,0.0,0.0,0.0,0.0,0.0,0.0,4.6095,4.6105,4.5942,0.0,0.0,0.0,0.0,0.0,0.0,0.0,0.0,0.0,0.0,4.3966,4.3058,4.2435,0.0,4.2198,4.2345,4.2652,4.2365,4.2036,4.1674,4.1048,4.0684,4.0554,4.0257,4.0092,4.0054,3.8931,3.8411,3.8373,3.7526,3.7315,3.7565,3.7565,3.8065,3.8892,3.9188,3.9457,3.9592,3.9073,3.8854,3.8931,3.9477,3.965,3.9708,3.9996,3.99,3.9765,4.0323,4.0304,4.0092,4.0092,4.07,4.1296,4.1027,4.1585,4.222,4.222,4.2854,4.3316,4.2777,4.3316,4.3739,4.3201,4.3528,4.3797,4.3508,4.4182,4.4182,4.2489,4.2239,4.2335,4.2624,4.2912,4.2989,4.2701,4.2912,4.3104,4.3104,4.3104,4.3335,4.3855,4.3893,4.4143,4.4729,4.5017,4.5171,4.5171,4.546,4.5594,4.5594,4.5594,4.5594,4.5594,4.5017,4.4902,4.5438,4.5476,0.0,0.0,4.5512,0.0,4.5603,0.0,0.0,0.0,0.0,0.0,0.0,0.0,0.0,4.6099,4.5978,0.0,0.0,4.5807,0.0,0.0,0.0,0.0,0.0,0.0,4.4572,4.3481,4.3095,4.2662,0.0,0.0,4.3143,4.3391,4.3162,4.268,4.2014,4.1433,4.0945,4.0496,4.0496,4.0496,4.0477,3.9669,3.9304,3.9246,3.8373,3.818,3.845,3.845,3.895,3.9727,3.9727,4.0035,4.0439,3.9919,3.9727,3.9804,4.0323,4.0496,4.0496,4.0496,4.0496,4.0496,4.0496,4.0496,4.0554,4.0873,4.1373,4.1865,4.2181,4.2681,4.3104,4.3104,4.3701,4.4162,4.3643,4.4182,4.4605,4.4085,4.4412,4.4662,4.4355,4.4759,4.4682,4.3355,4.3143,4.3239,4.3489,4.3797,4.3874,4.3566,4.3797,4.3989,4.3989,4.3989,4.4201,4.472,4.4759,4.5017,4.5575,4.5594,4.5748,4.6067,4.5768,4.5748,4.6067,4.5748,4.5594,4.5594,4.5594,4.5594]}]]